[[{"header":{"parameterUnit":"m.s-1","parameterCategory":1,"la1":31.0,"la2":29.5877,"lo1":-88.7671,"lo2":-86.6584,"dy":0.0162,"dx":0.0185,"nx":115,"ny":88,"refTime":"2025-08-19T00:00:00:Z","depth":0,"parameterNumber":2,"parameterNumberName":"U-component_of_WINDS"},"data":[0.0,0.0,0.0,0.0,0.0,0.0,0.0,0.0,0.0,0.0,0.0,0.0,0.0,0.0,0.0,0.0,0.0,0.0,0.0,0.0,0.0,0.0,0.0,0.0,0.0,0.0,0.0,0.0,0.0,0.0,0.0,0.0,0.0,0.0,0.0,0.0,0.0,0.0,0.0,0.0,0.0,0.0,0.0,0.0,0.0,0.0,0.0,0.0,0.0,0.0,0.0,0.0,0.0,0.0,0.0,0.0,0.0,0.0,0.0,0.0,0.0,0.0,0.0,0.0,0.0,0.0,0.0,0.0,0.0,0.0,0.0,0.0,0.0,0.0,0.0,0.0,0.0,0.0,0.0,0.0,0.0,0.0,0.0,0.0,0.0,0.0,0.0,0.0,0.0,0.0,0.0,0.0,0.0,0.0,0.0,0.0,0.0,0.0,0.0,0.0,0.0,0.0,0.0,0.0,0.0,0.0,0.0,0.0,0.0,0.0,0.0,0.0,0.0,0.0,0.0,0.0,0.0,0.0,0.0,0.0,0.0,0.0,0.0,0.0,0.0,0.0,0.0,0.0,0.0,0.0,0.0,0.0,0.0,0.0,0.0,0.0,0.0,0.0,0.0,0.0,0.0,0.0,0.0,0.0,0.0,0.0,0.0,0.0,0.0,0.0,0.0,0.0,0.0,0.0,0.0,0.0,0.0,0.0,0.0,0.0,0.0,0.0,0.0,0.0,0.0,0.0,0.0,0.0,0.0,0.0,0.0,0.0,0.0,0.0,0.0,0.0,0.0,0.0,0.0,0.0,0.0,0.0,0.0,0.0,0.0,0.0,0.0,0.0,0.0,0.0,0.0,0.0,0.0,0.0,0.0,0.0,0.0,0.0,0.0,0.0,0.0,0.0,0.0,0.0,0.0,0.0,0.0,0.0,0.0,0.0,0.0,0.0,0.0,0.0,0.0,0.0,0.0,0.0,0.0,0.0,0.0,0.0,0.0,0.0,0.0,0.0,0.0,0.0,0.0,0.0,0.0,0.0,0.0,0.0,0.0,0.0,0.0,0.0,0.0,0.0,0.0,0.0,0.0,0.0,0.0,0.0,0.0,0.0,0.0,0.0,0.0,0.0,0.0,0.0,0.0,0.0,0.0,0.0,0.0,0.0,0.0,0.0,0.0,0.0,0.0,0.0,0.0,0.0,0.0,0.0,0.0,0.0,0.0,0.0,0.0,0.0,0.0,0.0,0.0,0.0,0.0,0.0,0.0,0.0,0.0,0.0,0.0,0.0,0.0,0.0,0.0,0.0,0.0,0.0,0.0,0.0,0.0,0.0,0.0,0.0,0.0,0.0,0.0,0.0,0.0,0.0,0.0,0.0,0.0,0.0,0.0,0.0,0.0,0.0,0.0,0.0,0.0,0.0,0.0,0.0,0.0,0.0,0.0,0.0,0.0,0.0,0.0,0.0,0.0,0.0,0.0,0.0,0.0,0.0,0.0,0.0,0.0,0.0,0.0,0.0,0.0,0.0,0.0,0.0,0.0,0.0,0.0,0.0,0.0,0.0,0.0,0.0,0.0,0.0,0.0,0.0,0.0,0.0,0.0,0.0,0.0,0.0,0.0,0.0,0.0,0.0,0.0,0.0,0.0,0.0,0.0,0.0,0.0,0.0,0.0,0.0,0.0,0.0,0.0,0.0,0.0,0.0,0.0,0.0,0.0,0.0,0.0,0.0,0.0,0.0,0.0,0.0,0.0,0.0,0.0,0.0,0.0,0.0,0.0,0.0,0.0,0.0,0.0,0.0,0.0,0.0,0.0,0.0,0.0,0.0,0.0,0.0,0.0,0.0,0.0,0.0,0.0,0.0,0.0,0.0,0.0,0.0,0.0,0.0,0.0,0.0,0.0,0.0,0.0,0.0,0.0,0.0,0.0,0.0,0.0,0.0,0.0,0.0,0.0,0.0,0.0,0.0,0.0,0.0,0.0,0.0,0.0,0.0,0.0,0.0,0.0,0.0,0.0,0.0,0.0,0.0,0.0,0.0,0.0,0.0,0.0,0.0,0.0,0.0,0.0,0.0,0.0,0.0,0.0,0.0,0.0,0.0,0.0,0.0,0.0,0.0,0.0,0.0,0.0,0.0,0.0,0.0,0.0,0.0,0.0,0.0,0.0,0.0,0.0,0.0,0.0,0.0,0.0,0.0,0.0,0.0,0.0,0.0,0.0,0.0,0.0,0.0,0.0,0.0,0.0,0.0,0.0,0.0,0.0,0.0,0.0,0.0,0.0,0.0,0.0,0.0,0.0,0.0,0.0,0.0,0.0,0.0,0.0,0.0,0.0,0.0,0.0,0.0,0.0,0.0,0.0,0.0,0.0,0.0,0.0,0.0,0.0,0.0,0.0,0.0,0.0,0.0,0.0,0.0,0.0,0.0,0.0,0.0,0.0,0.0,0.0,0.0,0.0,0.0,0.0,0.0,0.0,0.0,0.0,0.0,0.0,0.0,0.0,0.0,0.0,0.0,0.0,0.0,0.0,0.0,0.0,0.0,0.0,0.0,0.0,0.0,0.0,0.0,0.0,0.0,0.0,0.0,0.0,0.0,0.0,0.0,0.0,0.0,0.0,0.0,0.0,0.0,0.0,0.0,0.0,0.0,0.0,0.0,0.0,0.0,0.0,0.0,0.0,0.0,0.0,0.0,0.0,0.0,0.0,0.0,0.0,0.0,0.0,0.0,0.0,0.0,0.0,0.0,0.0,0.0,0.0,0.0,0.0,0.0,0.0,0.0,0.0,0.0,0.0,0.0,0.0,0.0,0.0,0.0,0.0,0.0,0.0,0.0,0.0,0.0,0.0,0.0,0.0,0.0,0.0,0.0,0.0,0.0,0.0,0.0,0.0,0.0,0.0,0.0,0.0,0.0,0.0,0.0,0.0,0.0,0.0,0.0,0.0,0.0,0.0,0.0,0.0,0.0,0.0,0.0,0.0,0.0,0.0,0.0,0.0,0.0,0.0,0.0,0.0,0.0,0.0,0.0,0.0,0.0,0.0,0.0,0.0,0.0,0.0,0.0,0.0,0.0,0.0,0.0,0.0,0.0,0.0,0.0,0.0,0.0,0.0,0.0,0.0,0.0,0.0,0.0,0.0,0.0,0.0,0.0,0.0,0.0,0.0,0.0,0.0,0.0,0.0,0.0,0.0,0.0,0.0,0.0,0.0,0.0,0.0,0.0,0.0,0.0,0.0,0.0,0.0,0.0,0.0,0.0,0.0,0.0,0.0,0.0,0.0,0.0,0.0,0.0,0.0,0.0,0.0,0.0,0.0,0.0,0.0,0.0,0.0,0.0,0.0,0.0,0.0,0.0,0.0,0.0,0.0,0.0,0.0,0.0,0.0,0.0,0.0,0.0,0.0,0.0,0.0,0.0,0.0,0.0,0.0,0.0,0.0,0.0,0.0,0.0,0.0,0.0,0.0,0.0,0.0,0.0,0.0,0.0,0.0,0.0,0.0,0.0,0.0,0.0,0.0,0.0,0.0,0.0,0.0,0.0,0.0,0.0,0.0,0.0,0.0,0.0,0.0,0.0,0.0,0.0,0.0,0.0,0.0,0.0,0.0,0.0,0.0,0.0,0.0,0.0,0.0,0.0,0.0,0.0,0.0,0.0,0.0,0.0,0.0,0.0,0.0,0.0,0.0,0.0,0.0,0.0,0.0,0.0,0.0,0.0,0.0,0.0,0.0,0.0,0.0,0.0,0.0,0.0,0.0,0.0,0.0,0.0,0.0,0.0,0.0,0.0,0.0,0.0,0.0,0.0,0.0,0.0,0.0,0.0,0.0,0.0,0.0,0.0,0.0,0.0,0.0,0.0,0.0,0.0,0.0,0.0,0.0,0.0,0.0,0.0,0.0,0.0,0.0,0.0,0.0,0.0,0.0,0.0,0.0,0.0,0.0,0.0,0.0,0.0,0.0,0.0,0.0,0.0,0.0,0.0,0.0,0.0,0.0,0.0,0.0,0.0,0.0,0.0,0.0,0.0,0.0,0.0,0.0,0.0,0.0,0.0,0.0,0.0,0.0,0.0,0.0,0.0,0.0,0.0,0.0,0.0,0.0,0.0,0.0,0.0,0.0,0.0,0.0,0.0,0.0,0.0,0.0,0.0,0.0,0.0,0.0,0.0,0.0,0.0,0.0,0.0,0.0,0.0,0.0,0.0,0.0,0.0,0.0,0.0,0.0,0.0,0.0,0.0,0.0,0.0,0.0,0.0,0.0,0.0,0.0,0.0,0.0,0.0,1.5901,0.0,0.0,0.0,0.0,0.0,0.0,0.0,0.0,0.0,0.0,0.0,0.0,0.0,0.0,0.0,0.0,0.0,0.0,0.0,0.0,0.0,0.0,0.0,0.0,0.0,0.0,0.0,0.0,0.0,0.0,0.0,0.0,0.0,0.0,0.0,0.0,0.0,0.0,0.0,0.0,0.0,0.0,0.0,0.0,0.0,0.0,0.0,0.0,0.0,0.0,0.0,0.0,0.0,0.0,0.0,0.0,0.0,0.0,0.0,0.0,0.0,0.0,0.0,0.0,0.0,0.0,0.0,0.0,0.0,0.0,0.0,0.0,0.0,0.0,0.0,0.0,0.0,0.0,0.0,0.0,0.0,0.0,0.0,0.0,0.0,0.0,0.0,0.0,0.0,0.0,0.0,0.0,0.0,0.0,0.0,0.0,0.0,0.0,0.0,0.0,0.0,0.0,0.0,0.0,0.0,0.0,0.0,0.0,0.0,0.0,1.8502,1.8641,1.8291,1.7498,1.6276,0.0,0.0,0.0,0.0,0.0,0.0,0.0,0.0,0.0,0.0,0.0,0.0,0.0,0.0,0.0,0.0,0.0,0.0,0.0,0.0,0.0,0.0,0.0,0.0,0.0,0.0,0.0,0.0,0.0,0.0,0.0,0.0,0.0,0.0,0.0,0.0,0.0,0.0,0.0,0.0,0.0,0.0,0.0,0.0,0.0,0.0,0.0,0.0,0.0,0.0,0.0,0.0,0.0,0.0,0.0,0.0,0.0,0.0,0.0,0.0,0.0,0.0,0.0,0.0,0.0,0.0,0.0,0.0,0.0,0.0,0.0,0.0,0.0,0.0,0.0,0.0,0.0,0.0,0.0,0.0,0.0,0.0,0.0,0.0,0.0,0.0,0.0,0.0,0.0,0.0,0.0,0.0,0.0,0.0,0.0,0.0,0.0,0.0,0.0,0.0,0.0,0.0,0.0,0.0,0.0,0.0,0.0,0.0,0.0,0.0,0.0,0.0,1.9075,1.8324,1.6977,0.0,0.0,0.0,0.0,0.0,0.0,0.0,0.0,0.0,0.0,0.0,0.0,0.0,0.0,0.0,0.0,0.0,0.0,0.0,0.0,0.0,0.0,0.0,0.0,0.0,0.0,0.0,0.0,0.0,0.0,0.0,0.0,0.0,0.0,0.0,0.0,0.0,0.0,0.0,0.0,0.0,0.0,0.0,0.0,0.0,0.0,0.0,0.0,0.0,0.0,0.0,0.0,0.0,0.0,0.0,0.0,0.0,0.0,0.0,0.0,0.0,0.0,0.0,0.0,0.0,0.0,0.0,0.0,0.0,0.0,0.0,0.0,0.0,0.0,0.0,0.0,0.0,0.0,0.0,0.0,0.0,0.0,0.0,0.0,0.0,0.0,0.0,0.0,0.0,0.0,0.0,0.0,0.0,0.0,0.0,0.0,0.0,0.0,0.0,0.0,0.0,0.0,0.0,0.0,0.0,0.0,0.0,0.0,0.0,0.0,1.9064,2.0056,2.0047,0.0,1.8514,0.0,0.0,0.0,0.0,0.0,0.0,0.0,0.0,0.0,0.0,0.0,0.0,0.0,0.0,0.0,0.0,0.0,0.0,0.0,0.0,0.0,0.0,0.0,0.0,0.0,0.0,0.0,0.0,0.0,0.0,0.0,0.0,0.0,0.0,0.0,0.0,0.0,0.0,0.0,0.0,0.0,0.0,0.0,0.0,0.0,0.0,0.0,0.0,0.0,0.0,0.0,0.0,0.0,0.0,0.0,0.0,0.0,0.0,0.0,0.0,0.0,0.0,0.0,0.0,0.0,0.0,0.0,0.0,0.0,0.0,0.0,0.0,0.0,0.0,0.0,0.0,0.0,0.0,0.0,0.0,0.0,0.0,0.0,0.0,0.0,0.0,0.0,0.0,0.0,0.0,0.0,0.0,0.0,0.0,0.0,0.0,0.0,0.0,0.0,0.0,0.0,0.0,0.0,0.0,0.0,0.0,0.0,0.0,0.0,0.0,1.9919,2.0367,1.9266,1.8668,0.0,0.0,0.0,0.0,0.0,0.0,0.0,0.0,0.0,0.0,0.0,0.0,0.0,0.0,0.0,0.0,0.0,0.0,0.0,0.0,0.0,0.0,0.0,0.0,0.0,0.0,0.0,0.0,0.0,0.0,0.0,0.0,0.0,0.0,0.0,0.0,0.0,0.0,0.0,0.0,0.0,0.0,0.0,0.0,0.0,0.0,0.0,0.0,0.0,0.0,0.0,0.0,0.0,0.0,0.0,0.0,0.0,0.0,0.0,0.0,0.0,0.0,0.0,0.0,0.0,0.0,0.0,0.0,0.0,0.0,0.0,0.0,0.0,0.0,0.0,0.0,0.0,0.0,0.0,0.0,0.0,0.0,0.0,0.0,0.0,0.0,0.0,0.0,0.0,0.0,0.0,0.0,0.0,0.0,0.0,0.0,0.0,0.0,0.0,0.0,0.0,0.0,0.0,0.0,0.0,0.0,0.0,0.0,0.0,0.0,1.992,2.0358,2.0657,1.9291,1.8421,1.829,0.0,0.0,0.0,0.0,0.0,0.0,0.0,0.0,0.0,0.0,0.0,0.0,0.0,0.0,0.0,0.0,0.0,0.0,0.0,0.0,0.0,0.0,0.0,0.0,0.0,0.0,0.0,0.0,0.0,0.0,0.0,0.0,0.0,0.0,0.0,0.0,0.0,0.0,0.0,0.0,0.0,0.0,0.0,0.0,0.0,0.0,0.0,0.0,0.0,0.0,0.0,0.0,0.0,0.0,0.0,0.0,0.0,0.0,0.0,0.0,0.0,0.0,0.0,0.0,0.0,0.0,0.0,0.0,0.0,0.0,0.0,0.0,0.0,0.0,0.0,0.0,0.0,0.0,0.0,0.0,0.0,0.0,0.0,0.0,0.0,0.0,0.0,0.0,0.0,0.0,0.0,0.0,0.0,0.0,0.0,0.0,0.0,0.0,0.0,0.0,0.0,0.0,0.0,0.0,0.0,0.0,0.0,0.0,2.0281,1.9708,1.9994,2.131,2.0894,1.9585,0.0,0.0,0.0,0.0,0.0,0.0,0.0,0.0,0.0,0.0,0.0,0.0,0.0,0.0,0.0,0.0,0.0,0.0,0.0,0.0,0.0,0.0,0.0,0.0,0.0,0.0,0.0,0.0,0.0,0.0,0.0,0.0,0.0,0.0,0.0,0.0,0.0,0.0,0.0,0.0,0.0,0.0,0.0,0.0,0.0,0.0,0.0,0.0,0.0,0.0,0.0,0.0,0.0,0.0,0.0,0.0,0.0,0.0,0.0,0.0,0.0,0.0,0.0,0.0,0.0,0.0,0.0,0.0,0.0,0.0,0.0,0.0,0.0,0.0,0.0,0.0,0.0,0.0,0.0,0.0,0.0,0.0,0.0,0.0,0.0,0.0,0.0,0.0,0.0,0.0,0.0,0.0,0.0,0.0,0.0,0.0,0.0,0.0,0.0,0.0,0.0,0.0,0.0,0.0,0.0,0.0,0.0,0.0,0.0,1.8225,1.8922,2.0202,2.1957,1.9938,1.8482,0.0,0.0,0.0,0.0,0.0,0.0,0.0,0.0,0.0,0.0,0.0,0.0,0.0,0.0,0.0,0.0,0.0,0.0,0.0,0.0,0.0,0.0,0.0,0.0,0.0,0.0,0.0,0.0,0.0,0.0,0.0,0.0,0.0,0.0,0.0,0.0,0.0,0.0,0.0,0.0,0.0,0.0,0.0,0.0,0.0,0.0,0.0,0.0,0.0,0.0,0.0,0.0,0.0,0.0,0.0,0.0,0.0,0.0,0.0,0.0,0.0,0.0,0.0,0.0,0.0,0.0,0.0,0.0,0.0,0.0,0.0,0.0,0.0,0.0,0.0,0.0,0.0,0.0,0.0,0.0,0.0,0.0,0.0,0.0,0.0,0.0,0.0,0.0,0.0,0.0,0.0,0.0,0.0,0.0,0.0,0.0,0.0,0.0,0.0,0.0,0.0,0.0,0.0,0.0,0.0,0.0,0.0,0.0,0.0,1.7722,0.0,2.0997,2.1865,1.9607,1.804,0.0,0.0,0.0,0.0,0.0,0.0,0.0,0.0,0.0,0.0,0.0,0.0,0.0,0.0,0.0,0.0,0.0,0.0,0.0,0.0,0.0,0.0,0.0,0.0,0.0,0.0,0.0,0.0,0.0,0.0,0.0,0.0,0.0,0.0,0.0,0.0,0.0,0.0,0.0,0.0,0.0,0.0,0.0,0.0,0.0,0.0,0.0,0.0,0.0,0.0,0.0,0.0,0.0,0.0,0.0,0.0,0.0,0.0,0.0,0.0,0.0,0.0,0.0,0.0,0.0,0.0,0.0,0.0,0.0,0.0,0.0,0.0,0.0,0.0,0.0,0.0,0.0,0.0,0.0,0.0,0.0,0.0,0.0,0.0,0.0,0.0,0.0,0.0,0.0,0.0,0.0,0.0,0.0,0.0,0.0,0.0,0.0,0.0,0.0,0.0,0.0,0.0,0.0,0.0,0.0,0.0,0.0,0.0,1.6943,1.9246,2.1598,2.2198,2.1072,2.0152,1.8438,0.0,0.0,0.0,0.0,0.0,0.0,0.0,0.0,0.0,0.0,0.0,0.0,0.0,0.0,0.0,0.0,0.0,0.0,0.0,0.0,0.0,0.0,0.0,0.0,0.0,0.0,0.0,0.0,0.0,0.0,0.0,0.0,0.0,0.0,0.0,0.0,0.0,0.0,0.0,0.0,0.0,0.0,0.0,0.0,0.0,0.0,0.0,0.0,0.0,0.0,0.0,0.0,0.0,0.0,0.0,0.0,0.0,0.0,0.0,0.0,0.0,0.0,0.0,0.0,0.0,0.0,0.0,0.0,0.0,0.0,0.0,0.0,0.0,0.0,0.0,0.0,0.0,0.0,0.0,0.0,0.0,0.0,0.0,0.0,0.0,0.0,0.0,0.0,0.0,0.0,0.0,0.0,0.0,0.0,0.0,0.0,0.0,0.0,0.0,0.0,0.0,0.0,0.0,0.0,0.0,0.0,0.0,0.0,0.0,1.9312,2.042,2.1215,2.1607,1.9744,1.8199,0.0,0.0,0.0,0.0,0.0,0.0,0.0,0.0,0.0,0.0,0.0,0.0,0.0,0.0,0.0,0.0,0.0,0.0,0.0,0.0,0.0,0.0,0.0,0.0,0.0,0.0,0.0,0.0,0.0,0.0,0.0,0.0,0.0,0.0,0.0,0.0,0.0,0.0,0.0,0.0,0.0,0.0,0.0,0.0,0.0,0.0,0.0,0.0,0.0,0.0,0.0,0.0,0.0,0.0,0.0,0.0,0.0,0.0,0.0,0.0,0.0,0.0,0.0,0.0,0.0,0.0,0.0,0.0,0.0,0.0,0.0,0.0,0.0,0.0,0.0,0.0,0.0,0.0,0.0,0.0,0.0,0.0,0.0,0.0,0.0,0.0,0.0,0.0,0.0,0.0,0.0,0.0,0.0,0.0,0.0,0.0,0.0,0.0,0.0,0.0,0.0,0.0,0.0,0.0,0.0,0.0,0.0,0.0,0.0,2.1584,2.2021,2.247,2.2929,2.0678,1.8943,1.78,0.0,0.0,0.0,0.0,0.0,0.0,0.0,0.0,0.0,0.0,0.0,0.0,0.0,0.0,0.0,0.0,0.0,0.0,0.0,0.0,0.0,0.0,0.0,0.0,0.0,0.0,0.0,0.0,0.0,0.0,0.0,0.0,0.0,0.0,0.0,0.0,0.0,0.0,0.0,0.0,0.0,0.0,0.0,0.0,0.0,0.0,0.0,0.0,0.0,0.0,0.0,0.0,0.0,0.0,0.0,0.0,0.0,0.0,0.0,0.0,0.0,0.0,0.0,0.0,0.0,0.0,0.0,0.0,0.0,0.0,0.0,0.0,0.0,0.0,0.0,0.0,0.0,0.0,0.0,0.0,0.0,0.0,0.0,0.0,0.0,0.0,0.0,0.0,0.0,0.0,0.0,0.0,0.0,0.0,0.0,0.0,0.0,0.0,0.0,0.0,0.0,0.0,0.0,0.0,0.0,0.0,0.0,0.0,2.5576,2.5982,2.5696,2.4698,2.2735,2.0537,0.0,0.0,0.0,0.0,0.0,0.0,0.0,0.0,0.0,0.0,0.0,0.0,0.0,0.0,0.0,0.0,0.0,0.0,0.0,0.0,0.0,0.0,0.0,0.0,0.0,0.0,0.0,0.0,0.0,0.0,0.0,0.0,0.0,0.0,0.0,0.0,0.0,0.0,0.0,0.0,0.0,0.0,0.0,0.0,0.0,0.0,0.0,0.0,0.0,0.0,0.0,0.0,0.0,0.0,0.0,0.0,0.0,0.0,0.0,0.0,0.0,0.0,0.0,0.0,0.0,0.0,0.0,0.0,0.0,0.0,0.0,0.0,0.0,0.0,0.0,0.0,0.0,0.0,0.0,0.0,0.0,0.0,0.0,0.0,0.0,0.0,0.0,0.0,0.0,0.0,0.0,0.0,0.0,0.0,0.0,0.0,0.0,0.0,0.0,0.0,0.0,0.0,0.0,0.0,0.0,0.0,0.0,0.0,0.0,2.7961,2.9205,2.8914,2.7033,2.4365,2.1958,0.0,0.0,0.0,0.0,0.0,0.0,0.0,0.0,0.0,0.0,0.0,0.0,0.0,0.0,0.0,0.0,0.0,0.0,0.0,0.0,0.0,0.0,0.0,0.0,0.0,0.0,0.0,0.0,0.0,0.0,0.0,0.0,0.0,0.0,0.0,0.0,0.0,0.0,0.0,0.0,0.0,0.0,0.0,0.0,0.0,0.0,0.0,0.0,0.0,0.0,0.0,0.0,0.0,0.0,0.0,0.0,0.0,0.0,0.0,0.0,0.0,0.0,0.0,0.0,0.0,0.0,0.0,0.0,0.0,0.0,0.0,0.0,0.0,0.0,0.0,0.0,0.0,0.0,0.0,0.0,0.0,0.0,0.0,0.0,0.0,0.0,0.0,0.0,0.0,0.0,0.0,0.0,0.0,0.0,0.0,0.0,0.0,0.0,0.0,0.0,0.0,0.0,0.0,0.0,0.0,0.0,0.0,0.0,2.7286,2.9495,3.1594,3.2114,3.0826,2.7189,2.3941,0.0,0.0,0.0,0.0,0.0,0.0,0.0,0.0,0.0,0.0,0.0,0.0,0.0,0.0,0.0,0.0,0.0,0.0,0.0,0.0,0.0,0.0,0.0,0.0,0.0,0.0,0.0,0.0,0.0,0.0,0.0,0.0,0.0,0.0,0.0,0.0,0.0,0.0,0.0,0.0,0.0,0.0,0.0,0.0,0.0,0.0,0.0,0.0,0.0,0.0,0.0,0.0,0.0,0.0,0.0,0.0,0.0,0.0,0.0,0.0,0.0,0.0,0.0,0.0,0.0,0.0,0.0,0.0,0.0,0.0,0.0,0.0,0.0,0.0,0.0,0.0,0.0,0.0,0.0,0.0,0.0,0.0,0.0,0.0,0.0,0.0,0.0,0.0,0.0,0.0,0.0,0.0,0.0,0.0,0.0,0.0,0.0,0.0,0.0,0.0,0.0,0.0,0.0,0.0,0.0,0.0,0.0,0.0,2.9477,3.0503,3.3379,3.4889,3.4721,3.0264,2.6042,0.0,0.0,0.0,0.0,0.0,0.0,0.0,0.0,0.0,0.0,0.0,0.0,0.0,0.0,0.0,0.0,0.0,0.0,0.0,0.0,0.0,0.0,0.0,0.0,0.0,0.0,0.0,0.0,0.0,0.0,0.0,0.0,0.0,0.0,0.0,0.0,0.0,0.0,0.0,0.0,0.0,0.0,0.0,0.0,0.0,0.0,0.0,0.0,0.0,0.0,0.0,0.0,0.0,0.0,0.0,0.0,0.0,0.0,0.0,0.0,0.0,0.0,0.0,0.0,0.0,0.0,0.0,0.0,0.0,0.0,0.0,0.0,0.0,0.0,0.0,0.0,0.0,0.0,0.0,0.0,0.0,0.0,0.0,0.0,0.0,0.0,0.0,0.0,0.0,0.0,0.0,0.0,0.0,0.0,0.0,0.0,0.0,0.0,0.0,0.0,0.0,0.0,0.0,0.0,0.0,0.0,0.0,0.0,3.0136,3.243,3.4556,3.5509,3.5192,3.0393,2.686,0.0,0.0,0.0,0.0,0.0,0.0,0.0,0.0,0.0,0.0,0.0,0.0,0.0,0.0,0.0,0.0,0.0,0.0,0.0,0.0,0.0,0.0,0.0,0.0,0.0,0.0,0.0,0.0,0.0,0.0,0.0,0.0,0.0,0.0,0.0,0.0,0.0,0.0,0.0,0.0,0.0,0.0,0.0,0.0,0.0,0.0,0.0,0.0,1.4409,0.0,0.0,0.0,0.0,0.0,0.0,0.0,0.0,0.0,0.0,0.0,0.0,0.0,0.0,0.0,0.0,0.0,0.0,0.0,0.0,0.0,0.0,0.0,0.0,0.0,0.0,0.0,0.0,0.0,0.0,0.0,0.0,0.0,0.0,0.0,0.0,0.0,0.0,0.0,0.0,0.0,0.0,0.0,0.0,0.0,0.0,0.0,0.0,0.0,0.0,0.0,0.0,0.0,0.0,0.0,0.0,0.0,0.0,0.0,3.138,3.3938,3.564,3.6395,3.605,3.1762,2.8289,0.0,0.0,0.0,0.0,0.0,0.0,0.0,0.0,0.0,0.0,0.0,0.0,0.0,0.0,0.0,0.0,0.0,0.0,0.0,0.0,0.0,0.0,0.0,0.0,0.0,0.0,0.0,0.0,0.0,0.0,0.0,0.0,0.0,0.0,0.0,0.0,0.0,0.0,0.0,0.0,0.0,0.0,0.0,0.0,0.0,0.0,0.0,0.0,0.0,0.0,0.0,0.0,0.0,0.0,0.0,0.0,0.0,0.0,0.0,0.0,0.0,0.0,0.0,0.0,0.0,0.0,0.0,0.0,0.0,0.0,0.0,0.0,0.0,0.0,0.0,0.0,0.0,0.0,0.0,0.0,0.0,0.0,0.0,0.0,0.0,0.0,0.0,0.0,0.0,0.0,0.0,0.0,0.0,0.0,0.0,0.0,0.0,0.0,0.0,0.0,0.0,0.0,0.0,0.0,0.0,0.0,0.0,2.9426,3.2494,3.5064,3.6486,3.7133,3.69,3.3201,2.9719,2.6625,0.0,0.0,0.0,0.0,0.0,0.0,0.0,0.0,0.0,0.0,0.0,0.0,0.0,0.0,0.0,0.0,0.0,0.0,0.0,0.0,0.0,0.0,0.0,0.0,0.0,0.0,0.0,0.0,0.0,0.0,0.0,0.0,0.0,0.0,0.0,0.0,0.0,0.0,1.6338,1.6869,0.0,0.0,0.0,0.0,0.0,0.0,0.0,0.0,1.4268,0.0,0.0,0.0,0.0,0.0,0.0,0.0,0.0,0.0,0.0,0.0,0.0,0.0,0.0,0.0,0.0,0.0,0.0,0.0,0.0,0.0,0.0,0.0,0.0,0.0,0.0,0.0,0.0,0.0,0.0,0.0,0.0,0.0,0.0,0.0,0.0,0.0,0.0,0.0,0.0,0.0,0.0,0.0,0.0,0.0,0.0,0.0,0.0,0.0,0.0,0.0,0.0,0.0,0.0,0.0,0.0,2.8326,2.9726,3.2137,3.5652,3.6698,3.6783,3.5834,3.2832,3.0171,2.7926,0.0,0.0,0.0,0.0,0.0,0.0,0.0,0.0,0.0,0.0,0.0,0.0,0.0,0.0,0.0,0.0,0.0,0.0,0.0,0.0,0.0,0.0,0.0,0.0,0.0,0.0,0.0,0.0,0.0,0.0,0.0,0.0,0.0,0.0,0.0,0.0,0.0,0.0,0.0,1.7398,1.7218,0.0,0.0,0.0,0.0,0.0,0.0,0.0,0.0,1.4017,0.0,0.0,0.0,0.0,0.0,0.0,0.0,0.0,0.0,0.0,0.0,0.0,0.0,0.0,0.0,0.0,0.0,0.0,0.0,0.0,0.0,0.0,0.0,0.0,0.0,0.0,0.0,0.0,0.0,0.0,0.0,0.0,0.0,0.0,0.0,0.0,0.0,0.0,0.0,0.0,0.0,0.0,0.0,0.0,0.0,0.0,0.0,0.0,0.0,0.0,0.0,0.0,0.0,0.0,0.0,2.8792,3.0784,3.3402,3.6782,3.6845,3.6532,3.5953,3.2509,2.964,0.0,0.0,0.0,0.0,0.0,0.0,0.0,0.0,0.0,0.0,0.0,0.0,0.0,0.0,0.0,0.0,0.0,0.0,0.0,0.0,0.0,0.0,0.0,0.0,0.0,0.0,0.0,0.0,0.0,0.0,0.0,0.0,0.0,0.0,0.0,0.0,0.0,0.0,0.0,0.0,1.8979,1.9064,1.9873,0.0,0.0,0.0,0.0,0.0,0.0,1.6045,1.5205,0.0,0.0,0.0,0.0,0.0,0.0,0.0,0.0,0.0,0.0,0.0,0.0,0.0,0.0,0.0,0.0,0.0,0.0,0.0,0.0,0.0,0.0,0.0,0.0,0.0,0.0,0.0,0.0,0.0,0.0,0.0,0.0,0.0,0.0,0.0,0.0,0.0,0.0,0.0,0.0,0.0,0.0,0.0,0.0,0.0,0.0,0.0,0.0,0.0,0.0,0.0,0.0,0.0,0.0,0.0,2.8933,3.1642,3.4547,3.7576,3.6981,3.6457,3.6159,3.2105,2.8867,0.0,0.0,0.0,0.0,0.0,0.0,0.0,0.0,0.0,0.0,0.0,0.0,0.0,0.0,0.0,0.0,0.0,0.0,0.0,0.0,0.0,0.0,0.0,0.0,0.0,0.0,0.0,0.0,0.0,0.0,0.0,0.0,0.0,0.0,0.0,0.0,0.0,0.0,0.0,0.0,0.0,2.1184,2.0857,1.9606,0.0,0.0,0.0,0.0,1.7226,1.707,0.0,0.0,0.0,0.0,0.0,0.0,0.0,0.0,0.0,0.0,0.0,0.0,0.0,0.0,0.0,0.0,0.0,0.0,0.0,0.0,0.0,0.0,0.0,0.0,0.0,0.0,0.0,0.0,0.0,0.0,0.0,0.0,0.0,0.0,0.0,0.0,0.0,0.0,0.0,0.0,0.0,0.0,0.0,0.0,0.0,0.0,0.0,0.0,0.0,0.0,0.0,0.0,0.0,0.0,0.0,0.0,2.8908,3.1419,3.4176,3.71,3.7181,3.6664,3.5677,3.1416,2.8358,0.0,0.0,0.0,0.0,0.0,0.0,0.0,0.0,0.0,0.0,0.0,0.0,0.0,0.0,0.0,0.0,0.0,0.0,0.0,0.0,0.0,0.0,0.0,0.0,0.0,0.0,0.0,0.0,0.0,0.0,0.0,0.0,0.0,0.0,0.0,0.0,0.0,0.0,0.0,0.0,0.0,2.2409,2.1659,2.0329,1.9087,0.0,0.0,1.8958,1.9359,1.8827,0.0,0.0,0.0,0.0,0.0,0.0,0.0,0.0,0.0,0.0,0.0,0.0,0.0,0.0,0.0,0.0,0.0,0.0,0.0,0.0,0.0,0.0,0.0,0.0,0.0,0.0,0.0,0.0,0.0,0.0,0.0,0.0,0.0,0.0,0.0,0.0,0.0,0.0,0.0,0.0,0.0,0.0,0.0,0.0,0.0,0.0,0.0,0.0,0.0,0.0,0.0,0.0,0.0,0.0,0.0,2.6345,2.9006,3.2166,3.4906,3.7085,3.6596,3.6075,3.5605,3.0866,2.772,0.0,0.0,0.0,0.0,0.0,0.0,0.0,0.0,0.0,0.0,0.0,0.0,0.0,0.0,0.0,0.0,0.0,0.0,0.0,0.0,0.0,0.0,0.0,0.0,0.0,0.0,0.0,0.0,0.0,0.0,0.0,0.0,0.0,0.0,0.0,0.0,0.0,0.0,0.0,0.0,0.0,0.0,2.2824,2.2034,0.0,0.0,0.0,1.9656,1.8735,0.0,0.0,0.0,0.0,0.0,0.0,0.0,0.0,0.0,0.0,0.0,0.0,0.0,0.0,0.0,0.0,0.0,0.0,0.0,0.0,0.0,0.0,0.0,0.0,0.0,0.0,0.0,0.0,0.0,0.0,0.0,0.0,0.0,0.0,0.0,0.0,0.0,0.0,0.0,0.0,0.0,0.0,0.0,0.0,0.0,0.0,0.0,0.0,0.0,0.0,0.0,0.0,0.0,0.0,0.0,0.0,0.0,2.915,3.2939,3.5589,3.6929,3.6224,3.5739,3.5532,3.1069,0.0,0.0,0.0,0.0,0.0,0.0,0.0,0.0,0.0,0.0,0.0,0.0,0.0,0.0,0.0,0.0,0.0,0.0,0.0,0.0,0.0,0.0,0.0,0.0,0.0,0.0,0.0,1.4318,0.0,0.0,0.0,0.0,0.0,0.0,0.0,0.0,0.0,0.0,0.0,0.0,0.0,0.0,2.4696,2.3589,2.3458,2.3339,0.0,0.0,2.0506,1.8802,2.0077,1.9968,0.0,0.0,0.0,0.0,0.0,0.0,0.0,0.0,0.0,0.0,0.0,0.0,0.0,0.0,0.0,0.0,0.0,0.0,0.0,0.0,0.0,0.0,0.0,0.0,0.0,0.0,0.0,0.0,0.0,0.0,0.0,0.0,0.0,0.0,0.0,0.0,0.0,0.0,0.0,0.0,0.0,0.0,0.0,0.0,0.0,0.0,0.0,0.0,0.0,0.0,0.0,0.0,0.0,0.0,2.6804,2.9501,3.3425,3.5767,3.6429,3.6402,3.6114,3.5571,3.2594,2.946,0.0,0.0,0.0,0.0,0.0,0.0,0.0,0.0,0.0,0.0,0.0,0.0,0.0,0.0,0.0,0.0,0.0,0.0,0.0,0.0,0.0,0.0,0.0,0.0,0.0,0.0,0.0,0.0,0.0,0.0,0.0,0.0,0.0,0.0,0.0,0.0,0.0,0.0,0.0,0.0,0.0,2.5688,2.351,2.412,2.4381,0.0,2.2577,2.1857,2.0926,2.1507,2.0866,1.717,0.0,0.0,0.0,0.0,0.0,0.0,0.0,0.0,0.0,0.0,0.0,0.0,0.0,0.0,0.0,0.0,0.0,0.0,0.0,0.0,0.0,0.0,0.0,0.0,0.0,0.0,0.0,0.0,0.0,0.0,0.0,0.0,0.0,0.0,0.0,0.0,0.0,0.0,0.0,0.0,0.0,0.0,0.0,0.0,0.0,0.0,0.0,0.0,0.0,0.0,0.0,0.0,0.0,2.7753,2.9511,3.3614,3.5956,3.6364,3.6075,3.5816,3.56,3.2763,2.9933,0.0,0.0,0.0,0.0,0.0,0.0,0.0,0.0,0.0,0.0,0.0,0.0,0.0,0.0,0.0,0.0,0.0,0.0,0.0,0.0,0.0,0.0,0.0,0.0,0.0,0.0,0.0,0.0,1.8132,1.8288,1.7797,0.0,0.0,0.0,0.0,0.0,0.0,0.0,0.0,0.0,0.0,2.6381,2.5812,2.5824,0.0,0.0,2.403,2.2622,2.0634,2.0923,2.0074,1.6167,1.5018,0.0,0.0,0.0,0.0,0.0,0.0,0.0,0.0,0.0,0.0,0.0,0.0,0.0,0.0,0.0,0.0,0.0,0.0,0.0,0.0,0.0,0.0,0.0,0.0,0.0,0.0,0.0,0.0,0.0,0.0,0.0,0.0,0.0,0.0,0.0,0.0,0.0,0.0,0.0,0.0,0.0,0.0,0.0,0.0,0.0,0.0,0.0,0.0,0.0,0.0,0.0,0.0,2.8014,2.9604,3.3626,3.5851,3.6154,3.5794,3.5628,3.5549,3.3389,3.1021,0.0,0.0,0.0,0.0,0.0,0.0,0.0,0.0,0.0,0.0,0.0,0.0,0.0,0.0,0.0,0.0,0.0,0.0,0.0,0.0,0.0,0.0,0.0,0.0,0.0,0.0,0.0,0.0,1.8651,1.8645,1.8438,0.0,0.0,0.0,0.0,0.0,0.0,0.0,0.0,0.0,0.0,2.7318,2.6813,2.6469,2.6015,2.5306,2.4091,2.2548,2.053,2.0557,1.9652,1.6255,0.0,0.0,0.0,0.0,0.0,0.0,0.0,0.0,0.0,0.0,0.0,0.0,0.0,0.0,0.0,0.0,0.0,0.0,0.0,0.0,0.0,0.0,0.0,0.0,0.0,0.0,0.0,1.9315,0.0,0.0,1.9334,0.0,0.0,0.0,0.0,0.0,0.0,0.0,0.0,0.0,0.0,0.0,0.0,0.0,0.0,0.0,0.0,0.0,0.0,0.0,0.0,0.0,0.0,2.7228,2.9889,3.3436,3.5373,3.5622,3.5611,3.5628,3.5583,3.4827,3.3034,3.0081,0.0,0.0,0.0,0.0,0.0,0.0,0.0,0.0,0.0,0.0,0.0,0.0,0.0,0.0,0.0,0.0,0.0,0.0,0.0,0.0,0.0,0.0,0.0,0.0,0.0,0.0,1.7941,1.8124,1.8348,0.0,0.0,0.0,0.0,0.0,0.0,0.0,0.0,0.0,2.438,2.744,2.8526,2.5869,2.5619,2.5188,2.3539,2.2361,2.1458,2.1087,2.0783,1.9958,0.0,0.0,0.0,0.0,0.0,0.0,0.0,0.0,0.0,0.0,0.0,0.0,0.0,0.0,0.0,0.0,0.0,0.0,0.0,0.0,0.0,0.0,0.0,0.0,0.0,0.0,0.0,2.441,2.4111,0.0,0.0,0.0,0.0,0.0,0.0,0.0,0.0,0.0,0.0,0.0,2.9669,3.043,0.0,0.0,0.0,0.0,0.0,0.0,0.0,0.0,0.0,0.0,0.0,0.0,2.8579,3.0023,3.394,3.5871,3.5622,3.5628,3.5628,3.5583,3.4895,3.2875,2.9448,0.0,0.0,0.0,0.0,0.0,0.0,0.0,0.0,0.0,0.0,0.0,0.0,0.0,0.0,0.0,0.0,0.0,0.0,0.0,0.0,0.0,0.0,0.0,0.0,0.0,1.8798,0.0,0.0,0.0,0.0,0.0,0.0,0.0,0.0,0.0,0.0,2.364,2.5121,2.6435,2.7183,2.7195,2.6077,2.5992,2.5853,0.0,0.0,0.0,0.0,0.0,0.0,0.0,0.0,0.0,0.0,0.0,0.0,0.0,0.0,1.8981,1.6688,1.6507,1.6751,1.6901,0.0,0.0,0.0,0.0,0.0,0.0,0.0,0.0,0.0,0.0,0.0,0.0,0.0,0.0,2.7952,2.7433,2.7187,0.0,0.0,0.0,0.0,0.0,0.0,0.0,0.0,3.1164,3.2798,3.3525,3.4542,3.4319,3.2945,3.2132,2.929,0.0,0.0,0.0,0.0,0.0,0.0,0.0,0.0,2.9305,3.0619,3.4207,3.6083,3.6017,3.5746,3.5628,3.5583,3.4878,3.3247,3.0591,2.7884,2.5744,0.0,0.0,0.0,0.0,0.0,0.0,0.0,0.0,0.0,0.0,0.0,0.0,0.0,0.0,0.0,0.0,0.0,0.0,0.0,0.0,0.0,0.0,0.0,1.9502,0.0,0.0,0.0,0.0,0.0,0.0,0.0,0.0,0.0,2.4312,2.5869,2.7318,2.8169,2.8515,2.8002,2.6203,0.0,0.0,0.0,0.0,0.0,0.0,0.0,1.9997,1.9241,1.8338,1.7871,1.8401,1.9678,2.0498,2.0185,0.0,0.0,1.9001,1.8329,1.8221,1.8394,1.8374,1.8026,1.6996,1.7364,1.7535,0.0,0.0,0.0,0.0,2.6584,0.0,0.0,0.0,3.1304,3.0778,0.0,3.0173,0.0,0.0,0.0,0.0,2.5949,2.961,0.0,0.0,3.79,3.9468,3.6907,3.7771,3.7265,3.5561,3.5511,3.426,3.1777,2.8174,0.0,0.0,0.0,0.0,0.0,0.0,2.9437,3.176,3.4393,3.6062,3.6767,3.605,3.5645,3.56,3.4895,3.415,3.3379,3.1309,2.9456,2.7891,2.446,0.0,0.0,0.0,0.0,0.0,0.0,0.0,0.0,0.0,0.0,0.0,0.0,0.0,0.0,0.0,0.0,0.0,0.0,0.0,0.0,2.0042,0.0,0.0,0.0,0.0,0.0,0.0,0.0,0.0,0.0,2.6927,2.6066,2.7964,2.9578,2.9578,0.0,0.0,0.0,0.0,2.6116,2.2393,2.1758,2.1821,2.1882,2.1869,2.1999,2.239,0.0,0.0,2.2052,2.1953,2.1769,2.0918,2.2199,2.301,2.2149,2.0206,1.8878,1.9129,1.802,1.694,1.7181,1.7676,1.7906,3.338,0.0,0.0,0.0,0.0,3.1328,3.3168,3.6455,3.6104,3.5726,3.5289,3.5352,0.0,0.0,0.0,0.0,0.0,0.0,3.4077,3.584,3.8285,3.9604,4.0049,4.0943,4.0659,3.929,3.8788,3.7981,3.6837,3.4759,3.0869,2.5401,0.0,0.0,0.0,0.0,3.1299,3.3301,3.5902,3.7364,3.7555,3.6851,3.618,3.5628,3.4895,3.4415,3.4178,3.3068,3.1529,2.9531,2.7926,0.0,0.0,0.0,0.0,0.0,0.0,0.0,0.0,0.0,0.0,0.0,0.0,0.0,0.0,0.0,0.0,0.0,0.0,0.0,2.0794,2.0862,2.1069,0.0,0.0,0.0,0.0,0.0,0.0,0.0,0.0,0.0,3.0417,2.9535,2.9069,0.0,0.0,2.7576,2.555,2.6305,2.6866,2.6299,2.6214,0.0,2.7311,2.6008,2.505,2.5446,2.4931,2.4096,2.3016,2.3567,2.4095,2.3844,2.4434,2.4881,2.4565,2.2807,2.1068,2.0255,1.9822,1.9383,1.8698,1.8803,1.8825,3.8562,3.5753,3.4167,3.4668,3.6429,3.5736,3.7441,4.0725,4.0023,3.9347,3.8788,3.9224,3.7314,3.3658,3.2755,0.0,0.0,0.0,3.7055,3.9449,4.0561,4.1554,4.2424,4.3225,4.2828,4.1429,4.092,4.0275,3.9394,3.7658,3.4472,2.9972,0.0,2.7989,2.7989,3.0951,3.3345,3.5038,3.6927,3.8041,3.8328,3.7325,3.6564,3.6096,3.5334,3.4928,3.4928,3.4235,3.321,3.1874,3.0303,2.7935,0.0,0.0,0.0,0.0,0.0,0.0,0.0,0.0,0.0,0.0,0.0,1.8618,1.5842,0.0,0.0,0.0,2.0839,2.209,2.2868,2.272,0.0,0.0,0.0,0.0,0.0,0.0,0.0,2.8526,3.0434,3.2093,3.311,3.1689,3.0896,3.1823,3.0881,2.9627,2.825,0.0,2.9118,2.8795,2.8375,2.8348,2.8994,2.8082,2.7206,2.7113,2.654,2.5611,2.444,2.4867,2.5312,2.5361,2.5532,2.5538,2.502,2.3452,2.2028,2.108,2.0284,1.952,1.8736,1.8905,1.8949,4.2486,4.214,3.843,3.8233,4.0316,4.05,4.1645,4.3405,4.2865,4.1796,4.0578,4.1902,4.0171,3.6217,3.521,0.0,3.8208,3.8927,4.0469,4.2635,4.4113,4.451,4.4022,4.4627,4.4006,4.2297,4.2171,4.1503,4.0227,3.8183,3.6705,3.5836,3.4461,3.3271,3.2446,3.3738,3.5261,3.6778,3.7528,3.8249,3.8966,3.7664,3.6902,3.6784,3.6079,3.565,3.5583,3.4945,3.4556,3.4415,3.185,2.9632,2.7976,0.0,0.0,0.0,0.0,0.0,0.0,0.0,0.0,0.0,0.0,0.0,0.0,0.0,0.0,2.341,2.4217,0.0,2.5973,2.5542,0.0,0.0,0.0,2.7336,2.9922,3.094,3.1702,3.2299,0.0,0.0,3.4637,3.4188,3.4307,3.5639,3.5549,3.4618,3.2626,3.2469,3.2136,3.0104,2.9103,2.8549,2.8969,2.9064,2.8913,2.7983,2.7731,2.7235,2.5939,2.5708,2.5747,2.5767,2.5771,2.5507,2.4198,2.3271,2.2228,2.1883,1.982,1.8096,1.8123,1.8366,1.8554,4.4056,4.3972,4.3013,4.2558,4.2422,4.2029,4.2381,4.3231,4.3121,4.283,4.2567,4.3801,4.3995,4.3385,4.3134,4.3332,4.391,4.4085,4.4488,4.5057,4.5443,4.5303,4.473,4.4464,4.3831,4.297,4.2462,4.2072,4.1741,4.0679,3.9478,3.8193,3.728,3.5301,3.2479,3.3755,3.5244,3.6795,3.7516,3.8261,3.8966,3.8662,3.7934,3.6846,3.6615,3.6214,3.5616,3.5414,3.5081,3.4516,3.3288,3.1688,2.9632,2.6387,0.0,0.0,0.0,0.0,0.0,0.0,0.0,0.0,0.0,2.2692,1.8414,0.0,2.4611,0.0,2.561,2.7786,2.9663,2.9679,0.0,0.0,3.1138,3.1357,3.2527,3.3291,3.3788,3.3939,3.5016,3.6029,3.6641,3.6567,3.6954,3.821,3.5847,3.3444,3.2039,3.2623,3.2671,3.1416,3.1499,3.1909,3.18,3.1988,3.1317,2.9294,2.8981,2.8238,2.6076,2.6001,2.623,2.625,2.6479,2.6519,2.6231,2.5206,2.39,2.2622,2.0269,1.8381,1.8397,1.8457,1.8557,4.4584,4.4584,4.4584,4.4296,4.3802,4.3464,4.3601,4.4046,4.3806,4.3509,4.3266,4.4196,4.4931,4.5492,4.5792,4.5902,4.5902,4.5902,4.5902,4.5893,4.598,4.5853,4.5511,4.4974,4.4371,4.3719,4.3093,4.2625,4.23,4.188,4.1284,4.046,4.007,3.8497,3.5859,3.5256,3.5436,3.6259,3.7347,3.8413,3.9423,3.9157,3.8137,3.6332,3.5926,3.5109,3.37,3.3649,3.3288,3.256,3.185,3.0734,2.9135,2.6564,2.4432,0.0,0.0,0.0,0.0,0.0,0.0,0.0,0.0,0.0,0.0,0.0,2.7402,2.6928,2.9233,3.1278,3.2501,3.2639,3.3037,3.4028,3.3953,3.4326,3.5525,3.6014,3.6344,3.6656,3.733,3.7928,3.824,3.8285,3.8539,3.9302,3.7507,3.5872,3.5168,3.489,3.4341,3.3688,3.329,3.3102,3.3102,3.3102,3.2546,3.1014,3.0594,2.9822,2.7609,2.7384,2.7392,2.6831,2.6855,2.7008,2.6967,2.6021,2.4884,2.3878,2.1744,1.9787,1.8844,1.8784,1.8966,4.4835,4.475,4.4753,4.4699,4.4584,4.4584,4.48,4.5075,4.4574,4.4026,4.3519,4.4126,4.4741,4.5338,4.5935,4.6214,4.6195,4.6214,4.6195,4.6204,4.6303,4.6311,4.6194,4.5728,4.5139,4.4427,4.3833,4.322,4.2604,4.2489,4.235,4.2151,4.2066,4.1288,3.9775,3.7217,3.5864,3.5769,3.7251,3.8633,3.9762,3.9005,3.7516,3.5425,3.4692,3.3366,3.1336,3.1302,3.1038,3.0403,2.9762,2.9153,2.85,2.6429,2.494,0.0,2.2943,0.0,0.0,0.0,0.0,0.0,0.0,0.0,0.0,3.0371,3.1224,3.186,3.3849,3.5118,3.5263,3.5357,3.5873,3.6925,3.6615,3.6955,3.8547,3.8799,3.9005,3.9586,3.9645,3.966,3.966,3.9679,3.9664,3.9601,3.9559,3.9325,3.9222,3.7448,3.5975,3.6039,3.4374,3.3124,3.3115,3.3178,3.2953,3.2276,3.2068,3.1426,2.9246,2.8974,2.8659,2.7447,2.7178,2.72,2.7168,2.6432,2.5774,2.5419,2.3455,2.1357,1.9792,1.9317,1.9388,4.6041,4.5517,4.55,4.5159,4.4584,4.4584,4.4635,4.4698,4.4596,4.4748,4.5104,4.5709,4.6321,4.6965,4.7579,4.7847,4.7847,4.7847,4.7847,4.7828,4.7376,4.6873,4.6335,4.5775,4.5159,4.4582,4.442,4.4313,4.4158,4.3504,4.2577,4.1411,4.0802,3.9787,3.8367,0.0,0.0,0.0,3.8041,3.8662,3.8278,3.6958,3.5475,3.3886,3.3666,0.0,3.1336,3.1775,3.2039,3.1887,3.1752,0.0,0.0,0.0,0.0,0.0,0.0,0.0,0.0,0.0,0.0,0.0,3.2053,3.1725,3.1735,3.4026,3.5594,3.5757,3.7173,3.857,3.9786,3.9838,4.0081,4.0737,4.0629,4.0644,4.086,4.0819,4.0894,4.098,4.101,4.1014,4.0969,4.1029,4.0804,4.0337,4.0685,4.0756,4.0277,3.7949,3.5981,3.5068,3.3946,3.3171,3.3102,3.3492,3.3394,3.2488,3.2481,3.1796,2.9777,2.9414,2.914,2.7893,2.7848,2.8018,2.8048,2.7885,2.7282,2.6216,2.4564,2.292,2.1399,2.0157,1.9395,4.6583,4.6244,4.6244,4.6039,0.0,4.5684,4.5684,4.5633,4.4919,4.4789,4.5089,4.5699,4.6149,4.6495,4.7099,4.7349,4.7356,4.7367,4.7338,4.7335,4.6751,4.6281,4.5957,4.5333,4.4876,4.4598,4.4584,4.4584,4.4581,4.4181,4.3606,4.2875,4.2506,4.1931,4.1221,4.1187,4.0286,3.8437,3.9153,3.9542,3.9495,3.8773,3.7319,3.5193,3.5092,0.0,0.0,0.0,0.0,0.0,0.0,0.0,0.0,0.0,0.0,3.1698,3.1376,3.1495,3.2205,3.2966,3.4364,3.6535,3.7719,3.7555,3.5752,3.8002,3.9493,3.9489,4.0139,4.0783,4.1352,4.139,4.1429,4.1634,4.1592,4.1501,4.1423,4.1403,4.1403,4.1403,4.1403,4.1403,4.1403,4.1403,4.1283,4.0984,4.1164,4.1298,4.077,3.8757,3.6634,3.5002,3.4291,3.3903,3.3916,3.4095,3.4254,3.3863,3.4009,3.3492,3.1973,3.1293,3.0548,2.9264,2.8665,2.8318,2.8301,2.8301,2.8082,2.7179,2.5362,2.3705,2.2725,2.0959,1.9424,4.7107,4.6989,4.7005,4.6936,4.6786,4.6786,4.6786,4.6716,4.5497,0.0,0.0,4.5627,4.5897,4.5936,4.6511,4.6802,4.6802,4.6802,4.6743,4.6583,4.5974,4.5619,4.5472,4.4879,4.4584,4.4584,4.4584,4.4584,4.4584,4.4584,4.4584,4.4584,4.4584,4.4584,4.4584,4.4584,4.3379,4.101,4.0502,4.0523,4.0971,4.0751,3.9411,3.6846,3.6665,3.565,3.3694,3.3609,3.3322,3.2733,3.2953,3.3156,3.3275,3.341,3.3806,3.4512,3.4698,3.5295,3.6507,3.733,3.8594,4.057,4.2489,4.2523,3.9952,4.1559,4.2679,4.2576,4.2552,4.2453,4.2139,4.1949,4.1853,4.1784,4.1682,4.1613,4.1733,4.1733,4.1822,4.1728,4.1807,4.1743,4.1807,4.1803,4.1688,4.1613,4.1733,4.1618,4.1212,3.9461,3.7165,3.5165,3.46,3.4635,3.4693,3.4785,3.5007,3.5272,3.5487,3.5375,3.4473,3.3229,3.1851,3.0369,2.9197,2.8441,2.8301,2.8301,2.8301,2.8291,2.6127,2.4092,2.3627,2.1686,1.9844,4.8325,4.7752,4.7752,4.7394,4.6786,4.6786,4.6786,4.6783,4.658,4.6496,4.6523,4.7117,4.7397,4.7425,4.8085,4.8387,4.8369,4.8369,4.8033,4.7402,4.6746,4.6104,4.5472,4.4879,4.4584,4.4584,4.4584,4.4584,4.4584,4.4584,4.4584,4.4584,4.4584,4.4584,4.4584,4.4584,4.4395,4.3938,4.2033,4.0798,4.0261,3.9026,3.7889,3.6851,3.6197,3.5351,3.4398,3.4415,3.4297,3.4229,3.5458,3.6445,3.7082,3.7669,3.8391,3.9119,3.9749,4.0206,4.0379,4.1115,4.1931,4.2865,4.3859,4.3958,4.2932,4.369,4.4193,4.4012,4.3908,4.3924,4.3669,4.2935,4.2708,4.3174,4.2675,4.2436,4.2876,4.2946,4.2951,4.2951,4.304,4.2995,4.2921,4.2951,4.2746,4.2466,4.2566,4.2654,4.1471,3.9547,3.7248,3.5277,3.4704,3.4701,3.4846,3.5118,3.5418,3.5481,3.5943,3.584,3.4751,3.3415,3.2079,3.0644,2.9408,2.8531,2.8391,2.8301,2.8301,2.8211,2.6771,2.5325,2.4072,2.2294,2.078,4.8815,4.8512,4.8496,4.8293,4.8003,4.7986,4.8003,4.8003,4.7986,4.753,4.6832,4.7098,4.7224,4.7236,4.7541,4.7675,4.7675,4.7675,4.7502,4.7147,4.6831,4.6537,4.6205,4.5911,4.5599,4.5213,4.521,4.499,4.4649,4.4584,4.4584,4.4584,4.4584,4.4584,4.4584,4.4584,4.4584,4.4567,4.3569,4.2675,4.1918,4.1225,4.0514,3.9795,3.9394,3.9073,3.8746,3.873,3.873,3.8734,3.9406,3.9948,4.0257,4.0595,4.0946,4.1267,4.161,4.1796,4.1796,4.2892,4.3873,4.459,4.5348,4.565,4.528,4.4742,4.4364,4.4188,4.3762,4.334,4.3162,4.2771,4.2784,4.343,4.3119,4.3015,4.323,4.3305,4.3305,4.3305,4.3305,4.3305,4.3305,4.3305,4.3235,4.2955,4.3175,4.286,4.1767,4.0154,3.8442,3.686,3.6042,3.5665,3.5638,3.5801,3.5965,3.5981,3.6194,3.6119,3.5475,3.4325,3.3279,3.2529,3.0861,2.9552,2.9363,2.8756,2.84,2.8157,2.7105,2.5626,2.4072,2.204,2.0285,4.9018,4.9018,4.9018,4.9018,4.9018,4.9018,4.9018,4.9018,4.9001,4.8359,4.7378,4.7293,4.7308,4.7293,4.7276,4.7308,4.7276,4.7308,4.7223,4.7056,4.7039,4.6955,4.6802,4.6786,4.6481,4.6007,4.594,4.5652,4.5142,4.5091,4.5021,4.4838,4.4685,4.4584,4.4584,4.4584,4.4584,4.4584,4.4584,4.4296,4.3707,4.366,4.3386,4.2875,4.2621,4.2553,4.254,4.2401,4.2303,4.2303,4.2452,4.2557,4.257,4.2723,4.2824,4.2807,4.2824,4.2909,4.3115,4.433,4.5345,4.5906,4.6481,4.6868,4.6881,4.5467,4.4448,4.4253,4.3521,4.2895,4.2741,4.264,4.2791,4.323,4.3305,4.3275,4.329,4.3305,4.3305,4.3305,4.3305,4.3305,4.3305,4.3305,4.329,4.3275,4.3305,4.284,4.1747,4.0618,3.947,3.8302,3.7127,3.6413,3.6417,3.638,3.638,3.6417,3.6405,3.6358,3.6085,3.5235,3.4447,3.3957,3.2353,3.0787,3.0298,2.9523,2.8764,2.8388,2.7447,2.61,2.4128,2.1906,1.9895,4.9018,4.9018,4.9018,4.9018,4.9018,4.9018,4.9018,4.9018,4.9018,4.8935,4.8714,4.8783,4.8765,4.8798,4.8748,4.8731,4.8731,4.8798,4.8411,4.7853,4.7802,4.7447,4.6919,4.6836,4.6752,4.6716,4.6716,4.6631,4.6479,4.6498,4.6227,4.5602,4.4939,4.4649,4.4618,4.4618,4.4618,4.4615,4.4584,4.4564,4.4499,4.4482,4.4448,4.4381,4.3673,4.3304,4.3288,4.2675,4.2303,4.2337,4.298,4.3321,4.3372,4.3978,4.4398,4.4398,4.4381,4.4685,4.5331,4.6126,4.6614,4.6684,4.6786,4.7141,4.7642,4.6094,4.5025,4.4846,4.4154,4.3433,4.3253,4.319,4.3205,4.326,4.3305,4.3305,4.3305,4.3305,4.3305,4.3305,4.3305,4.3305,4.3305,4.3305,4.3305,4.3305,4.3305,4.288,4.1767,4.0767,3.9571,3.8311,3.7137,3.6534,3.6428,3.6417,3.6417,3.6417,3.6417,3.6417,3.6132,3.5415,3.4434,3.4629,3.3166,3.1669,3.0809,3.0096,2.956,2.8521,2.7816,2.7114,2.4516,2.2428,2.1009,4.9018,4.9018,4.9018,4.9018,4.9018,4.9018,4.9018,4.9018,4.9018,4.9018,4.9018,4.9018,4.9018,4.9018,4.9018,4.9018,4.9018,4.9018,4.8849,4.8563,4.8546,4.8392,4.8139,4.8088,4.7902,4.7479,4.7447,4.7208,4.6853,4.6786,4.6665,4.6363,4.6039,4.5904,4.5887,4.5904,4.5904,4.5904,4.5904,4.5904,4.5785,4.5041,4.4584,4.455,4.4279,4.4096,4.4079,4.3789,4.3653,4.3704,4.4367,4.4759,4.4773,4.5483,4.592,4.5904,4.5887,4.6022,4.6329,4.7039,4.7447,4.7447,4.7851,4.8257,4.8434,4.683,4.5757,4.5564,4.4366,4.3402,4.3339,4.3305,4.3305,4.3305,4.3305,4.3305,4.3305,4.3305,4.3305,4.3305,4.3305,4.3305,4.3305,4.3305,4.3305,4.3305,4.3305,4.2845,4.1774,4.1176,4.0139,3.8559,3.7678,3.7127,3.6581,3.6417,3.6417,3.6417,3.6417,3.6417,3.6287,3.6073,3.5595,3.5571,3.3774,3.239,3.1688,2.999,2.8883,2.8247,2.7394,2.6527,2.5343,2.3255,2.1557,4.9018,4.9018,4.9018,4.9018,4.9018,4.9018,4.9018,4.9018,4.9018,4.9018,4.9018,4.9018,4.9018,4.9018,4.9018,4.9018,4.9018,4.9018,4.9018,4.9018,4.9018,4.9001,4.9018,4.9001,4.8731,4.8276,4.8191,4.7921,4.7411,4.7158,4.709,4.7073,4.6904,4.6786,4.6786,4.6786,4.6786,4.6769,4.6786,4.6786,4.6633,4.5751,4.5108,4.4939,4.5091,4.5125,4.4905,4.5091,4.521,4.5224,4.572,4.6007,4.6024,4.6515,4.6786,4.6802,4.6989,4.7107,4.7124,4.78,4.8191,4.8242,4.8731,4.9018,4.8751,4.7523,4.6539,4.6069,4.4672,4.3678,4.3309,4.3305,4.3305,4.3305,4.3305,4.3305,4.3305,4.3305,4.3305,4.3305,4.3305,4.3305,4.3305,4.3305,4.3305,4.3305,4.327,4.2886,4.1912,4.1504,4.0753,3.8532,3.8107,3.7609,3.6651,3.6417,3.6417,3.6417,3.6417,3.6417,3.6417,3.6394,3.6394,3.5786,3.402,3.2714,3.2022,3.0315,2.8653,2.8291,2.7579,2.6719,2.6378,2.4284,2.2892,4.9018,4.9018,4.9018,4.9018,4.9018,4.9018,4.9018,4.9018,4.9018,4.9018,4.9018,4.9018,4.9018,4.9018,4.9018,4.9018,4.9018,4.9018,4.9018,4.9018,4.9018,4.9018,4.9018,4.9018,4.8984,4.8866,4.8849,4.8832,4.8765,4.8174,4.7853,4.7836,4.7259,4.6853,4.6904,4.6938,4.6819,4.6955,4.6955,4.687,4.6853,4.6752,4.6363,4.5855,4.6295,4.6295,4.5821,4.6312,4.6665,4.6665,4.6716,4.675,4.6752,4.6834,4.6887,4.6953,4.7496,4.7853,4.7938,4.8511,4.89,4.8917,4.8951,4.9018,4.8955,4.8031,4.7071,4.6277,4.5245,4.4278,4.3448,4.3305,4.3305,4.3305,4.3305,4.3305,4.3305,4.3305,4.3305,4.3305,4.3305,4.3349,4.3334,4.3305,4.3354,4.3354,4.3319,4.288,4.1932,4.1608,4.0675,3.8934,3.8062,3.7733,3.6698,3.6417,3.6417,3.6417,3.6417,3.6417,3.6417,3.6417,3.6417,3.6144,3.4848,3.3626,3.2473,3.1165,2.9743,2.8989,2.8503,2.786,2.7558,2.6664,2.5323,4.9018,4.9018,4.9018,4.9018,4.9018,4.9018,4.9018,4.9018,4.9018,4.9018,4.9018,4.9018,4.9018,4.9018,4.9018,4.9018,4.9018,4.9018,4.9018,4.9018,4.9018,4.9018,4.9018,4.9018,4.9018,4.9018,4.9018,4.9018,4.9001,4.8715,4.8597,4.8595,4.8359,4.8223,4.8206,4.8206,4.8189,4.8206,4.8206,4.8223,4.8173,4.8206,4.7868,4.7143,4.6887,4.6667,4.6413,4.6667,4.6786,4.6802,4.7242,4.7481,4.7532,4.7953,4.8206,4.824,4.8445,4.8597,4.8646,4.8849,4.9018,4.9018,4.9018,4.9018,4.8861,4.8128,4.7189,4.6279,4.5374,4.4377,4.3571,4.3305,4.3305,4.3305,4.3305,4.3305,4.3305,4.3305,4.3305,4.3305,4.3305,4.3459,4.3728,4.3579,4.3489,4.3818,4.3579,4.2844,4.2085,4.2187,4.163,3.9169,3.8693,3.8595,3.6581,3.6417,3.6417,3.6417,3.6417,3.6417,3.6417,3.6417,3.6417,3.6327,3.5344,3.3822,3.237,3.0385,2.9303,2.9176,2.8721,2.8713,2.8782,2.78,2.6855,4.9018,4.9018,4.9018,4.9018,4.9018,4.9018,4.9018,4.9018,4.9018,4.9018,4.9018,4.9018,4.9018,4.9018,4.9018,4.9018,4.9018,4.9018,4.9018,4.9018,4.9018,4.9018,4.9018,4.9018,4.9018,4.9018,4.9018,4.9018,4.9018,4.9018,4.9018,4.9001,4.9018,4.9018,4.9018,4.9018,4.9018,4.9018,4.9018,4.9001,4.9018,4.9018,4.8781,4.8276,4.7767,4.7378,4.7206,4.7361,4.7513,4.7581,4.7988,4.8259,4.831,4.8732,4.9018,4.9018,4.9001,4.9018,4.9018,4.9018,4.9018,4.9018,4.9018,4.9018,4.8938,4.8417,4.7638,4.6764,4.6119,4.5232,4.4143,4.3806,4.3669,4.3409,4.3305,4.3305,4.3305,4.3305,4.3305,4.3354,4.3549,4.3848,4.4132,4.3878,4.3893,4.4272,4.3728,4.2995,4.2737,4.2953,4.2913,4.0448,4.0049,3.9348,3.7857,3.7231,3.6639,3.6531,3.6556,3.6518,3.6543,3.6505,3.6485,3.6332,3.5332,3.3722,3.1873,2.9775,2.9109,2.9064,2.9023,2.8953,2.896,2.8927,2.8036,4.9018,4.9018,4.9018,4.9018,4.9018,4.9018,4.9018,4.9018,4.9018,4.9018,4.9018,4.9018,4.9018,4.9018,4.9018,4.9018,4.9018,4.9018,4.9018,4.9018,4.9018,4.9018,4.9018,4.9018,4.9018,4.9018,4.9018,4.9018,4.9018,4.9018,4.9018,4.9018,4.9018,4.9018,4.9018,4.9018,4.9018,4.9018,4.9018,4.9018,4.9018,4.9018,4.8984,4.8934,4.8866,4.8529,4.7938,4.8512,4.8815,4.8849,4.89,4.8984,4.8917,4.8984,4.9018,4.9018,4.9018,4.9018,4.9018,4.9018,4.9018,4.9018,4.9018,4.9018,4.8986,4.8907,4.8465,4.7605,4.7339,4.6746,4.519,4.4796,4.4377,4.3472,4.3305,4.3305,4.3305,4.3305,4.3305,4.3364,4.3743,4.4222,4.4296,4.4222,4.4267,4.4371,4.3997,4.3703,4.3953,4.4195,4.4022,4.3164,4.1958,4.0605,3.9312,3.8101,3.7299,3.6669,3.6719,3.672,3.6821,3.6846,3.7022,3.6818,3.5137,3.3526,3.1537,2.9691,2.9178,2.9068,2.9109,2.9375,2.9657,2.9709,2.9269,4.9018,4.9018,4.9018,4.9018,4.9018,4.9018,4.9018,4.9018,4.9018,4.9018,4.9018,4.9018,4.9018,4.9018,4.9018,4.9018,4.9018,4.9018,4.9018,4.9018,4.9018,4.9018,4.9018,4.9018,4.9018,4.9018,4.9018,4.9018,4.9018,4.9018,4.9018,4.9018,4.9018,4.9018,4.9018,4.9018,4.9018,4.9018,4.9018,4.9018,4.9018,4.9018,4.9018,4.9018,4.9001,4.8868,4.8682,4.8884,4.9001,4.9018,4.9018,4.9018,4.9018,4.9018,4.9018,4.9018,4.9018,4.9018,4.9018,4.9018,4.9018,4.9018,4.9018,4.9018,4.9018,4.9018,4.8592,4.7786,4.7589,4.7036,4.6083,4.5762,4.5011,4.3488,4.3305,4.3344,4.3305,4.3305,4.3305,4.3305,4.3484,4.3982,4.4631,4.4661,4.4611,4.5284,4.4925,4.4661,4.4885,4.4915,4.4555,4.3683,4.2744,4.1996,4.0708,3.9515,3.86,3.7783,3.7479,3.7197,3.7235,3.7262,3.7437,3.6714,3.5029,3.3261,3.1262,2.9935,2.9335,2.9288,2.9437,2.9958,3.0634,3.0509,2.9958,4.9018,4.9018,4.9018,4.9018,4.9018,4.9018,4.9018,4.9018,4.9018,4.9018,4.9018,4.9018,4.9018,4.9018,4.9018,4.9018,4.9018,4.9018,4.9018,4.9018,4.9018,4.9018,4.9018,4.9018,4.9018,4.9018,4.9018,4.9018,4.9018,4.9018,4.9018,4.9018,4.9018,4.9018,4.9018,4.9018,4.9018,4.9018,4.9018,4.9018,4.9018,4.9018,4.9018,4.9018,4.9018,4.9018,4.9018,4.9018,4.9018,4.9018,4.9018,4.9018,4.9018,4.9018,4.9018,4.9018,4.9018,4.9018,4.9018,4.9018,4.9018,4.9018,4.9018,4.9018,4.9018,4.9018,4.8672,4.8257,4.8145,4.7589,4.6504,4.6191,4.5308,4.3512,4.3689,4.3649,4.3448,4.3305,4.3305,4.3349,4.3549,4.4087,4.4541,4.4676,4.4596,4.5313,4.499,4.49,4.5065,4.5259,4.4921,4.4622,4.4211,4.3278,4.2049,4.0958,3.9963,3.9133,3.842,3.7986,3.7739,3.7714,3.7753,3.6556,3.5033,3.3529,3.1636,3.0093,2.9186,2.9484,2.9806,3.0242,3.0713,3.085,3.048,4.9018,4.9018,4.9018,4.9018,4.9018,4.9018,4.9018,4.9018,4.9018,4.9018,4.9018,4.9018,4.9018,4.9018,4.9018,4.9018,4.9018,4.9018,4.9018,4.9018,4.9018,4.9018,4.9018,4.9018,4.9018,4.9018,4.9018,4.9018,4.9018,4.9018,4.9018,4.9018,4.9018,4.9018,4.9018,4.9018,4.9018,4.9018,4.9018,4.9018,4.9018,4.9018,4.9018,4.9018,4.9018,4.9018,4.9018,4.9018,4.9018,4.9018,4.9018,4.9018,4.9018,4.9018,4.9018,4.9018,4.9018,4.9018,4.9018,4.9018,4.9018,4.9018,4.9018,4.9018,4.9018,4.9001,4.8876,4.8641,4.8656,4.8048,4.6626,4.6208,4.5308,4.3916,4.3989,4.4004,4.3448,4.3305,4.3305,4.3394,4.3833,4.4267,4.4362,4.4326,4.4401,4.4461,4.4177,4.4526,4.514,4.5678,4.6082,4.5893,4.5507,4.4744,4.359,4.226,4.1266,4.0221,3.9404,3.873,3.8404,3.8366,3.7525,3.6307,3.5207,3.3673,3.1981,3.0248,2.9552,2.9878,3.0163,3.0458,3.0644,3.082,3.0635,4.9018,4.9018,4.9018,4.9018,4.9018,4.9018,4.9018,4.9018,4.9018,4.9018,4.9018,4.9018,4.9018,4.9018,4.9018,4.9018,4.9018,4.9018,4.9018,4.9018,4.9018,4.9018,4.9018,4.9018,4.9018,4.9018,4.9018,4.9018,4.9018,4.9018,4.9018,4.9018,4.9018,4.9018,4.9018,4.9018,4.9018,4.9018,4.9018,4.9018,4.9018,4.9018,4.9018,4.9018,4.9018,4.9018,4.9018,4.9018,4.9018,4.9018,4.9018,4.9018,4.9018,4.9018,4.9018,4.9018,4.9018,4.9018,4.9018,4.9018,4.9018,4.9018,4.9018,4.9018,4.9018,4.9001,4.8655,4.8209,4.7933,4.7506,4.6454,4.612,4.5473,4.4627,4.4043,4.3669,4.3409,4.3305,4.3305,4.3334,4.3484,4.3788,4.4117,4.4267,4.4421,4.4706,4.4736,4.4855,4.5454,4.5843,4.6127,4.6785,4.662,4.6028,4.5121,4.3761,4.2507,4.1342,4.0371,3.9448,3.9258,3.9233,3.7776,3.6133,3.5354,3.4059,3.1889,2.9901,3.0045,3.0272,3.0312,3.0469,3.0713,3.0859,3.043,4.9018,4.9018,4.9018,4.9018,4.9018,4.9018,4.9018,4.9018,4.9018,4.9018,4.9018,4.9018,4.9018,4.9018,4.9018,4.9018,4.9018,4.9018,4.9018,4.9018,4.9018,4.9018,4.9018,4.9018,4.9018,4.9018,4.9018,4.9018,4.9018,4.9018,4.9018,4.9018,4.9018,4.9018,4.9018,4.9018,4.9018,4.9018,4.9018,4.9018,4.9018,4.9018,4.9018,4.9018,4.9018,4.9018,4.9018,4.9018,4.9018,4.9018,4.9018,4.9018,4.9018,4.9018,4.9018,4.9018,4.9018,4.9018,4.9018,4.9018,4.9018,4.9018,4.9018,4.9018,4.8909,4.8688,4.808,4.7721,4.7289,4.6574,4.5762,4.5253,4.4765,4.4143,4.363,4.3305,4.3305,4.3305,4.3305,4.3305,4.3319,4.3429,4.3863,4.3893,4.4072,4.4287,4.4237,4.479,4.5529,4.5813,4.6121,4.6689,4.7145,4.6607,4.5976,4.4781,4.3356,4.2237,4.0591,3.9762,3.9697,3.9581,3.7954,3.6345,3.5492,3.4118,3.1819,3.0267,3.0432,3.0547,3.047,3.0528,3.0791,3.081,3.0351,4.9018,4.9018,4.9018,4.9018,4.9018,4.9018,4.9018,4.9018,4.9018,4.9018,4.9018,4.9018,4.9018,4.9018,4.9018,4.9018,4.9018,4.9018,4.9018,4.9018,4.9018,4.9018,4.9018,4.9018,4.9018,4.9018,4.9018,4.9018,4.9018,4.9018,4.9018,4.9018,4.9018,4.9018,4.9018,4.9018,4.9018,4.9018,4.9018,4.9018,4.9018,4.9018,4.9018,4.9018,4.9018,4.9018,4.9018,4.9018,4.9018,4.9018,4.9018,4.9018,4.9018,4.9018,4.9018,4.9018,4.9018,4.9018,4.9018,4.9018,4.9018,4.9018,4.9018,4.8907,4.8702,4.8273,4.7786,4.7002,4.6575,4.5834,4.4762,4.3853,4.3591,4.3468,4.3344,4.3324,4.3305,4.3305,4.3305,4.3305,4.3305,4.3305,4.3305,4.3305,4.3349,4.3773,4.3803,4.4267,4.4954,4.5394,4.5807,4.636,4.6749,4.707,4.6438,4.5756,4.4338,4.2941,4.0818,3.9723,3.9697,3.9258,3.7873,3.6603,3.5549,3.3822,3.1536,3.0772,3.0811,3.0791,3.0723,3.0781,3.0908,3.0752,3.042,4.9018,4.9018,4.9018,4.9018,4.9018,4.9018,4.9018,4.9018,4.9018,4.9018,4.9018,4.9018,4.9018,4.9018,4.9018,4.9018,4.9018,4.9018,4.9018,4.9018,4.9018,4.9018,4.9018,4.9018,4.9018,4.9018,4.9018,4.9018,4.9018,4.9018,4.9018,4.9018,4.9018,4.9018,4.9018,4.9018,4.9018,4.9018,4.9018,4.9018,4.9018,4.9018,4.9018,4.9018,4.9018,4.9018,4.9018,4.9018,4.9018,4.9018,4.9018,4.9018,4.9018,4.9018,4.9018,4.9018,4.9018,4.9018,4.9018,4.9018,4.9018,4.9018,4.8893,4.8688,4.8015,4.8322,4.7406,4.6223,4.5798,4.5253,4.3989,4.3472,4.3384,4.3394,4.3379,4.3379,4.3334,4.3319,4.3305,4.3305,4.3305,4.3305,4.3305,4.3305,4.3305,4.3305,4.3454,4.3713,4.4296,4.4975,4.5493,4.6061,4.6764,4.7057,4.651,4.5697,4.4343,4.2989,4.1094,3.9723,3.9723,3.9452,3.8267,3.6885,3.5502,3.359,3.1782,3.0918,3.085,3.0889,3.0898,3.082,3.0752,3.0625,3.0312,4.9018,4.9018,4.9018,4.9018,4.9018,4.9018,4.9018,4.9018,4.9018,4.9018,4.9018,4.9018,4.9018,4.9018,4.9018,4.9018,4.9018,4.9018,4.9018,4.9018,4.9018,4.9018,4.9018,4.9018,4.9018,4.9018,4.9018,4.9018,4.9018,4.9018,4.9018,4.9018,4.9018,4.9018,4.9018,4.9018,4.9018,4.9018,4.9018,4.9018,4.9018,4.9018,4.9018,4.9018,4.9018,4.9018,4.9018,4.9018,4.9018,4.9018,4.9018,4.9018,4.9018,4.9018,4.9018,4.9018,4.9018,4.9018,4.9018,4.9018,4.9018,4.8986,4.8641,4.8145,4.7473,4.7406,4.6433,4.5193,4.4743,4.4308,4.3463,4.3683,4.3728,4.3773,4.3773,4.3893,4.4057,4.3728,4.3305,4.3305,4.3305,4.3305,4.3305,4.3305,4.3305,4.3305,4.3324,4.3594,4.4237,4.487,4.5259,4.5867,4.6734,4.7,4.6458,4.5496,4.4069,4.2714,4.1169,4.0121,3.9697,3.9362,3.8921,3.7435,3.5903,3.4391,3.2742,3.1899,3.0995,3.0859,3.0791,3.0683,3.041,3.0059,2.9726,4.9018,4.9018,4.9018,4.9018,4.9018,4.9018,4.9018,4.9018,4.9018,4.9018,4.9018,4.9018,4.9018,4.9018,4.9018,4.9018,4.9018,4.9018,4.9018,4.9018,4.9018,4.9018,4.9018,4.9018,4.9018,4.9018,4.9018,4.9018,4.9018,4.9018,4.9018,4.9018,4.9018,4.9018,4.9018,4.9018,4.9018,4.9018,4.9018,4.9018,4.9018,4.9018,4.9018,4.9018,4.9018,4.9018,4.9018,4.9018,4.9018,4.9018,4.9018,4.9018,4.9018,4.9018,4.9018,4.9018,4.9018,4.9018,4.9018,4.9018,4.9001,4.8954,4.8386,4.7919,4.7554,4.6703,4.578,4.4982,4.445,4.3772,4.3519,4.4057,4.4386,4.4446,4.4446,4.4691,4.4811,4.4162,4.3833,4.3499,4.3409,4.3305,4.3305,4.3305,4.3305,4.3305,4.3324,4.3489,4.4117,4.4676,4.5035,4.5379,4.6157,4.6734,4.6327,4.5057,4.368,4.249,4.111,4.0045,3.9396,3.8979,3.8457,3.7762,3.6336,3.4884,3.3564,3.243,3.1644,3.11,3.0605,3.04,2.9971,2.9482,2.9228,4.9018,4.9018,4.9018,4.9018,4.9018,4.9018,4.9018,4.9018,4.9018,4.9018,4.9018,4.9018,4.9018,4.9018,4.9018,4.9018,4.9018,4.9018,4.9018,4.9018,4.9018,4.9018,4.9018,4.9018,4.9018,4.9018,4.9018,4.9018,4.9018,4.9018,4.9018,4.9018,4.9018,4.9018,4.9018,4.9018,4.9018,4.9018,4.9018,4.9018,4.9018,4.9018,4.9018,4.9018,4.9018,4.9018,4.9018,4.9018,4.9018,4.9018,4.9018,4.9018,4.9018,4.9018,4.9018,4.9018,4.9018,4.9018,4.9018,4.9018,4.9018,4.897,4.8755,4.856,4.8232,4.7544,4.6396,4.5563,4.4777,4.4162,4.4162,4.4736,4.5065,4.5125,4.511,4.5029,4.4805,4.4745,4.4631,4.4207,4.3773,4.3305,4.3305,4.3305,4.3305,4.3305,4.3305,4.3324,4.3624,4.4192,4.467,4.5035,4.5424,4.5912,4.6177,4.466,4.3263,4.2253,4.0901,3.9307,3.8693,3.8366,3.7864,3.751,3.6856,3.5665,3.4363,3.2995,3.1694,3.0716,3.0343,3.0077,2.9639,2.9238,2.9121,4.9018,4.9018,4.9018,4.9018,4.9018,4.9018,4.9018,4.9018,4.9018,4.9018,4.9018,4.9018,4.9018,4.9018,4.9018,4.9018,4.9018,4.9018,4.9018,4.9018,4.9018,4.9018,4.9018,4.9018,4.9018,4.9018,4.9018,4.9018,4.9018,4.9018,4.9018,4.9018,4.9018,4.9018,4.9018,4.9018,4.9018,4.9018,4.9018,4.9018,4.9018,4.9018,4.9018,4.9018,4.9018,4.9018,4.9018,4.9018,4.9018,4.9018,4.9018,4.9018,4.9018,4.9018,4.9018,4.9018,4.9018,4.9018,4.9018,4.9018,4.9018,4.8973,4.8927,4.8498,4.8028,4.7349,4.6784,4.5883,4.5718,4.5164,4.49,4.5454,4.5747,4.5807,4.5807,4.5807,4.5792,4.5792,4.5358,4.482,4.4296,4.3803,4.3305,4.3305,4.3305,4.3305,4.3305,4.3305,4.3305,4.3773,4.4341,4.4625,4.499,4.5409,4.5476,4.4112,4.2855,4.1863,4.0468,3.8885,3.814,3.7889,3.7904,3.78,3.7002,3.6036,3.4677,3.312,3.1726,3.0454,3.0091,2.9762,2.936,2.9053,2.9006,4.9018,4.9018,4.9018,4.9018,4.9018,4.9018,4.9018,4.9018,4.9018,4.9018,4.9018,4.9018,4.9018,4.9018,4.9018,4.9018,4.9018,4.9018,4.9018,4.9018,4.9018,4.9018,4.9018,4.9018,4.9018,4.9018,4.9018,4.9018,4.9018,4.9018,4.9018,4.9018,4.9018,4.9018,4.9018,4.9018,4.9018,4.9018,4.9018,4.9018,4.9018,4.9018,4.9018,4.9018,4.9018,4.9018,4.9018,4.9018,4.9018,4.9018,4.9018,4.9018,4.9018,4.9018,4.9018,4.9018,4.9018,4.9018,4.9018,4.9018,4.9086,4.9307,4.8911,4.8418,4.8131,4.7743,4.6698,4.5729,4.5807,4.6001,4.5642,4.6112,4.642,4.6495,4.6525,4.657,4.6614,4.6435,4.5807,4.5284,4.4796,4.4182,4.3534,4.3305,4.3305,4.3305,4.3305,4.3305,4.3334,4.3579,4.4012,4.4252,4.4581,4.4984,4.467,4.3473,4.2368,4.1494,3.9851,3.811,3.7725,3.75,3.7554,3.7556,3.6924,3.5872,3.4567,3.3561,3.2523,3.1449,3.0302,2.9451,2.9055,2.9077,2.9186,4.9018,4.9018,4.9018,4.9018,4.9018,4.9018,4.9018,4.9018,4.9018,4.9018,4.9018,4.9018,4.9018,4.9018,4.9018,4.9018,4.9018,4.9018,4.9018,4.9018,4.9018,4.9018,4.9018,4.9018,4.9018,4.9018,4.9018,4.9018,4.9018,4.9018,4.9018,4.9018,4.9018,4.9018,4.9018,4.9018,4.9018,4.9018,4.9018,4.9018,4.9018,4.9018,4.9018,4.9018,4.9018,4.9018,4.9018,4.9018,4.9018,4.9018,4.9018,4.9018,4.9018,4.9018,4.9018,4.9018,4.9018,4.9018,4.9018,4.9103,4.934,4.9587,4.9244,4.9385,4.9097,4.8261,4.6956,4.5479,4.5942,4.6315,4.6315,4.6764,4.7063,4.7093,4.7055,4.6794,4.6719,4.6943,4.6315,4.5448,4.4885,4.4192,4.3534,4.3394,4.3305,4.3305,4.3305,4.3305,4.3334,4.3549,4.3624,4.3863,4.4087,4.4461,4.4042,4.2816,4.1834,4.1021,3.9302,3.7547,3.721,3.7047,3.7034,3.6903,3.639,3.6148,3.5423,3.4497,3.3532,3.2422,3.1259,2.9938,2.8742,2.894,2.9424,4.9018,4.9018,4.9018,4.9018,4.9018,4.9018,4.9018,4.9018,4.9018,4.9018,4.9018,4.9018,4.9018,4.9018,4.9018,4.9018,4.9018,4.9018,4.9018,4.9018,4.9018,4.9018,4.9018,4.9018,4.9018,4.9018,4.9018,4.9018,4.9018,4.9018,4.9018,4.9018,4.9018,4.9018,4.9018,4.9018,4.9018,4.9018,4.9018,4.9018,4.9018,4.9018,4.9018,4.9018,4.9018,4.9018,4.9018,4.9018,4.9018,4.9018,4.9018,4.9018,4.9018,4.9018,4.9018,4.9035,4.9441,4.9424,4.912,4.9407,4.9781,5.0013,4.9859,4.9859,4.9563,4.8426,4.7346,4.655,4.6696,4.6824,4.6824,4.713,4.7234,4.7309,4.7309,4.7189,4.6943,4.7018,4.6779,4.5873,4.499,4.4386,4.3833,4.3549,4.3459,4.3409,4.3364,4.3305,4.3305,4.3364,4.3394,4.3409,4.3638,4.3893,4.3243,4.2295,4.1241,4.0273,3.8855,3.7374,3.6779,3.6556,3.6656,3.6669,3.6428,3.6225,3.6058,3.5223,3.4041,3.3101,3.2222,3.1088,3.0005,2.9533,2.9728,4.9018,4.9018,4.9018,4.9018,4.9018,4.9018,4.9018,4.9018,4.9018,4.9018,4.9018,4.9018,4.9018,4.9018,4.9018,4.9018,4.9018,4.9018,4.9018,4.9018,4.9018,4.9018,4.9018,4.9018,4.9018,4.9018,4.9018,4.9018,4.9018,4.9018,4.9018,4.9018,4.9018,4.9018,4.9018,4.9018,4.9018,4.9018,4.9018,4.9018,4.9018,4.9018,4.9018,4.9018,4.9018,4.9018,4.9018,4.9018,4.9018,4.9018,4.9018,4.9018,4.9018,4.9018,4.9018,4.9137,4.9576,4.9796,4.9695,4.9899,5.0226,5.0292,4.9982,4.9499,4.8527,4.7673,4.7294,4.713,4.7189,4.7249,4.7309,4.7294,4.7294,4.7309,4.7309,4.7309,4.7309,4.7264,4.6973,4.6151,4.5358,4.485,4.4311,4.3818,4.3624,4.3564,4.3474,4.3349,4.3319,4.3349,4.3305,4.3305,4.3394,4.3559,4.307,4.2129,4.0971,3.9704,3.8305,3.7251,3.6649,3.6441,3.648,3.6455,3.6417,3.6348,3.6245,3.5374,3.4545,3.3943,3.3273,3.2465,3.1633,3.0916,2.9911,4.9018,4.9018,4.9018,4.9018,4.9018,4.9018,4.9018,4.9018,4.9018,4.9018,4.9018,4.9018,4.9018,4.9018,4.9018,4.9018,4.9018,4.9018,4.9018,4.9018,4.9018,4.9018,4.9018,4.9018,4.9018,4.9018,4.9018,4.9018,4.9018,4.9018,4.9018,4.9018,4.9018,4.9018,4.9018,4.9018,4.9018,4.9018,4.9018,4.9018,4.9018,4.9018,4.9018,4.9018,4.9018,4.9018,4.9018,4.9018,4.9018,4.9018,4.9018,4.9018,4.9018,4.9018,4.9018,4.9154,4.983,5.0101,5.0202,5.0484,5.0794,5.0461,4.9744,4.8781,4.7776,4.7495,4.7309,4.7309,4.7309,4.7309,4.7309,4.7309,4.7309,4.7309,4.7309,4.7309,4.7309,4.7309,4.698,4.6315,4.5762,4.5269,4.49,4.4436,4.4272,4.4227,4.3743,4.3624,4.3454,4.3439,4.3334,4.3305,4.3305,4.331,4.32,4.2196,4.0788,3.9626,3.8358,3.7368,3.6584,3.6476,3.6417,3.6417,3.6417,3.6417,3.6381,3.5852,3.537,3.4973,3.4402,3.3792,3.2482,3.1276,3.012,4.9018,4.9018,4.9018,4.9018,4.9018,4.9018,4.9018,4.9018,4.9018,4.9018,4.9018,4.9018,4.9018,4.9018,4.9018,4.9018,4.9018,4.9018,4.9018,4.9018,4.9018,4.9018,4.9018,4.9018,4.9018,4.9018,4.9018,4.9018,4.9018,4.9018,4.9018,4.9018,4.9035,4.9018,4.9018,4.9018,4.9018,4.9018,4.9018,4.9018,4.9018,4.9018,4.9018,4.9018,4.9018,4.9018,4.9018,4.9018,4.9018,4.9052,4.9086,4.9137,4.9154,4.9154,4.9137,4.9258,5.0121,5.058,5.0653,5.0811,5.0559,4.9652,4.9019,4.8377,4.7402,4.7309,4.7309,4.7309,4.7309,4.7309,4.7309,4.7309,4.7309,4.7309,4.7309,4.7309,4.7309,4.7309,4.7115,4.6525,4.6151,4.5762,4.5424,4.505,4.4975,4.487,4.4347,4.3848,4.3633,4.3484,4.3364,4.3305,4.3305,4.3305,4.321,4.1968,4.052,3.95,3.846,3.7474,3.6617,3.6452,3.6417,3.6417,3.6417,3.6417,3.6417,3.6417,3.6139,3.5669,3.5504,3.533,3.3749,3.1847,3.0551,4.9018,4.9018,4.9018,4.9018,4.9018,4.9018,4.9018,4.9018,4.9018,4.9018,4.9018,4.9018,4.9018,4.9018,4.9018,4.9018,4.9018,4.9018,4.9018,4.9018,4.9018,4.9018,4.9018,4.9018,4.9018,4.9018,4.9018,4.9018,4.9018,4.9018,4.9187,4.9255,4.912,4.9035,4.9018,4.9018,4.9018,4.9018,4.9018,4.9018,4.9018,4.9018,4.9018,4.9018,4.9018,4.9221,4.9323,4.9458,4.961,4.9712,4.9779,4.9713,4.9679,4.9645,4.9645,4.9988,5.0418,5.106,5.1011,5.0752,5.0121,4.9159,4.846,4.7961,4.7516,4.7309,4.7309,4.7309,4.7309,4.7309,4.7309,4.7309,4.7309,4.7309,4.7309,4.7309,4.7309,4.7294,4.7078,4.6764,4.6435,4.6121,4.6136,4.5768,4.5095,4.505,4.484,4.4192,4.3589,4.3439,4.3334,4.3305,4.3305,4.3305,4.323,4.1961,4.0767,3.9745,3.8662,3.7428,3.6698,3.6523,3.6417,3.6417,3.6417,3.6417,3.6417,3.6417,3.6417,3.6345,3.6168,3.5918,3.4447,3.2555,3.1261,4.9018,4.9018,4.9018,4.9018,4.9018,4.9018,4.9018,4.9018,4.9018,4.9018,4.9018,4.9018,4.9018,4.9018,4.9018,4.9018,4.9018,4.9018,4.9018,4.9018,4.9018,4.9018,4.9018,4.9018,4.9018,4.9018,4.9018,4.9018,4.9018,4.9018,4.934,4.9524,4.9238,4.9018,4.9018,4.9018,4.9018,4.9018,4.9018,4.9018,4.9018,4.9018,4.9018,4.9018,4.9171,4.9458,4.9744,5.0033,5.027,5.0626,5.0744,5.0761,5.0795,5.0829,5.0846,5.0965,5.0808,5.0825,5.0744,5.0507,4.9706,4.8728,4.7982,4.7495,4.7352,4.7309,4.7309,4.7309,4.7309,4.7309,4.7309,4.7309,4.7309,4.7309,4.7309,4.7309,4.7309,4.7309,4.713,4.6929,4.6644,4.6435,4.6629,4.645,4.5454,4.5095,4.5125,4.4611,4.3803,4.3409,4.3319,4.3305,4.3305,4.3305,4.31,4.2102,4.1,3.9968,3.8729,3.7335,3.6651,3.6476,3.6417,3.6417,3.6417,3.6417,3.6417,3.6417,3.6417,3.6417,3.6417,3.5966,3.4593,3.3415,3.2202,4.9018,4.9018,4.9018,4.9018,4.9018,4.9018,4.9018,4.9018,4.9018,4.9018,4.9018,4.9018,4.9018,4.9018,4.9018,4.9018,4.9018,4.9018,4.9018,4.9018,4.9018,4.9018,4.9018,4.9018,4.9018,4.9018,4.9018,4.9018,4.9018,4.9018,4.9069,4.9204,4.9272,4.9035,4.9018,4.9018,4.9018,4.9018,4.9018,4.9018,4.9018,4.9018,4.9018,4.902,4.9407,4.983,5.0201,5.0541,5.1015,5.1336,5.1421,5.1387,5.137,5.137,5.1303,5.1192,5.0922,5.0329,4.9815,4.9278,4.8851,4.8072,4.7602,4.7309,4.7309,4.7309,4.7309,4.7309,4.7309,4.7309,4.7309,4.7309,4.7309,4.7309,4.7309,4.7309,4.7309,4.7309,4.7219,4.704,4.6779,4.6136,4.6052,4.5978,4.52,4.4685,4.4646,4.4566,4.3938,4.3514,4.3305,4.3305,4.3305,4.3305,4.2934,4.1791,4.0921,4.002,3.8505,3.6849,3.6441,3.6417,3.6417,3.6417,3.6417,3.6417,3.6417,3.6417,3.6417,3.6417,3.6417,3.6417,3.5607,3.452,3.3365,4.9018,4.9018,4.9018,4.9018,4.9018,4.9018,4.9018,4.9018,4.9018,4.9018,4.9018,4.9018,4.9018,4.9018,4.9018,4.9018,4.9018,4.9018,4.9018,4.9018,4.9018,4.9018,4.9018,4.9018,4.9018,4.9018,4.9018,4.9018,4.9018,4.9018,4.9035,4.912,4.9238,4.9221,4.9137,4.9018,4.9018,4.9018,4.9018,4.9018,4.9018,4.9018,4.9018,4.9204,4.9627,5.0219,5.0608,5.1116,5.1691,5.1843,5.1961,5.1945,5.1962,5.1962,5.1814,5.153,5.0437,4.9603,4.8635,4.8304,4.794,4.7473,4.7309,4.7309,4.7309,4.7309,4.7309,4.7309,4.7309,4.7309,4.7309,4.7309,4.7309,4.7309,4.7309,4.7309,4.7309,4.7309,4.7294,4.713,4.6666,4.6007,4.5319,4.508,4.4736,4.4386,4.4102,4.4057,4.4012,4.3638,4.3305,4.3305,4.3305,4.3305,4.2599,4.1298,4.054,3.9984,3.836,3.6523,3.6417,3.6417,3.6417,3.6417,3.6417,3.6417,3.6417,3.6417,3.6417,3.6417,3.6417,3.6381,3.6381,3.5439,3.419,4.9018,4.9018,4.9018,4.9018,4.9018,4.9018,4.9018,4.9018,4.9018,4.9018,4.9018,4.9018,4.9018,4.9018,4.9018,4.9018,4.9018,4.9018,4.9018,4.9018,4.9018,4.9018,4.9018,4.9018,4.9018,4.9018,4.9018,4.9018,4.9018,4.9018,4.9018,4.912,4.9458,4.9357,4.9137,4.9018,4.9018,4.9018,4.9018,4.9018,4.9018,4.9018,4.9018,4.9221,4.9678,5.0388,5.0997,5.1691,5.2486,5.296,5.3315,5.3365,5.3416,5.3467,5.2818,5.1636,4.9878,4.8671,4.7728,4.7559,4.7495,4.7331,4.7309,4.7309,4.7309,4.7309,4.7309,4.7309,4.7309,4.7309,4.7309,4.7309,4.7309,4.7309,4.7309,4.7309,4.7309,4.7309,4.7309,4.704,4.6516,4.5828,4.4975,4.4571,4.4252,4.4042,4.3773,4.3653,4.3589,4.3544,4.3305,4.3305,4.3305,4.3305,4.2409,4.1213,4.0374,3.9891,3.8033,3.6417,3.6417,3.6417,3.6417,3.6417,3.6417,3.6417,3.6417,3.6417,3.6417,3.6417,3.6417,3.6417,3.6381,3.5763,3.4678,4.9018,4.9018,4.9018,4.9018,4.9018,4.9018,4.9018,4.9018,4.9018,4.9018,4.9018,4.9018,4.9018,4.9018,4.9018,4.9018,4.9018,4.9018,4.9018,4.9018,4.9018,4.9018,4.9018,4.9018,4.9018,4.9018,4.9018,4.9018,4.9018,4.9018,4.9018,4.9086,4.9306,4.9171,4.9103,4.9018,4.9018,4.9018,4.9018,4.9018,4.9018,4.9018,4.9018,4.9204,4.9712,5.0439,5.1167,5.1894,5.2672,5.3331,5.3467,5.3501,5.3501,5.3433,5.287,5.093,4.952,4.8418,4.7538,4.7331,4.7359,4.7402,4.7352,4.7309,4.7309,4.7309,4.7309,4.7309,4.7309,4.7309,4.7309,4.7309,4.7309,4.7309,4.7309,4.7309,4.7279,4.7174,4.713,4.6576,4.6052,4.5224,4.4401,4.3997,4.3728,4.3594,4.3474,4.3349,4.3305,4.3305,4.3305,4.3305,4.3305,4.3305,4.2563,4.1459,4.0574,3.9607,3.7897,3.6617,3.6417,3.6417,3.6417,3.6417,3.6417,3.6417,3.6417,3.6417,3.6417,3.6417,3.6417,3.6417,3.6287,3.5799,3.5319,4.9018,4.9018,4.9018,4.9018,4.9018,4.9018,4.9018,4.9018,4.9018,4.9018,4.9018,4.9018,4.9018,4.9018,4.9018,4.9018,4.9018,4.9018,4.9018,4.9018,4.9018,4.9018,4.9018,4.9018,4.9018,4.9018,4.9018,4.9018,4.9018,4.9018,4.9018,4.9018,4.9018,4.9018,4.9018,4.9018,4.9018,4.9018,4.9018,4.9018,4.9018,4.9018,4.9018,4.9154,4.9727,5.0456,5.1184,5.1894,5.2672,5.3365,5.3484,5.3501,5.3348,5.3093,5.2661,5.0986,5.0145,4.9412,4.8774,4.8177,4.8024,4.7785,4.7559,4.7309,4.7309,4.7309,4.7309,4.7309,4.7309,4.7309,4.7309,4.7309,4.7309,4.7309,4.7309,4.7309,4.7174,4.7025,4.6576,4.6007,4.5289,4.4461,4.3863,4.3504,4.3305,4.3364,4.3399,4.3349,4.3305,4.3305,4.3305,4.3305,4.3305,4.3285,4.2461,4.172,4.076,3.9768,3.846,3.7358,3.6792,3.6417,3.6417,3.6417,3.6417,3.6417,3.6417,3.6417,3.6417,3.6417,3.6417,3.6417,3.6417,3.6263,3.5799,4.9018,4.9018,4.9018,4.9018,4.9018,4.9018,4.9018,4.9018,4.9018,4.9018,4.9018,4.9086,4.912,4.9052,4.9018,4.9018,4.9018,4.9018,4.9018,4.9018,4.9018,4.9018,4.9018,4.9018,4.9018,4.9018,4.9018,4.9018,4.9018,4.9018,4.9018,4.9018,4.9018,4.9018,4.9018,4.9018,4.9018,4.9018,4.9018,4.9018,4.9018,4.9018,4.9035,4.9137,4.9712,5.0455,5.1167,5.1911,5.2655,5.3213,5.3501,5.3501,5.3212,5.2592,5.2029,5.1541,5.0684,5.0223,4.9769,4.9291,4.8846,4.8507,4.8072,4.7694,4.7581,4.7374,4.7309,4.7309,4.7309,4.7309,4.7309,4.7309,4.7309,4.7309,4.7309,4.7309,4.7249,4.6875,4.6232,4.5648,4.496,4.4147,4.3638,4.3305,4.3305,4.3305,4.3305,4.3305,4.3305,4.3305,4.3305,4.3305,4.3305,4.323,4.278,4.1982,4.093,3.9863,3.8626,3.7576,3.6628,3.6417,3.6417,3.6417,3.6417,3.6417,3.6417,3.6417,3.6417,3.6417,3.6417,3.6417,3.6417,3.6417,3.6263,4.9018,4.9018,4.9018,4.9018,4.9018,4.9018,4.9018,4.9018,4.9018,4.9018,4.9103,4.9492,4.9475,4.9035,4.9018,4.9018,4.9018,4.9018,4.9018,4.9018,4.9018,4.9018,4.9018,4.9018,4.9018,4.9018,4.9018,4.9018,4.9018,4.9018,4.9018,4.9018,4.9018,4.9018,4.9018,4.9018,4.9018,4.9018,4.9018,4.9018,4.9018,4.9018,4.9035,4.9221,4.9712,5.0439,5.1167,5.1911,5.2689,5.3348,5.345,5.3501,5.345,5.247,5.1993,5.174,5.1155,5.0836,5.0589,5.0262,4.9754,4.9356,4.8902,4.8392,4.794,4.7516,4.7309,4.7309,4.7309,4.7309,4.7309,4.7309,4.7309,4.7309,4.7294,4.7294,4.7279,4.6591,4.5903,4.5259,4.4601,4.4027,4.3469,4.3305,4.3305,4.3305,4.3305,4.3305,4.3305,4.3305,4.3305,4.3305,4.3305,4.317,4.284,4.2085,4.0972,3.9667,3.837,3.7381,3.6499,3.6417,3.6417,3.6417,3.6417,3.6417,3.6417,3.6417,3.6417,3.6417,3.6417,3.6417,3.6417,3.6417,3.6417,4.9018,4.9018,4.9018,4.9018,4.9018,4.9018,4.9018,4.9052,4.9357,4.9289,4.9037,4.9373,4.9373,4.9018,4.9018,4.9018,4.9018,4.9018,4.9018,4.9018,4.9018,4.9018,4.9018,4.9018,4.9018,4.9018,4.9018,4.9018,4.9018,4.9018,4.9018,4.9018,4.9018,4.9018,4.9018,4.9018,4.9018,4.9018,4.9018,4.9018,4.9018,4.9018,4.9018,4.9204,4.9712,5.0456,5.1167,5.1911,5.2689,5.3264,5.3484,5.3501,5.3416,5.299,5.2714,5.2557,5.2205,5.1756,5.1594,5.1171,5.057,5.0126,4.9331,4.863,4.7694,4.7309,4.7309,4.7309,4.7309,4.7309,4.7309,4.7309,4.7309,4.7309,4.7249,4.7204,4.6785,4.6127,4.5439,4.476,4.4192,4.3713,4.3319,4.3305,4.3305,4.3305,4.3305,4.3305,4.3305,4.3305,4.3305,4.3305,4.3305,4.3285,4.311,4.2146,4.0894,3.9544,3.8247,3.7381,3.6675,3.6499,3.6417,3.6417,3.6417,3.6417,3.6417,3.6417,3.6417,3.6417,3.6417,3.6417,3.6417,3.6417,3.6417,4.9018,4.9018,4.9018,4.9018,4.9018,4.9018,4.9018,4.9103,4.9644,4.956,4.9052,4.9035,4.9018,4.9018,4.9018,4.9018,4.9018,4.9018,4.9018,4.9018,4.9018,4.9018,4.9018,4.9018,4.9018,4.9018,4.9018,4.9018,4.9018,4.9018,4.9018,4.9018,4.9018,4.9018,4.9018,4.9018,4.9018,4.9018,4.9018,4.9018,4.9018,4.9018,4.9018,4.9255,4.9813,5.0508,5.1218,5.203,5.2807,5.3162,5.3501,5.3501,5.3501,5.3331,5.3348,5.3195,5.3161,5.3059,5.3007,5.2187,5.1449,5.0649,4.9635,4.8841,4.8046,4.7892,4.7913,4.7694,4.7694,4.7381,4.7381,4.7381,4.7381,4.7337,4.7248,4.713,4.6516,4.5828,4.5125,4.4446,4.3938,4.3469,4.3319,4.3305,4.3305,4.3305,4.3305,4.3305,4.3305,4.3305,4.3305,4.3305,4.3305,4.3285,4.325,4.2167,4.0852,3.9842,3.8617,3.7609,3.6813,3.6557,3.6417,3.6417,3.6417,3.6417,3.6417,3.6417,3.6417,3.6417,3.6417,3.6417,3.6417,3.6417,3.6417,4.9018,4.9018,4.9018,4.9018,4.9018,4.9018,4.9018,4.9018,4.9137,4.9103,4.9035,4.9018,4.9018,4.9018,4.9018,4.9018,4.9018,4.9018,4.9018,4.9018,4.9018,4.9018,4.9018,4.9018,4.9018,4.9018,4.9018,4.9018,4.9018,4.9018,4.9018,4.9018,4.9018,4.9018,4.9018,4.9018,4.9018,4.9018,4.9018,4.9018,4.9018,4.9018,4.9018,4.9509,5.0304,5.0845,5.1505,5.2588,5.3162,5.345,5.3501,5.3501,5.3501,5.3501,5.3501,5.3501,5.3501,5.3501,5.3178,5.261,5.1849,5.1504,5.076,5.0493,5.0048,5.0107,4.9852,4.9206,4.8856,4.7892,4.7715,4.7694,4.7673,4.7559,4.745,4.7282,4.6888,4.6014,4.5185,4.4551,4.3982,4.3589,4.3305,4.3305,4.3305,4.3305,4.3305,4.3305,4.3305,4.3305,4.3305,4.3305,4.3305,4.3305,4.325,4.207,4.0859,3.9915,3.8863,3.7576,3.6756,3.6523,3.6417,3.6417,3.6417,3.6417,3.6417,3.6417,3.6417,3.6417,3.6417,3.6417,3.6417,3.6417,3.6417]},{"header":{"parameterUnit":"m.s-1","parameterCategory":1,"la1":31.0,"la2":29.5877,"lo1":-88.7671,"lo2":-86.6584,"dy":0.0162,"dx":0.0185,"nx":115,"ny":88,"refTime":"2025-08-19T00:00:00:Z","depth":0,"parameterNumber":3,"parameterNumberName":"V-component_of_WINDS"},"data":[0.0,0.0,0.0,0.0,0.0,0.0,0.0,0.0,0.0,0.0,0.0,0.0,0.0,0.0,0.0,0.0,0.0,0.0,0.0,0.0,0.0,0.0,0.0,0.0,0.0,0.0,0.0,0.0,0.0,0.0,0.0,0.0,0.0,0.0,0.0,0.0,0.0,0.0,0.0,0.0,0.0,0.0,0.0,0.0,0.0,0.0,0.0,0.0,0.0,0.0,0.0,0.0,0.0,0.0,0.0,0.0,0.0,0.0,0.0,0.0,0.0,0.0,0.0,0.0,0.0,0.0,0.0,0.0,0.0,0.0,0.0,0.0,0.0,0.0,0.0,0.0,0.0,0.0,0.0,0.0,0.0,0.0,0.0,0.0,0.0,0.0,0.0,0.0,0.0,0.0,0.0,0.0,0.0,0.0,0.0,0.0,0.0,0.0,0.0,0.0,0.0,0.0,0.0,0.0,0.0,0.0,0.0,0.0,0.0,0.0,0.0,0.0,0.0,0.0,0.0,0.0,0.0,0.0,0.0,0.0,0.0,0.0,0.0,0.0,0.0,0.0,0.0,0.0,0.0,0.0,0.0,0.0,0.0,0.0,0.0,0.0,0.0,0.0,0.0,0.0,0.0,0.0,0.0,0.0,0.0,0.0,0.0,0.0,0.0,0.0,0.0,0.0,0.0,0.0,0.0,0.0,0.0,0.0,0.0,0.0,0.0,0.0,0.0,0.0,0.0,0.0,0.0,0.0,0.0,0.0,0.0,0.0,0.0,0.0,0.0,0.0,0.0,0.0,0.0,0.0,0.0,0.0,0.0,0.0,0.0,0.0,0.0,0.0,0.0,0.0,0.0,0.0,0.0,0.0,0.0,0.0,0.0,0.0,0.0,0.0,0.0,0.0,0.0,0.0,0.0,0.0,0.0,0.0,0.0,0.0,0.0,0.0,0.0,0.0,0.0,0.0,0.0,0.0,0.0,0.0,0.0,0.0,0.0,0.0,0.0,0.0,0.0,0.0,0.0,0.0,0.0,0.0,0.0,0.0,0.0,0.0,0.0,0.0,0.0,0.0,0.0,0.0,0.0,0.0,0.0,0.0,0.0,0.0,0.0,0.0,0.0,0.0,0.0,0.0,0.0,0.0,0.0,0.0,0.0,0.0,0.0,0.0,0.0,0.0,0.0,0.0,0.0,0.0,0.0,0.0,0.0,0.0,0.0,0.0,0.0,0.0,0.0,0.0,0.0,0.0,0.0,0.0,0.0,0.0,0.0,0.0,0.0,0.0,0.0,0.0,0.0,0.0,0.0,0.0,0.0,0.0,0.0,0.0,0.0,0.0,0.0,0.0,0.0,0.0,0.0,0.0,0.0,0.0,0.0,0.0,0.0,0.0,0.0,0.0,0.0,0.0,0.0,0.0,0.0,0.0,0.0,0.0,0.0,0.0,0.0,0.0,0.0,0.0,0.0,0.0,0.0,0.0,0.0,0.0,0.0,0.0,0.0,0.0,0.0,0.0,0.0,0.0,0.0,0.0,0.0,0.0,0.0,0.0,0.0,0.0,0.0,0.0,0.0,0.0,0.0,0.0,0.0,0.0,0.0,0.0,0.0,0.0,0.0,0.0,0.0,0.0,0.0,0.0,0.0,0.0,0.0,0.0,0.0,0.0,0.0,0.0,0.0,0.0,0.0,0.0,0.0,0.0,0.0,0.0,0.0,0.0,0.0,0.0,0.0,0.0,0.0,0.0,0.0,0.0,0.0,0.0,0.0,0.0,0.0,0.0,0.0,0.0,0.0,0.0,0.0,0.0,0.0,0.0,0.0,0.0,0.0,0.0,0.0,0.0,0.0,0.0,0.0,0.0,0.0,0.0,0.0,0.0,0.0,0.0,0.0,0.0,0.0,0.0,0.0,0.0,0.0,0.0,0.0,0.0,0.0,0.0,0.0,0.0,0.0,0.0,0.0,0.0,0.0,0.0,0.0,0.0,0.0,0.0,0.0,0.0,0.0,0.0,0.0,0.0,0.0,0.0,0.0,0.0,0.0,0.0,0.0,0.0,0.0,0.0,0.0,0.0,0.0,0.0,0.0,0.0,0.0,0.0,0.0,0.0,0.0,0.0,0.0,0.0,0.0,0.0,0.0,0.0,0.0,0.0,0.0,0.0,0.0,0.0,0.0,0.0,0.0,0.0,0.0,0.0,0.0,0.0,0.0,0.0,0.0,0.0,0.0,0.0,0.0,0.0,0.0,0.0,0.0,0.0,0.0,0.0,0.0,0.0,0.0,0.0,0.0,0.0,0.0,0.0,0.0,0.0,0.0,0.0,0.0,0.0,0.0,0.0,0.0,0.0,0.0,0.0,0.0,0.0,0.0,0.0,0.0,0.0,0.0,0.0,0.0,0.0,0.0,0.0,0.0,0.0,0.0,0.0,0.0,0.0,0.0,0.0,0.0,0.0,0.0,0.0,0.0,0.0,0.0,0.0,0.0,0.0,0.0,0.0,0.0,0.0,0.0,0.0,0.0,0.0,0.0,0.0,0.0,0.0,0.0,0.0,0.0,0.0,0.0,0.0,0.0,0.0,0.0,0.0,0.0,0.0,0.0,0.0,0.0,0.0,0.0,0.0,0.0,0.0,0.0,0.0,0.0,0.0,0.0,0.0,0.0,0.0,0.0,0.0,0.0,0.0,0.0,0.0,0.0,0.0,0.0,0.0,0.0,0.0,0.0,0.0,0.0,0.0,0.0,0.0,0.0,0.0,0.0,0.0,0.0,0.0,0.0,0.0,0.0,0.0,0.0,0.0,0.0,0.0,0.0,0.0,0.0,0.0,0.0,0.0,0.0,0.0,0.0,0.0,0.0,0.0,0.0,0.0,0.0,0.0,0.0,0.0,0.0,0.0,0.0,0.0,0.0,0.0,0.0,0.0,0.0,0.0,0.0,0.0,0.0,0.0,0.0,0.0,0.0,0.0,0.0,0.0,0.0,0.0,0.0,0.0,0.0,0.0,0.0,0.0,0.0,0.0,0.0,0.0,0.0,0.0,0.0,0.0,0.0,0.0,0.0,0.0,0.0,0.0,0.0,0.0,0.0,0.0,0.0,0.0,0.0,0.0,0.0,0.0,0.0,0.0,0.0,0.0,0.0,0.0,0.0,0.0,0.0,0.0,0.0,0.0,0.0,0.0,0.0,0.0,0.0,0.0,0.0,0.0,0.0,0.0,0.0,0.0,0.0,0.0,0.0,0.0,0.0,0.0,0.0,0.0,0.0,0.0,0.0,0.0,0.0,0.0,0.0,0.0,0.0,0.0,0.0,0.0,0.0,0.0,0.0,0.0,0.0,0.0,0.0,0.0,0.0,0.0,0.0,0.0,0.0,0.0,0.0,0.0,0.0,0.0,0.0,0.0,0.0,0.0,0.0,0.0,0.0,0.0,0.0,0.0,0.0,0.0,0.0,0.0,0.0,0.0,0.0,0.0,0.0,0.0,0.0,0.0,0.0,0.0,0.0,0.0,0.0,0.0,0.0,0.0,0.0,0.0,0.0,0.0,0.0,0.0,0.0,0.0,0.0,0.0,0.0,0.0,0.0,0.0,0.0,0.0,0.0,0.0,0.0,0.0,0.0,0.0,0.0,0.0,0.0,0.0,0.0,0.0,0.0,0.0,0.0,0.0,0.0,0.0,0.0,0.0,0.0,0.0,0.0,0.0,0.0,0.0,0.0,0.0,0.0,0.0,0.0,0.0,0.0,0.0,0.0,0.0,0.0,0.0,0.0,0.0,0.0,0.0,0.0,0.0,0.0,0.0,0.0,0.0,0.0,0.0,0.0,0.0,0.0,0.0,0.0,0.0,0.0,0.0,0.0,0.0,0.0,0.0,0.0,0.0,0.0,0.0,0.0,0.0,0.0,0.0,0.0,0.0,0.0,0.0,0.0,0.0,0.0,0.0,0.0,0.0,0.0,0.0,0.0,0.0,0.0,0.0,0.0,0.0,0.0,0.0,0.0,0.0,0.0,0.0,0.0,0.0,0.0,0.0,0.0,0.0,0.0,0.0,0.0,0.0,0.0,0.0,0.0,0.0,0.0,0.0,0.0,0.0,0.0,0.0,0.0,0.0,0.0,0.0,0.0,0.0,0.0,0.0,0.0,0.0,0.0,0.0,0.0,0.0,0.0,0.0,0.0,0.0,0.0,0.0,0.0,0.0,0.0,0.0,0.0,0.0,0.0,0.0,0.0,0.0,0.0,0.0,0.0,0.0,0.0,0.0,0.0,0.0,0.0,0.0,0.0,0.0,0.8113,0.0,0.0,0.0,0.0,0.0,0.0,0.0,0.0,0.0,0.0,0.0,0.0,0.0,0.0,0.0,0.0,0.0,0.0,0.0,0.0,0.0,0.0,0.0,0.0,0.0,0.0,0.0,0.0,0.0,0.0,0.0,0.0,0.0,0.0,0.0,0.0,0.0,0.0,0.0,0.0,0.0,0.0,0.0,0.0,0.0,0.0,0.0,0.0,0.0,0.0,0.0,0.0,0.0,0.0,0.0,0.0,0.0,0.0,0.0,0.0,0.0,0.0,0.0,0.0,0.0,0.0,0.0,0.0,0.0,0.0,0.0,0.0,0.0,0.0,0.0,0.0,0.0,0.0,0.0,0.0,0.0,0.0,0.0,0.0,0.0,0.0,0.0,0.0,0.0,0.0,0.0,0.0,0.0,0.0,0.0,0.0,0.0,0.0,0.0,0.0,0.0,0.0,0.0,0.0,0.0,0.0,0.0,0.0,0.0,0.0,0.8937,0.8643,0.8469,0.8183,0.7796,0.0,0.0,0.0,0.0,0.0,0.0,0.0,0.0,0.0,0.0,0.0,0.0,0.0,0.0,0.0,0.0,0.0,0.0,0.0,0.0,0.0,0.0,0.0,0.0,0.0,0.0,0.0,0.0,0.0,0.0,0.0,0.0,0.0,0.0,0.0,0.0,0.0,0.0,0.0,0.0,0.0,0.0,0.0,0.0,0.0,0.0,0.0,0.0,0.0,0.0,0.0,0.0,0.0,0.0,0.0,0.0,0.0,0.0,0.0,0.0,0.0,0.0,0.0,0.0,0.0,0.0,0.0,0.0,0.0,0.0,0.0,0.0,0.0,0.0,0.0,0.0,0.0,0.0,0.0,0.0,0.0,0.0,0.0,0.0,0.0,0.0,0.0,0.0,0.0,0.0,0.0,0.0,0.0,0.0,0.0,0.0,0.0,0.0,0.0,0.0,0.0,0.0,0.0,0.0,0.0,0.0,0.0,0.0,0.0,0.0,0.0,0.0,0.8393,0.8302,0.7726,0.0,0.0,0.0,0.0,0.0,0.0,0.0,0.0,0.0,0.0,0.0,0.0,0.0,0.0,0.0,0.0,0.0,0.0,0.0,0.0,0.0,0.0,0.0,0.0,0.0,0.0,0.0,0.0,0.0,0.0,0.0,0.0,0.0,0.0,0.0,0.0,0.0,0.0,0.0,0.0,0.0,0.0,0.0,0.0,0.0,0.0,0.0,0.0,0.0,0.0,0.0,0.0,0.0,0.0,0.0,0.0,0.0,0.0,0.0,0.0,0.0,0.0,0.0,0.0,0.0,0.0,0.0,0.0,0.0,0.0,0.0,0.0,0.0,0.0,0.0,0.0,0.0,0.0,0.0,0.0,0.0,0.0,0.0,0.0,0.0,0.0,0.0,0.0,0.0,0.0,0.0,0.0,0.0,0.0,0.0,0.0,0.0,0.0,0.0,0.0,0.0,0.0,0.0,0.0,0.0,0.0,0.0,0.0,0.0,0.0,0.8563,0.8282,0.8304,0.0,0.845,0.0,0.0,0.0,0.0,0.0,0.0,0.0,0.0,0.0,0.0,0.0,0.0,0.0,0.0,0.0,0.0,0.0,0.0,0.0,0.0,0.0,0.0,0.0,0.0,0.0,0.0,0.0,0.0,0.0,0.0,0.0,0.0,0.0,0.0,0.0,0.0,0.0,0.0,0.0,0.0,0.0,0.0,0.0,0.0,0.0,0.0,0.0,0.0,0.0,0.0,0.0,0.0,0.0,0.0,0.0,0.0,0.0,0.0,0.0,0.0,0.0,0.0,0.0,0.0,0.0,0.0,0.0,0.0,0.0,0.0,0.0,0.0,0.0,0.0,0.0,0.0,0.0,0.0,0.0,0.0,0.0,0.0,0.0,0.0,0.0,0.0,0.0,0.0,0.0,0.0,0.0,0.0,0.0,0.0,0.0,0.0,0.0,0.0,0.0,0.0,0.0,0.0,0.0,0.0,0.0,0.0,0.0,0.0,0.0,0.0,0.7947,0.7818,0.7944,0.8153,0.0,0.0,0.0,0.0,0.0,0.0,0.0,0.0,0.0,0.0,0.0,0.0,0.0,0.0,0.0,0.0,0.0,0.0,0.0,0.0,0.0,0.0,0.0,0.0,0.0,0.0,0.0,0.0,0.0,0.0,0.0,0.0,0.0,0.0,0.0,0.0,0.0,0.0,0.0,0.0,0.0,0.0,0.0,0.0,0.0,0.0,0.0,0.0,0.0,0.0,0.0,0.0,0.0,0.0,0.0,0.0,0.0,0.0,0.0,0.0,0.0,0.0,0.0,0.0,0.0,0.0,0.0,0.0,0.0,0.0,0.0,0.0,0.0,0.0,0.0,0.0,0.0,0.0,0.0,0.0,0.0,0.0,0.0,0.0,0.0,0.0,0.0,0.0,0.0,0.0,0.0,0.0,0.0,0.0,0.0,0.0,0.0,0.0,0.0,0.0,0.0,0.0,0.0,0.0,0.0,0.0,0.0,0.0,0.0,0.0,0.751,0.751,0.7826,0.8189,0.8419,0.8517,0.0,0.0,0.0,0.0,0.0,0.0,0.0,0.0,0.0,0.0,0.0,0.0,0.0,0.0,0.0,0.0,0.0,0.0,0.0,0.0,0.0,0.0,0.0,0.0,0.0,0.0,0.0,0.0,0.0,0.0,0.0,0.0,0.0,0.0,0.0,0.0,0.0,0.0,0.0,0.0,0.0,0.0,0.0,0.0,0.0,0.0,0.0,0.0,0.0,0.0,0.0,0.0,0.0,0.0,0.0,0.0,0.0,0.0,0.0,0.0,0.0,0.0,0.0,0.0,0.0,0.0,0.0,0.0,0.0,0.0,0.0,0.0,0.0,0.0,0.0,0.0,0.0,0.0,0.0,0.0,0.0,0.0,0.0,0.0,0.0,0.0,0.0,0.0,0.0,0.0,0.0,0.0,0.0,0.0,0.0,0.0,0.0,0.0,0.0,0.0,0.0,0.0,0.0,0.0,0.0,0.0,0.0,0.0,0.7494,0.7185,0.7537,0.8623,0.9398,0.9433,0.0,0.0,0.0,0.0,0.0,0.0,0.0,0.0,0.0,0.0,0.0,0.0,0.0,0.0,0.0,0.0,0.0,0.0,0.0,0.0,0.0,0.0,0.0,0.0,0.0,0.0,0.0,0.0,0.0,0.0,0.0,0.0,0.0,0.0,0.0,0.0,0.0,0.0,0.0,0.0,0.0,0.0,0.0,0.0,0.0,0.0,0.0,0.0,0.0,0.0,0.0,0.0,0.0,0.0,0.0,0.0,0.0,0.0,0.0,0.0,0.0,0.0,0.0,0.0,0.0,0.0,0.0,0.0,0.0,0.0,0.0,0.0,0.0,0.0,0.0,0.0,0.0,0.0,0.0,0.0,0.0,0.0,0.0,0.0,0.0,0.0,0.0,0.0,0.0,0.0,0.0,0.0,0.0,0.0,0.0,0.0,0.0,0.0,0.0,0.0,0.0,0.0,0.0,0.0,0.0,0.0,0.0,0.0,0.0,0.669,0.6887,0.7704,0.9053,0.876,0.8705,0.0,0.0,0.0,0.0,0.0,0.0,0.0,0.0,0.0,0.0,0.0,0.0,0.0,0.0,0.0,0.0,0.0,0.0,0.0,0.0,0.0,0.0,0.0,0.0,0.0,0.0,0.0,0.0,0.0,0.0,0.0,0.0,0.0,0.0,0.0,0.0,0.0,0.0,0.0,0.0,0.0,0.0,0.0,0.0,0.0,0.0,0.0,0.0,0.0,0.0,0.0,0.0,0.0,0.0,0.0,0.0,0.0,0.0,0.0,0.0,0.0,0.0,0.0,0.0,0.0,0.0,0.0,0.0,0.0,0.0,0.0,0.0,0.0,0.0,0.0,0.0,0.0,0.0,0.0,0.0,0.0,0.0,0.0,0.0,0.0,0.0,0.0,0.0,0.0,0.0,0.0,0.0,0.0,0.0,0.0,0.0,0.0,0.0,0.0,0.0,0.0,0.0,0.0,0.0,0.0,0.0,0.0,0.0,0.0,0.6472,0.0,0.8086,0.9323,0.864,0.8544,0.0,0.0,0.0,0.0,0.0,0.0,0.0,0.0,0.0,0.0,0.0,0.0,0.0,0.0,0.0,0.0,0.0,0.0,0.0,0.0,0.0,0.0,0.0,0.0,0.0,0.0,0.0,0.0,0.0,0.0,0.0,0.0,0.0,0.0,0.0,0.0,0.0,0.0,0.0,0.0,0.0,0.0,0.0,0.0,0.0,0.0,0.0,0.0,0.0,0.0,0.0,0.0,0.0,0.0,0.0,0.0,0.0,0.0,0.0,0.0,0.0,0.0,0.0,0.0,0.0,0.0,0.0,0.0,0.0,0.0,0.0,0.0,0.0,0.0,0.0,0.0,0.0,0.0,0.0,0.0,0.0,0.0,0.0,0.0,0.0,0.0,0.0,0.0,0.0,0.0,0.0,0.0,0.0,0.0,0.0,0.0,0.0,0.0,0.0,0.0,0.0,0.0,0.0,0.0,0.0,0.0,0.0,0.0,0.6156,0.6969,0.7874,0.8716,0.9478,0.9237,0.9068,0.0,0.0,0.0,0.0,0.0,0.0,0.0,0.0,0.0,0.0,0.0,0.0,0.0,0.0,0.0,0.0,0.0,0.0,0.0,0.0,0.0,0.0,0.0,0.0,0.0,0.0,0.0,0.0,0.0,0.0,0.0,0.0,0.0,0.0,0.0,0.0,0.0,0.0,0.0,0.0,0.0,0.0,0.0,0.0,0.0,0.0,0.0,0.0,0.0,0.0,0.0,0.0,0.0,0.0,0.0,0.0,0.0,0.0,0.0,0.0,0.0,0.0,0.0,0.0,0.0,0.0,0.0,0.0,0.0,0.0,0.0,0.0,0.0,0.0,0.0,0.0,0.0,0.0,0.0,0.0,0.0,0.0,0.0,0.0,0.0,0.0,0.0,0.0,0.0,0.0,0.0,0.0,0.0,0.0,0.0,0.0,0.0,0.0,0.0,0.0,0.0,0.0,0.0,0.0,0.0,0.0,0.0,0.0,0.0,0.7017,0.7954,0.9005,1.0047,0.9643,0.9537,0.0,0.0,0.0,0.0,0.0,0.0,0.0,0.0,0.0,0.0,0.0,0.0,0.0,0.0,0.0,0.0,0.0,0.0,0.0,0.0,0.0,0.0,0.0,0.0,0.0,0.0,0.0,0.0,0.0,0.0,0.0,0.0,0.0,0.0,0.0,0.0,0.0,0.0,0.0,0.0,0.0,0.0,0.0,0.0,0.0,0.0,0.0,0.0,0.0,0.0,0.0,0.0,0.0,0.0,0.0,0.0,0.0,0.0,0.0,0.0,0.0,0.0,0.0,0.0,0.0,0.0,0.0,0.0,0.0,0.0,0.0,0.0,0.0,0.0,0.0,0.0,0.0,0.0,0.0,0.0,0.0,0.0,0.0,0.0,0.0,0.0,0.0,0.0,0.0,0.0,0.0,0.0,0.0,0.0,0.0,0.0,0.0,0.0,0.0,0.0,0.0,0.0,0.0,0.0,0.0,0.0,0.0,0.0,0.0,0.7856,0.8897,0.9843,1.0631,1.031,1.0178,1.0264,0.0,0.0,0.0,0.0,0.0,0.0,0.0,0.0,0.0,0.0,0.0,0.0,0.0,0.0,0.0,0.0,0.0,0.0,0.0,0.0,0.0,0.0,0.0,0.0,0.0,0.0,0.0,0.0,0.0,0.0,0.0,0.0,0.0,0.0,0.0,0.0,0.0,0.0,0.0,0.0,0.0,0.0,0.0,0.0,0.0,0.0,0.0,0.0,0.0,0.0,0.0,0.0,0.0,0.0,0.0,0.0,0.0,0.0,0.0,0.0,0.0,0.0,0.0,0.0,0.0,0.0,0.0,0.0,0.0,0.0,0.0,0.0,0.0,0.0,0.0,0.0,0.0,0.0,0.0,0.0,0.0,0.0,0.0,0.0,0.0,0.0,0.0,0.0,0.0,0.0,0.0,0.0,0.0,0.0,0.0,0.0,0.0,0.0,0.0,0.0,0.0,0.0,0.0,0.0,0.0,0.0,0.0,0.0,0.9277,1.0613,1.129,1.1223,1.1304,1.1049,0.0,0.0,0.0,0.0,0.0,0.0,0.0,0.0,0.0,0.0,0.0,0.0,0.0,0.0,0.0,0.0,0.0,0.0,0.0,0.0,0.0,0.0,0.0,0.0,0.0,0.0,0.0,0.0,0.0,0.0,0.0,0.0,0.0,0.0,0.0,0.0,0.0,0.0,0.0,0.0,0.0,0.0,0.0,0.0,0.0,0.0,0.0,0.0,0.0,0.0,0.0,0.0,0.0,0.0,0.0,0.0,0.0,0.0,0.0,0.0,0.0,0.0,0.0,0.0,0.0,0.0,0.0,0.0,0.0,0.0,0.0,0.0,0.0,0.0,0.0,0.0,0.0,0.0,0.0,0.0,0.0,0.0,0.0,0.0,0.0,0.0,0.0,0.0,0.0,0.0,0.0,0.0,0.0,0.0,0.0,0.0,0.0,0.0,0.0,0.0,0.0,0.0,0.0,0.0,0.0,0.0,0.0,0.0,0.0,1.0263,1.2623,1.3463,1.2552,1.2751,1.2709,0.0,0.0,0.0,0.0,0.0,0.0,0.0,0.0,0.0,0.0,0.0,0.0,0.0,0.0,0.0,0.0,0.0,0.0,0.0,0.0,0.0,0.0,0.0,0.0,0.0,0.0,0.0,0.0,0.0,0.0,0.0,0.0,0.0,0.0,0.0,0.0,0.0,0.0,0.0,0.0,0.0,0.0,0.0,0.0,0.0,0.0,0.0,0.0,0.0,0.0,0.0,0.0,0.0,0.0,0.0,0.0,0.0,0.0,0.0,0.0,0.0,0.0,0.0,0.0,0.0,0.0,0.0,0.0,0.0,0.0,0.0,0.0,0.0,0.0,0.0,0.0,0.0,0.0,0.0,0.0,0.0,0.0,0.0,0.0,0.0,0.0,0.0,0.0,0.0,0.0,0.0,0.0,0.0,0.0,0.0,0.0,0.0,0.0,0.0,0.0,0.0,0.0,0.0,0.0,0.0,0.0,0.0,0.0,0.9948,1.079,1.384,1.5103,1.4354,1.4514,1.4155,0.0,0.0,0.0,0.0,0.0,0.0,0.0,0.0,0.0,0.0,0.0,0.0,0.0,0.0,0.0,0.0,0.0,0.0,0.0,0.0,0.0,0.0,0.0,0.0,0.0,0.0,0.0,0.0,0.0,0.0,0.0,0.0,0.0,0.0,0.0,0.0,0.0,0.0,0.0,0.0,0.0,0.0,0.0,0.0,0.0,0.0,0.0,0.0,0.0,0.0,0.0,0.0,0.0,0.0,0.0,0.0,0.0,0.0,0.0,0.0,0.0,0.0,0.0,0.0,0.0,0.0,0.0,0.0,0.0,0.0,0.0,0.0,0.0,0.0,0.0,0.0,0.0,0.0,0.0,0.0,0.0,0.0,0.0,0.0,0.0,0.0,0.0,0.0,0.0,0.0,0.0,0.0,0.0,0.0,0.0,0.0,0.0,0.0,0.0,0.0,0.0,0.0,0.0,0.0,0.0,0.0,0.0,0.0,1.0838,1.1329,1.4535,1.6315,1.6398,1.6219,1.5436,0.0,0.0,0.0,0.0,0.0,0.0,0.0,0.0,0.0,0.0,0.0,0.0,0.0,0.0,0.0,0.0,0.0,0.0,0.0,0.0,0.0,0.0,0.0,0.0,0.0,0.0,0.0,0.0,0.0,0.0,0.0,0.0,0.0,0.0,0.0,0.0,0.0,0.0,0.0,0.0,0.0,0.0,0.0,0.0,0.0,0.0,0.0,0.0,0.0,0.0,0.0,0.0,0.0,0.0,0.0,0.0,0.0,0.0,0.0,0.0,0.0,0.0,0.0,0.0,0.0,0.0,0.0,0.0,0.0,0.0,0.0,0.0,0.0,0.0,0.0,0.0,0.0,0.0,0.0,0.0,0.0,0.0,0.0,0.0,0.0,0.0,0.0,0.0,0.0,0.0,0.0,0.0,0.0,0.0,0.0,0.0,0.0,0.0,0.0,0.0,0.0,0.0,0.0,0.0,0.0,0.0,0.0,0.0,1.1474,1.3267,1.5544,1.7104,1.7835,1.6717,1.6199,0.0,0.0,0.0,0.0,0.0,0.0,0.0,0.0,0.0,0.0,0.0,0.0,0.0,0.0,0.0,0.0,0.0,0.0,0.0,0.0,0.0,0.0,0.0,0.0,0.0,0.0,0.0,0.0,0.0,0.0,0.0,0.0,0.0,0.0,0.0,0.0,0.0,0.0,0.0,0.0,0.0,0.0,0.0,0.0,0.0,0.0,0.0,0.0,1.7153,0.0,0.0,0.0,0.0,0.0,0.0,0.0,0.0,0.0,0.0,0.0,0.0,0.0,0.0,0.0,0.0,0.0,0.0,0.0,0.0,0.0,0.0,0.0,0.0,0.0,0.0,0.0,0.0,0.0,0.0,0.0,0.0,0.0,0.0,0.0,0.0,0.0,0.0,0.0,0.0,0.0,0.0,0.0,0.0,0.0,0.0,0.0,0.0,0.0,0.0,0.0,0.0,0.0,0.0,0.0,0.0,0.0,0.0,0.0,1.1772,1.339,1.5798,1.7335,1.7778,1.7268,1.6893,0.0,0.0,0.0,0.0,0.0,0.0,0.0,0.0,0.0,0.0,0.0,0.0,0.0,0.0,0.0,0.0,0.0,0.0,0.0,0.0,0.0,0.0,0.0,0.0,0.0,0.0,0.0,0.0,0.0,0.0,0.0,0.0,0.0,0.0,0.0,0.0,0.0,0.0,0.0,0.0,0.0,0.0,0.0,0.0,0.0,0.0,0.0,0.0,0.0,0.0,0.0,0.0,0.0,0.0,0.0,0.0,0.0,0.0,0.0,0.0,0.0,0.0,0.0,0.0,0.0,0.0,0.0,0.0,0.0,0.0,0.0,0.0,0.0,0.0,0.0,0.0,0.0,0.0,0.0,0.0,0.0,0.0,0.0,0.0,0.0,0.0,0.0,0.0,0.0,0.0,0.0,0.0,0.0,0.0,0.0,0.0,0.0,0.0,0.0,0.0,0.0,0.0,0.0,0.0,0.0,0.0,0.0,1.0692,1.2028,1.346,1.5959,1.7464,1.7773,1.7933,1.7506,1.6436,0.0,0.0,0.0,0.0,0.0,0.0,0.0,0.0,0.0,0.0,0.0,0.0,0.0,0.0,0.0,0.0,0.0,0.0,0.0,0.0,0.0,0.0,0.0,0.0,0.0,0.0,0.0,0.0,0.0,0.0,0.0,0.0,0.0,0.0,0.0,0.0,0.0,0.0,1.507,1.7241,0.0,0.0,0.0,0.0,0.0,0.0,0.0,0.0,1.8594,0.0,0.0,0.0,0.0,0.0,0.0,0.0,0.0,0.0,0.0,0.0,0.0,0.0,0.0,0.0,0.0,0.0,0.0,0.0,0.0,0.0,0.0,0.0,0.0,0.0,0.0,0.0,0.0,0.0,0.0,0.0,0.0,0.0,0.0,0.0,0.0,0.0,0.0,0.0,0.0,0.0,0.0,0.0,0.0,0.0,0.0,0.0,0.0,0.0,0.0,0.0,0.0,0.0,0.0,0.0,0.0,1.0345,1.0838,1.274,1.6154,1.6918,1.8189,1.9914,1.8718,1.7817,1.7302,0.0,0.0,0.0,0.0,0.0,0.0,0.0,0.0,0.0,0.0,0.0,0.0,0.0,0.0,0.0,0.0,0.0,0.0,0.0,0.0,0.0,0.0,0.0,0.0,0.0,0.0,0.0,0.0,0.0,0.0,0.0,0.0,0.0,0.0,0.0,0.0,0.0,0.0,0.0,1.757,1.8687,0.0,0.0,0.0,0.0,0.0,0.0,0.0,0.0,1.9606,0.0,0.0,0.0,0.0,0.0,0.0,0.0,0.0,0.0,0.0,0.0,0.0,0.0,0.0,0.0,0.0,0.0,0.0,0.0,0.0,0.0,0.0,0.0,0.0,0.0,0.0,0.0,0.0,0.0,0.0,0.0,0.0,0.0,0.0,0.0,0.0,0.0,0.0,0.0,0.0,0.0,0.0,0.0,0.0,0.0,0.0,0.0,0.0,0.0,0.0,0.0,0.0,0.0,0.0,0.0,1.0551,1.1856,1.3729,1.6209,1.7525,1.8689,1.9699,1.8416,1.7678,0.0,0.0,0.0,0.0,0.0,0.0,0.0,0.0,0.0,0.0,0.0,0.0,0.0,0.0,0.0,0.0,0.0,0.0,0.0,0.0,0.0,0.0,0.0,0.0,0.0,0.0,0.0,0.0,0.0,0.0,0.0,0.0,0.0,0.0,0.0,0.0,0.0,0.0,0.0,0.0,1.8248,1.9273,2.1499,0.0,0.0,0.0,0.0,0.0,0.0,2.033,2.0432,0.0,0.0,0.0,0.0,0.0,0.0,0.0,0.0,0.0,0.0,0.0,0.0,0.0,0.0,0.0,0.0,0.0,0.0,0.0,0.0,0.0,0.0,0.0,0.0,0.0,0.0,0.0,0.0,0.0,0.0,0.0,0.0,0.0,0.0,0.0,0.0,0.0,0.0,0.0,0.0,0.0,0.0,0.0,0.0,0.0,0.0,0.0,0.0,0.0,0.0,0.0,0.0,0.0,0.0,0.0,1.062,1.2504,1.4332,1.5998,1.7738,1.8877,1.9277,1.798,1.741,0.0,0.0,0.0,0.0,0.0,0.0,0.0,0.0,0.0,0.0,0.0,0.0,0.0,0.0,0.0,0.0,0.0,0.0,0.0,0.0,0.0,0.0,0.0,0.0,0.0,0.0,0.0,0.0,0.0,0.0,0.0,0.0,0.0,0.0,0.0,0.0,0.0,0.0,0.0,0.0,0.0,2.0124,2.2318,2.1001,0.0,0.0,0.0,0.0,2.0552,2.1436,0.0,0.0,0.0,0.0,0.0,0.0,0.0,0.0,0.0,0.0,0.0,0.0,0.0,0.0,0.0,0.0,0.0,0.0,0.0,0.0,0.0,0.0,0.0,0.0,0.0,0.0,0.0,0.0,0.0,0.0,0.0,0.0,0.0,0.0,0.0,0.0,0.0,0.0,0.0,0.0,0.0,0.0,0.0,0.0,0.0,0.0,0.0,0.0,0.0,0.0,0.0,0.0,0.0,0.0,0.0,0.0,1.0575,1.1611,1.3743,1.6932,1.7362,1.843,2.0314,1.8047,1.7081,0.0,0.0,0.0,0.0,0.0,0.0,0.0,0.0,0.0,0.0,0.0,0.0,0.0,0.0,0.0,0.0,0.0,0.0,0.0,0.0,0.0,0.0,0.0,0.0,0.0,0.0,0.0,0.0,0.0,0.0,0.0,0.0,0.0,0.0,0.0,0.0,0.0,0.0,0.0,0.0,0.0,2.076,2.1706,2.096,2.0603,0.0,0.0,2.2643,2.3071,2.4426,0.0,0.0,0.0,0.0,0.0,0.0,0.0,0.0,0.0,0.0,0.0,0.0,0.0,0.0,0.0,0.0,0.0,0.0,0.0,0.0,0.0,0.0,0.0,0.0,0.0,0.0,0.0,0.0,0.0,0.0,0.0,0.0,0.0,0.0,0.0,0.0,0.0,0.0,0.0,0.0,0.0,0.0,0.0,0.0,0.0,0.0,0.0,0.0,0.0,0.0,0.0,0.0,0.0,0.0,0.0,0.9621,1.0647,1.3139,1.5382,1.7244,1.8521,1.9638,2.0557,1.7866,1.6512,0.0,0.0,0.0,0.0,0.0,0.0,0.0,0.0,0.0,0.0,0.0,0.0,0.0,0.0,0.0,0.0,0.0,0.0,0.0,0.0,0.0,0.0,0.0,0.0,0.0,0.0,0.0,0.0,0.0,0.0,0.0,0.0,0.0,0.0,0.0,0.0,0.0,0.0,0.0,0.0,0.0,0.0,2.1659,2.1606,0.0,0.0,0.0,2.3739,2.3606,0.0,0.0,0.0,0.0,0.0,0.0,0.0,0.0,0.0,0.0,0.0,0.0,0.0,0.0,0.0,0.0,0.0,0.0,0.0,0.0,0.0,0.0,0.0,0.0,0.0,0.0,0.0,0.0,0.0,0.0,0.0,0.0,0.0,0.0,0.0,0.0,0.0,0.0,0.0,0.0,0.0,0.0,0.0,0.0,0.0,0.0,0.0,0.0,0.0,0.0,0.0,0.0,0.0,0.0,0.0,0.0,0.0,1.1153,1.4322,1.6572,1.7713,1.9362,2.0323,2.0566,1.7983,0.0,0.0,0.0,0.0,0.0,0.0,0.0,0.0,0.0,0.0,0.0,0.0,0.0,0.0,0.0,0.0,0.0,0.0,0.0,0.0,0.0,0.0,0.0,0.0,0.0,0.0,0.0,0.8402,0.0,0.0,0.0,0.0,0.0,0.0,0.0,0.0,0.0,0.0,0.0,0.0,0.0,0.0,2.1397,2.2214,2.2579,2.3313,0.0,0.0,2.4987,2.4642,2.6764,2.7547,0.0,0.0,0.0,0.0,0.0,0.0,0.0,0.0,0.0,0.0,0.0,0.0,0.0,0.0,0.0,0.0,0.0,0.0,0.0,0.0,0.0,0.0,0.0,0.0,0.0,0.0,0.0,0.0,0.0,0.0,0.0,0.0,0.0,0.0,0.0,0.0,0.0,0.0,0.0,0.0,0.0,0.0,0.0,0.0,0.0,0.0,0.0,0.0,0.0,0.0,0.0,0.0,0.0,0.0,1.0289,1.2428,1.4081,1.623,1.8762,1.9026,1.9608,2.0537,1.8818,1.7331,0.0,0.0,0.0,0.0,0.0,0.0,0.0,0.0,0.0,0.0,0.0,0.0,0.0,0.0,0.0,0.0,0.0,0.0,0.0,0.0,0.0,0.0,0.0,0.0,0.0,0.0,0.0,0.0,0.0,0.0,0.0,0.0,0.0,0.0,0.0,0.0,0.0,0.0,0.0,0.0,0.0,2.2577,2.3612,2.3885,2.4783,0.0,2.6847,2.6633,2.7148,2.9399,2.9904,2.6251,0.0,0.0,0.0,0.0,0.0,0.0,0.0,0.0,0.0,0.0,0.0,0.0,0.0,0.0,0.0,0.0,0.0,0.0,0.0,0.0,0.0,0.0,0.0,0.0,0.0,0.0,0.0,0.0,0.0,0.0,0.0,0.0,0.0,0.0,0.0,0.0,0.0,0.0,0.0,0.0,0.0,0.0,0.0,0.0,0.0,0.0,0.0,0.0,0.0,0.0,0.0,0.0,0.0,1.0705,1.2603,1.4922,1.703,1.893,1.9638,2.0187,2.0605,1.8916,1.7412,0.0,0.0,0.0,0.0,0.0,0.0,0.0,0.0,0.0,0.0,0.0,0.0,0.0,0.0,0.0,0.0,0.0,0.0,0.0,0.0,0.0,0.0,0.0,0.0,0.0,0.0,0.0,0.0,1.0469,1.0975,1.1682,0.0,0.0,0.0,0.0,0.0,0.0,0.0,0.0,0.0,0.0,2.2882,2.4468,2.502,0.0,0.0,2.7919,2.7874,2.798,2.9098,2.9004,2.6125,2.5495,0.0,0.0,0.0,0.0,0.0,0.0,0.0,0.0,0.0,0.0,0.0,0.0,0.0,0.0,0.0,0.0,0.0,0.0,0.0,0.0,0.0,0.0,0.0,0.0,0.0,0.0,0.0,0.0,0.0,0.0,0.0,0.0,0.0,0.0,0.0,0.0,0.0,0.0,0.0,0.0,0.0,0.0,0.0,0.0,0.0,0.0,0.0,0.0,0.0,0.0,0.0,0.0,1.1372,1.3219,1.5971,1.8046,1.9452,2.0226,2.0596,2.0576,1.9277,1.791,0.0,0.0,0.0,0.0,0.0,0.0,0.0,0.0,0.0,0.0,0.0,0.0,0.0,0.0,0.0,0.0,0.0,0.0,0.0,0.0,0.0,0.0,0.0,0.0,0.0,0.0,0.0,0.0,1.1014,1.1328,1.1662,0.0,0.0,0.0,0.0,0.0,0.0,0.0,0.0,0.0,0.0,2.359,2.5058,2.5505,2.6272,2.7859,2.7866,2.7783,2.8032,2.8688,2.856,2.6689,0.0,0.0,0.0,0.0,0.0,0.0,0.0,0.0,0.0,0.0,0.0,0.0,0.0,0.0,0.0,0.0,0.0,0.0,0.0,0.0,0.0,0.0,0.0,0.0,0.0,0.0,0.0,0.7006,0.0,0.0,0.7013,0.0,0.0,0.0,0.0,0.0,0.0,0.0,0.0,0.0,0.0,0.0,0.0,0.0,0.0,0.0,0.0,0.0,0.0,0.0,0.0,0.0,0.0,1.2408,1.4638,1.7151,1.9131,2.0489,2.0586,2.0596,2.0595,2.0107,1.9072,1.7389,0.0,0.0,0.0,0.0,0.0,0.0,0.0,0.0,0.0,0.0,0.0,0.0,0.0,0.0,0.0,0.0,0.0,0.0,0.0,0.0,0.0,0.0,0.0,0.0,0.0,0.0,1.0371,1.1243,1.1802,0.0,0.0,0.0,0.0,0.0,0.0,0.0,0.0,0.0,2.0503,2.3025,2.488,2.5338,2.5203,2.5715,2.7439,2.662,2.6176,2.7419,2.8573,2.9108,0.0,0.0,0.0,0.0,0.0,0.0,0.0,0.0,0.0,0.0,0.0,0.0,0.0,0.0,0.0,0.0,0.0,0.0,0.0,0.0,0.0,0.0,0.0,0.0,0.0,0.0,0.0,0.8884,0.8791,0.0,0.0,0.0,0.0,0.0,0.0,0.0,0.0,0.0,0.0,0.0,1.2176,1.2585,0.0,0.0,0.0,0.0,0.0,0.0,0.0,0.0,0.0,0.0,0.0,0.0,1.3441,1.4765,1.741,1.94,2.0566,2.0596,2.0596,2.0595,2.0146,1.8957,1.7002,0.0,0.0,0.0,0.0,0.0,0.0,0.0,0.0,0.0,0.0,0.0,0.0,0.0,0.0,0.0,0.0,0.0,0.0,0.0,0.0,0.0,0.0,0.0,0.0,0.0,1.0839,0.0,0.0,0.0,0.0,0.0,0.0,0.0,0.0,0.0,0.0,1.9836,2.1079,2.2157,2.2784,2.385,2.5795,2.5992,2.6948,0.0,0.0,0.0,0.0,0.0,0.0,0.0,0.0,0.0,0.0,0.0,0.0,0.0,0.0,3.1865,2.6259,2.8448,3.0731,2.9236,0.0,0.0,0.0,0.0,0.0,0.0,0.0,0.0,0.0,0.0,0.0,0.0,0.0,0.0,1.0174,1.0002,0.9878,0.0,0.0,0.0,0.0,0.0,0.0,0.0,0.0,1.1343,1.2713,1.4295,1.4088,1.5212,1.7333,1.6483,1.4703,0.0,0.0,0.0,0.0,0.0,0.0,0.0,0.0,1.4631,1.558,1.8164,1.995,2.0742,2.0664,2.0596,2.0595,2.0137,1.9171,1.764,1.6079,1.4863,0.0,0.0,0.0,0.0,0.0,0.0,0.0,0.0,0.0,0.0,0.0,0.0,0.0,0.0,0.0,0.0,0.0,0.0,0.0,0.0,0.0,0.0,0.0,1.126,0.0,0.0,0.0,0.0,0.0,0.0,0.0,0.0,0.0,2.031,2.1707,2.2897,2.3584,2.3901,2.453,2.5806,0.0,0.0,0.0,0.0,0.0,0.0,0.0,2.8725,2.8932,2.9926,3.0954,3.1911,3.4083,3.5504,3.4962,0.0,0.0,3.0894,3.1907,3.4088,3.5476,3.5156,3.472,3.5041,3.61,3.697,0.0,0.0,0.0,0.0,1.0741,0.0,0.0,0.0,1.1471,1.1317,0.0,1.1038,0.0,0.0,0.0,0.0,0.9396,1.0759,0.0,0.0,1.3794,1.5175,1.5524,1.5429,1.6421,1.8315,1.824,1.7811,1.7075,1.5198,0.0,0.0,0.0,0.0,0.0,0.0,1.5941,1.7065,1.9409,2.082,2.1201,2.084,2.0605,2.0605,2.0146,1.9717,1.9296,1.8076,1.7028,1.6144,1.4158,0.0,0.0,0.0,0.0,0.0,0.0,0.0,0.0,0.0,0.0,0.0,0.0,0.0,0.0,0.0,0.0,0.0,0.0,0.0,0.0,1.1615,0.0,0.0,0.0,0.0,0.0,0.0,0.0,0.0,0.0,2.1587,2.1775,2.3464,2.4791,2.4791,0.0,0.0,0.0,0.0,2.6692,2.6132,2.5902,2.5977,2.6078,2.9253,3.1971,3.2769,0.0,0.0,3.8147,3.8024,3.7657,3.6186,3.8401,3.9307,3.6455,3.4476,3.5597,4.228,4.0295,3.7825,3.8702,3.97,4.0217,1.8741,0.0,0.0,0.0,0.0,1.4339,1.4724,1.4775,1.4656,1.4548,1.4325,1.3306,0.0,0.0,0.0,0.0,0.0,0.0,1.2361,1.3,1.3935,1.5203,1.6717,1.6907,1.8209,2.0372,2.0111,2.0301,2.0841,1.9716,1.7309,1.3756,0.0,0.0,0.0,0.0,1.7461,1.8034,2.0312,2.1572,2.171,2.1249,2.0889,2.0596,2.0146,1.9844,1.9708,1.9092,1.8203,1.7093,1.6123,0.0,0.0,0.0,0.0,0.0,0.0,0.0,0.0,0.0,0.0,0.0,0.0,0.0,0.0,0.0,0.0,0.0,0.0,0.0,1.1991,1.203,1.2488,0.0,0.0,0.0,0.0,0.0,0.0,0.0,0.0,0.0,2.5523,2.4782,2.4365,0.0,0.0,2.4157,2.5273,2.6507,2.8249,3.0861,3.124,0.0,3.2512,3.2769,3.3092,3.3845,3.6875,3.9225,3.9417,4.0768,4.1681,4.1195,4.232,4.2987,4.2176,4.0415,4.0579,4.4063,4.4003,4.3344,4.3983,4.4703,4.5518,2.1956,1.9818,1.8527,1.7003,1.5698,1.6854,1.689,1.6145,1.6527,1.6525,1.619,1.4885,1.3858,1.3089,1.2165,0.0,0.0,0.0,1.3487,1.4334,1.4763,1.5899,1.7518,1.7932,1.9293,2.1423,2.1302,2.1726,2.2744,2.1687,1.9627,1.6592,0.0,1.5855,1.5375,1.76,1.8962,1.9497,2.1079,2.1963,2.2129,2.1523,2.1084,2.084,2.04,2.0166,2.0166,1.9766,1.9198,1.8426,1.7474,1.6108,0.0,0.0,0.0,0.0,0.0,0.0,0.0,0.0,0.0,0.0,0.0,1.0722,0.9123,0.0,0.0,0.0,1.2031,1.2754,1.3203,1.3534,0.0,0.0,0.0,0.0,0.0,0.0,0.0,2.2463,2.4921,2.6929,2.7783,2.659,2.5925,2.6673,2.5912,2.5697,2.6808,0.0,3.0284,3.2547,3.3223,3.3784,3.4592,3.4912,3.5697,3.7662,3.9347,4.0837,4.1751,4.3017,4.3842,4.3927,4.4279,4.4682,4.4906,4.376,4.3467,4.5726,4.7001,4.764,4.7639,4.8224,4.9045,2.4498,2.4238,2.1193,1.8958,1.7634,1.9209,1.8541,1.6472,1.7728,1.7903,1.7172,1.6137,1.547,1.5048,1.3406,0.0,1.386,1.4168,1.473,1.5518,1.6083,1.6974,1.815,1.8628,1.991,2.1872,2.207,2.2535,2.3137,2.199,2.1191,2.0742,1.9921,1.9209,1.8685,1.9454,2.0332,2.1181,2.164,2.2111,2.2469,2.1718,2.1279,2.121,2.083,2.0635,2.0595,2.0176,1.9951,1.9844,1.8389,1.7151,1.6193,0.0,0.0,0.0,0.0,0.0,0.0,0.0,0.0,0.0,0.0,0.0,0.0,0.0,0.0,1.3516,1.407,0.0,1.5014,1.5883,0.0,0.0,0.0,2.0158,2.2344,2.4037,2.5217,2.5721,0.0,0.0,2.9032,2.8656,2.8787,2.9905,2.9829,2.9599,2.9441,3.1185,3.2524,3.2602,3.3369,3.4023,3.4563,3.6253,3.8764,4.193,4.3216,4.3322,4.4201,4.4584,4.4651,4.4685,4.475,4.4969,4.551,4.5003,4.5136,4.6861,4.9057,5.0488,4.9793,5.012,5.0633,2.5372,2.5323,2.4522,2.3047,2.1412,2.2672,2.2386,2.1056,2.1324,2.1383,2.1078,1.8875,1.733,1.6248,1.5859,1.5772,1.5955,1.6046,1.6192,1.64,1.654,1.7305,1.8585,1.9652,2.0936,2.2398,2.3386,2.3924,2.4069,2.3486,2.2793,2.2051,2.1523,2.0381,1.8705,1.9464,2.0323,2.119,2.166,2.209,2.2469,2.2293,2.1874,2.122,2.1113,2.0908,2.0615,2.0498,2.0254,1.9903,1.9219,1.8318,1.7151,1.5234,0.0,0.0,0.0,0.0,0.0,0.0,0.0,0.0,0.0,1.3118,1.0645,0.0,1.4209,0.0,1.5848,1.7342,1.7255,1.8478,0.0,0.0,2.2032,2.3229,2.631,2.7413,2.7946,2.807,2.9219,3.0199,3.0746,3.0683,3.1042,3.2097,3.0112,2.9136,3.0872,3.2481,3.4129,3.5705,3.7002,3.7985,3.7898,3.8505,3.9726,4.1933,4.2316,4.2815,4.4324,4.5091,4.5432,4.5466,4.592,4.6281,4.6422,4.5473,4.5667,4.783,4.9698,5.0759,5.0545,5.071,5.0986,2.5708,2.5708,2.5708,2.503,2.4031,2.4716,2.3828,2.2051,2.2652,2.28,2.2463,2.0433,1.8813,1.7577,1.695,1.6707,1.6707,1.6707,1.6707,1.6732,1.7449,1.8207,1.8997,2.1031,2.2274,2.2819,2.4102,2.4609,2.4391,2.418,2.3806,2.3359,2.3135,2.2227,2.0703,2.0381,2.0459,2.0908,2.1562,2.2178,2.2732,2.2607,2.1991,2.0977,2.0742,2.0244,1.9481,1.9452,1.9219,1.8799,1.8389,1.7744,1.6842,1.5356,1.4088,0.0,0.0,0.0,0.0,0.0,0.0,0.0,0.0,0.0,0.0,0.0,1.582,1.5547,1.7674,1.9308,1.9892,2.1247,2.2999,2.5266,2.5789,2.7,2.9645,3.0186,3.0462,3.0758,3.1323,3.1825,3.2123,3.216,3.2374,3.3014,3.1507,3.0807,3.219,3.3767,3.5368,3.6683,3.8296,3.9406,3.9406,3.9406,3.9968,4.1485,4.1869,4.2541,4.4562,4.5295,4.5701,4.6123,4.6515,4.672,4.6473,4.6226,4.6494,4.7893,4.9859,5.1129,5.1338,5.161,5.2021,2.582,2.5771,2.5806,2.5742,2.5708,2.5708,2.4198,2.1863,2.308,2.3286,2.2654,2.1314,2.0037,1.8751,1.7403,1.682,1.6814,1.682,1.6814,1.6903,1.8502,1.9361,1.9638,2.2396,2.3561,2.3405,2.4579,2.4984,2.4567,2.4531,2.442,2.4336,2.4287,2.3838,2.3022,2.1514,2.0732,2.0703,2.1534,2.2305,2.2927,2.2519,2.166,2.0478,2.0029,1.924,1.8069,1.8049,1.792,1.7575,1.7161,1.681,1.6496,1.5239,1.4381,0.0,1.323,0.0,0.0,0.0,0.0,0.0,0.0,0.0,0.0,1.7513,1.8027,1.8371,1.9691,2.1075,2.2438,2.3933,2.5854,2.8333,2.9518,3.0735,3.2273,3.252,3.2729,3.3253,3.3303,3.3316,3.3316,3.3294,3.3282,3.3266,3.3194,3.3108,3.3351,3.4845,3.6172,3.6355,3.8092,3.9388,3.9421,3.9496,4.0064,4.1357,4.1839,4.2664,4.4981,4.548,4.5864,4.6713,4.7073,4.6993,4.6469,4.7138,4.7656,4.7869,4.9942,5.1721,5.1984,5.2538,5.3177,2.6582,2.6279,2.6269,2.604,2.5708,2.5708,2.5382,2.4872,2.5135,2.4581,2.3417,2.2078,2.0714,1.9364,1.8026,1.7415,1.7415,1.7415,1.7415,1.7467,1.8871,2.0138,2.1299,2.2916,2.4233,2.5159,2.5484,2.5552,2.543,2.5117,2.4613,2.3939,2.3587,2.3,2.2179,0.0,0.0,0.0,2.1963,2.2293,2.21,2.1338,2.0508,1.9589,1.9462,0.0,1.8069,1.8322,1.8451,1.8364,1.8286,0.0,0.0,0.0,0.0,0.0,0.0,0.0,0.0,0.0,0.0,0.0,1.8506,1.8293,1.8276,1.962,2.0498,2.0644,2.2585,2.3781,2.3582,2.6119,2.8228,2.9293,3.0755,3.2329,3.3983,3.4214,3.4276,3.4387,3.4412,3.4377,3.4339,3.4389,3.4201,3.3847,3.4101,3.4198,3.3796,3.5195,3.6495,3.7401,3.8708,3.94,3.9406,3.987,4.051,4.1489,4.2187,4.3216,4.4935,4.5895,4.6577,4.747,4.8174,4.8528,4.8397,4.8604,4.8654,4.8727,5.0364,5.186,5.2063,5.2682,5.3196,2.6894,2.6699,2.6699,2.6547,0.0,2.6342,2.6342,2.6313,2.5869,2.5308,2.4609,2.3285,2.229,2.1558,2.0205,1.9612,1.9646,1.962,1.9638,1.9697,2.0998,2.2013,2.2726,2.4072,2.5035,2.5684,2.5708,2.5708,2.5674,2.5508,2.5176,2.4723,2.4541,2.4209,2.3799,2.3779,2.323,2.2136,2.2576,2.2801,2.2803,2.2414,2.1573,2.0293,2.0235,0.0,0.0,0.0,0.0,0.0,0.0,0.0,0.0,0.0,0.0,1.8301,1.8115,1.8184,1.8594,1.9033,1.9815,2.1094,2.1777,2.171,2.0615,2.1913,2.3118,2.3963,2.5142,2.6422,2.7794,2.9387,3.0796,3.1983,3.2862,3.3757,3.4527,3.4703,3.4703,3.4703,3.4703,3.4703,3.4703,3.4703,3.4603,3.4352,3.4502,3.4615,3.4515,3.5905,3.7606,3.926,3.9753,4.0136,4.033,4.0409,4.0913,4.1817,4.2327,4.3207,4.4824,4.5799,4.6649,4.758,4.8421,4.8986,4.9018,4.9018,4.9009,4.9159,5.0317,5.142,5.1647,5.2452,5.3185,2.7197,2.7129,2.7139,2.7064,2.7012,2.7012,2.7012,2.6937,2.6235,0.0,0.0,2.4516,2.3924,2.3849,2.2528,2.1917,2.1917,2.1917,2.1859,2.1877,2.3173,2.378,2.3766,2.5069,2.5708,2.5708,2.5708,2.5708,2.5708,2.5708,2.5708,2.5708,2.5708,2.5708,2.5708,2.5708,2.4982,2.3617,2.3325,2.3367,2.3684,2.3557,2.2754,2.122,2.1142,2.0557,1.9453,1.9404,1.9238,1.8851,1.8978,1.9095,1.9163,1.9241,1.9493,1.995,2.0058,2.0429,2.1104,2.1553,2.2254,2.3364,2.4531,2.4551,2.3066,2.3994,2.5328,2.7026,2.7174,2.8466,3.1574,3.2116,3.2846,3.4367,3.4705,3.4879,3.4979,3.4979,3.5054,3.5014,3.5042,3.5027,3.5042,3.5077,3.4941,3.4879,3.4979,3.5115,3.5471,3.6839,3.8696,4.0676,4.0826,4.0822,4.1208,4.1181,4.1352,4.2175,4.2479,4.3104,4.4473,4.5579,4.6506,4.744,4.8353,4.8892,4.9018,4.9018,4.9018,4.9001,4.999,5.0938,5.1176,5.2113,5.2988,2.79,2.7604,2.7604,2.7363,2.7012,2.7012,2.7012,2.6976,2.6859,2.6811,2.6725,2.5416,2.4805,2.4753,2.3355,2.2724,2.2716,2.2716,2.2558,2.2293,2.3594,2.4032,2.3766,2.5069,2.5708,2.5708,2.5708,2.5708,2.5708,2.5708,2.5708,2.5708,2.5708,2.5708,2.5708,2.5708,2.5567,2.5304,2.4268,2.3555,2.3274,2.256,2.1875,2.1249,2.0898,2.041,1.9835,1.9844,1.9776,1.9737,2.042,2.1015,2.1436,2.1748,2.2137,2.2557,2.2949,2.3213,2.3342,2.3708,2.4209,2.4779,2.5322,2.5347,2.4818,2.5225,2.6259,2.7971,2.8243,2.8969,3.0934,3.2207,3.318,3.3883,3.4789,3.5569,3.6017,3.6116,3.608,3.608,3.6155,3.6117,3.6055,3.608,3.5868,3.5594,3.5717,3.643,3.7218,3.7858,3.8995,4.0761,4.0994,4.0945,4.1436,4.1667,4.1976,4.2331,4.2836,4.3429,4.4479,4.5468,4.6349,4.7356,4.8225,4.8862,4.8989,4.9018,4.9018,4.9048,4.9693,5.038,5.0968,5.1813,5.2502,2.8184,2.8044,2.8034,2.7917,2.7715,2.7705,2.7715,2.7715,2.7705,2.7441,2.697,2.6343,2.6076,2.6015,2.5411,2.5116,2.5116,2.5116,2.5025,2.4904,2.5493,2.5663,2.5579,2.6141,2.6293,2.6103,2.6069,2.5942,2.5713,2.5708,2.5708,2.5708,2.5708,2.5708,2.5708,2.5708,2.5708,2.5698,2.5123,2.4639,2.4232,2.3831,2.342,2.2947,2.2744,2.2559,2.2342,2.2332,2.2332,2.2363,2.2723,2.3035,2.3242,2.3437,2.361,2.3796,2.4023,2.4131,2.4131,2.4732,2.5298,2.5776,2.6182,2.6323,2.6143,2.6751,2.789,2.9595,3.0359,3.156,3.3231,3.3984,3.453,3.513,3.5664,3.6094,3.6355,3.6417,3.6417,3.6417,3.6417,3.6417,3.6417,3.6417,3.6318,3.6044,3.6268,3.6849,3.7939,3.8691,3.9634,4.1162,4.1829,4.2176,4.2378,4.2572,4.2766,4.288,4.3135,4.3477,4.4004,4.4784,4.5543,4.6081,4.7239,4.8343,4.8868,4.9002,4.9006,4.9078,4.9534,5.0227,5.0968,5.1922,5.2758,2.8301,2.8301,2.8301,2.8301,2.8301,2.8301,2.8301,2.8301,2.8291,2.792,2.7353,2.7305,2.7279,2.7305,2.7295,2.7279,2.7295,2.7279,2.723,2.7168,2.7158,2.7109,2.7021,2.7012,2.6836,2.6562,2.6523,2.6357,2.603,2.6001,2.5927,2.5854,2.5767,2.5708,2.5708,2.5708,2.5708,2.5708,2.5708,2.5542,2.5234,2.5239,2.5049,2.4723,2.4576,2.4537,2.456,2.4449,2.4424,2.4424,2.4479,2.457,2.4547,2.4635,2.4693,2.4684,2.4693,2.4742,2.4893,2.5562,2.6147,2.6504,2.6836,2.7025,2.7237,2.8411,2.9664,3.0987,3.2204,3.3702,3.5233,3.566,3.5906,3.6355,3.6417,3.6392,3.6405,3.6417,3.6417,3.6417,3.6417,3.6417,3.6417,3.6417,3.6405,3.6392,3.6417,3.6873,3.7962,3.9139,4.0296,4.1435,4.2569,4.3155,4.3305,4.326,4.326,4.3305,4.329,4.3329,4.3532,4.4147,4.474,4.5113,4.6205,4.7636,4.8663,4.8772,4.8771,4.8923,4.9389,5.0004,5.0942,5.2,5.2948,2.8301,2.8301,2.8301,2.8301,2.8301,2.8301,2.8301,2.8301,2.8301,2.8288,2.8125,2.82,2.8154,2.8174,2.8144,2.8135,2.8135,2.8174,2.7985,2.7663,2.7633,2.7428,2.7054,2.7041,2.6992,2.6937,2.6937,2.6889,2.6801,2.6846,2.6689,2.6328,2.5913,2.5713,2.5728,2.5728,2.5728,2.5693,2.5708,2.5664,2.5659,2.565,2.563,2.5591,2.5215,2.5033,2.5024,2.4639,2.4424,2.4443,2.4814,2.5043,2.5072,2.5391,2.5601,2.5601,2.5591,2.5767,2.6172,2.6631,2.6879,2.6953,2.7012,2.7217,2.7715,2.9934,3.1417,3.1841,3.2859,3.4471,3.6053,3.6281,3.6293,3.638,3.6417,3.6417,3.6417,3.6417,3.6417,3.6417,3.6417,3.6417,3.6417,3.6417,3.6417,3.6417,3.6417,3.6826,3.7939,3.8983,4.0224,4.1399,4.2534,4.3155,4.327,4.3305,4.3305,4.3305,4.3305,4.3305,4.3492,4.4028,4.4774,4.4624,4.5649,4.7007,4.7784,4.8398,4.8178,4.8845,4.9228,4.9551,5.0756,5.1734,5.2411,2.8301,2.8301,2.8301,2.8301,2.8301,2.8301,2.8301,2.8301,2.8301,2.8301,2.8301,2.8301,2.8301,2.8301,2.8301,2.8301,2.8301,2.8301,2.8203,2.8073,2.8064,2.7939,2.7793,2.7764,2.7656,2.7412,2.7428,2.7256,2.7051,2.7012,2.6908,2.6768,2.6547,2.6469,2.6459,2.6469,2.6469,2.6469,2.6469,2.6469,2.6401,2.5971,2.5708,2.5689,2.5532,2.5459,2.5449,2.5249,2.5171,2.5201,2.5615,2.5874,2.585,2.626,2.6479,2.6469,2.6459,2.6537,2.6748,2.7158,2.7428,2.7428,2.7627,2.7861,2.814,3.0521,3.204,3.2313,3.4005,3.5659,3.6285,3.6417,3.6417,3.6417,3.6417,3.6417,3.6417,3.6417,3.6417,3.6417,3.6417,3.6417,3.6417,3.6417,3.6417,3.6417,3.6417,3.6837,3.7903,3.8523,3.9574,4.1169,4.2029,4.2569,4.3115,4.3305,4.3305,4.3305,4.3305,4.3305,4.3389,4.3566,4.3907,4.3927,4.5177,4.5725,4.536,4.7588,4.8609,4.9049,4.9419,4.9824,5.0348,5.1325,5.2124,2.8301,2.8301,2.8301,2.8301,2.8301,2.8301,2.8301,2.8301,2.8301,2.8301,2.8301,2.8301,2.8301,2.8301,2.8301,2.8301,2.8301,2.8301,2.8301,2.8301,2.8301,2.8291,2.8301,2.8291,2.8135,2.7907,2.7858,2.7702,2.7373,2.7226,2.7187,2.7178,2.708,2.7012,2.7012,2.7012,2.7012,2.7002,2.7012,2.7012,2.6924,2.6381,2.601,2.5913,2.6001,2.602,2.5893,2.6001,2.6069,2.6044,2.6396,2.6562,2.6572,2.6855,2.7012,2.7021,2.7129,2.7197,2.7207,2.7598,2.7858,2.7888,2.8135,2.8301,2.8681,3.0421,3.1836,3.2445,3.4472,3.5846,3.6381,3.6417,3.6417,3.6417,3.6417,3.6417,3.6417,3.6417,3.6417,3.6417,3.6417,3.6417,3.6417,3.6417,3.6417,3.6417,3.6428,3.679,3.7779,3.8198,3.897,4.114,4.1587,4.2091,4.3056,4.3305,4.3305,4.3305,4.3305,4.3305,4.3305,4.3324,4.3324,4.3752,4.4992,4.5758,4.5626,4.7243,4.8949,4.9249,4.9562,5.0053,5.0807,5.1344,5.1872,2.8301,2.8301,2.8301,2.8301,2.8301,2.8301,2.8301,2.8301,2.8301,2.8301,2.8301,2.8301,2.8301,2.8301,2.8301,2.8301,2.8301,2.8301,2.8301,2.8301,2.8301,2.8301,2.8301,2.8301,2.8281,2.8213,2.8203,2.8193,2.8154,2.7848,2.7663,2.7653,2.7285,2.7051,2.708,2.71,2.7031,2.7109,2.7109,2.706,2.7051,2.6992,2.6768,2.6475,2.6728,2.6728,2.6455,2.6738,2.6908,2.6908,2.6937,2.6957,2.6992,2.7006,2.707,2.7074,2.7422,2.7663,2.7712,2.8008,2.8232,2.8242,2.8262,2.8301,2.8371,2.9686,3.1045,3.2216,3.3748,3.5102,3.6216,3.6417,3.6417,3.6417,3.6417,3.6417,3.6417,3.6417,3.6417,3.6417,3.6417,3.6455,3.6443,3.6417,3.6419,3.6419,3.643,3.6826,3.7756,3.8085,3.9023,4.076,4.1629,4.1953,4.3016,4.3305,4.3305,4.3305,4.3305,4.3305,4.3305,4.3305,4.3305,4.3507,4.4453,4.5287,4.6002,4.7085,4.8478,4.9091,4.9307,4.9875,5.1088,5.0613,5.121,2.8301,2.8301,2.8301,2.8301,2.8301,2.8301,2.8301,2.8301,2.8301,2.8301,2.8301,2.8301,2.8301,2.8301,2.8301,2.8301,2.8301,2.8301,2.8301,2.8301,2.8301,2.8301,2.8301,2.8301,2.8301,2.8301,2.8301,2.8301,2.8291,2.8161,2.8093,2.8057,2.792,2.7842,2.7832,2.7832,2.7822,2.7832,2.7832,2.7842,2.7812,2.7832,2.7637,2.7252,2.707,2.6943,2.6797,2.6943,2.7012,2.7021,2.7275,2.7448,2.7477,2.7685,2.7832,2.7851,2.8005,2.8093,2.8086,2.8203,2.8301,2.8301,2.8301,2.8301,2.8495,2.9529,3.0865,3.218,3.3575,3.4945,3.6037,3.6417,3.6417,3.6417,3.6417,3.6417,3.6417,3.6417,3.6417,3.6417,3.6417,3.6507,3.6733,3.6607,3.6532,3.6808,3.6607,3.6958,3.7645,3.753,3.8147,4.0561,4.1042,4.1162,4.3115,4.3305,4.3305,4.3305,4.3305,4.3305,4.3305,4.3305,4.3305,4.3533,4.4235,4.519,4.6122,4.7523,4.8768,4.9593,4.9746,5.011,5.1329,5.1135,5.1725,2.8301,2.8301,2.8301,2.8301,2.8301,2.8301,2.8301,2.8301,2.8301,2.8301,2.8301,2.8301,2.8301,2.8301,2.8301,2.8301,2.8301,2.8301,2.8301,2.8301,2.8301,2.8301,2.8301,2.8301,2.8301,2.8301,2.8301,2.8301,2.8301,2.8301,2.8301,2.8291,2.8301,2.8301,2.8301,2.8301,2.8301,2.8301,2.8301,2.8291,2.8301,2.8301,2.8164,2.7907,2.7578,2.7353,2.722,2.7344,2.7432,2.7471,2.7741,2.7897,2.7927,2.8171,2.8301,2.8301,2.8291,2.8301,2.8301,2.8301,2.8301,2.8301,2.8301,2.8301,2.8361,2.9128,3.024,3.1505,3.2443,3.37,3.5271,3.5751,3.5918,3.6263,3.6417,3.6417,3.6417,3.6417,3.6417,3.6419,3.6582,3.6833,3.7072,3.6859,3.6871,3.7149,3.6733,3.6843,3.7438,3.7339,3.7593,4.0316,4.0576,4.1148,4.2602,4.3305,4.3424,4.3439,4.3469,4.3424,4.3454,4.3409,4.3529,4.3733,4.4319,4.5313,4.6538,4.7999,4.9111,5.0088,5.027,5.0401,5.1251,5.1852,5.2383,2.8301,2.8301,2.8301,2.8301,2.8301,2.8301,2.8301,2.8301,2.8301,2.8301,2.8301,2.8301,2.8301,2.8301,2.8301,2.8301,2.8301,2.8301,2.8301,2.8301,2.8301,2.8301,2.8301,2.8301,2.8301,2.8301,2.8301,2.8301,2.8301,2.8301,2.8301,2.8301,2.8301,2.8301,2.8301,2.8301,2.8301,2.8301,2.8301,2.8301,2.8301,2.8301,2.8281,2.8252,2.8213,2.8054,2.7712,2.8044,2.8184,2.8203,2.8232,2.8281,2.8242,2.8281,2.8301,2.8301,2.8301,2.8301,2.8301,2.8301,2.8301,2.8301,2.8301,2.8301,2.8318,2.8415,2.9049,3.0292,3.0706,3.1567,3.3822,3.4374,3.4945,3.6156,3.6417,3.6417,3.6417,3.6417,3.6417,3.6468,3.6746,3.7148,3.721,3.7148,3.7185,3.7273,3.6959,3.6793,3.7374,3.7331,3.8015,3.9422,4.0253,4.096,4.2203,4.3351,4.3479,4.3604,4.3663,4.3713,4.3833,4.3863,4.4072,4.4268,4.3976,4.4948,4.7143,4.851,4.9411,5.0221,5.0356,5.0879,5.1888,5.2645,5.2734,2.8301,2.8301,2.8301,2.8301,2.8301,2.8301,2.8301,2.8301,2.8301,2.8301,2.8301,2.8301,2.8301,2.8301,2.8301,2.8301,2.8301,2.8301,2.8301,2.8301,2.8301,2.8301,2.8301,2.8301,2.8301,2.8301,2.8301,2.8301,2.8301,2.8301,2.8301,2.8301,2.8301,2.8301,2.8301,2.8301,2.8301,2.8301,2.8301,2.8301,2.8301,2.8301,2.8301,2.8301,2.8291,2.8249,2.8142,2.8259,2.8291,2.8301,2.8301,2.8301,2.8301,2.8301,2.8301,2.8301,2.8301,2.8301,2.8301,2.8301,2.8301,2.8301,2.8301,2.8301,2.8301,2.8301,2.8873,3.0042,3.0317,3.1133,3.2493,3.2944,3.3995,3.6168,3.6417,3.637,3.6417,3.6417,3.6417,3.6417,3.6568,3.6947,3.745,3.7475,3.7474,3.8039,3.7738,3.7475,3.7663,3.7688,3.8264,3.9548,4.0077,4.0777,4.2062,4.3264,4.3822,4.4092,4.4223,4.4231,4.4326,4.4407,4.4616,4.4936,4.4584,4.5362,4.7513,4.891,4.9862,5.041,5.073,5.1693,5.2993,5.3381,5.3289,2.8301,2.8301,2.8301,2.8301,2.8301,2.8301,2.8301,2.8301,2.8301,2.8301,2.8301,2.8301,2.8301,2.8301,2.8301,2.8301,2.8301,2.8301,2.8301,2.8301,2.8301,2.8301,2.8301,2.8301,2.8301,2.8301,2.8301,2.8301,2.8301,2.8301,2.8301,2.8301,2.8301,2.8301,2.8301,2.8301,2.8301,2.8301,2.8301,2.8301,2.8301,2.8301,2.8301,2.8301,2.8301,2.8301,2.8301,2.8301,2.8301,2.8301,2.8301,2.8301,2.8301,2.8301,2.8301,2.8301,2.8301,2.8301,2.8301,2.8301,2.8301,2.8301,2.8301,2.8301,2.8301,2.8301,2.8777,2.9355,2.9539,3.0317,3.1887,3.2306,3.3565,3.6108,3.5894,3.5942,3.6216,3.6417,3.6417,3.6455,3.6582,3.7034,3.7374,3.7487,3.7462,3.8065,3.7751,3.7676,3.7814,3.7977,3.8707,3.9435,4.007,4.0935,4.2003,4.3067,4.4044,4.4524,4.4884,4.492,4.4975,4.4996,4.5142,4.6216,4.6332,4.6952,4.8831,4.9591,5.0424,5.0748,5.1238,5.2183,5.3196,5.3433,5.333,2.8301,2.8301,2.8301,2.8301,2.8301,2.8301,2.8301,2.8301,2.8301,2.8301,2.8301,2.8301,2.8301,2.8301,2.8301,2.8301,2.8301,2.8301,2.8301,2.8301,2.8301,2.8301,2.8301,2.8301,2.8301,2.8301,2.8301,2.8301,2.8301,2.8301,2.8301,2.8301,2.8301,2.8301,2.8301,2.8301,2.8301,2.8301,2.8301,2.8301,2.8301,2.8301,2.8301,2.8301,2.8301,2.8301,2.8301,2.8301,2.8301,2.8301,2.8301,2.8301,2.8301,2.8301,2.8301,2.8301,2.8301,2.8301,2.8301,2.8301,2.8301,2.8301,2.8301,2.8301,2.8301,2.8291,2.8468,2.883,2.8804,2.9697,3.1709,3.228,3.3565,3.5523,3.5463,3.5475,3.6216,3.6417,3.6417,3.6493,3.6821,3.7185,3.7224,3.7235,3.7298,3.7349,3.711,3.7362,3.7877,3.8329,3.8668,3.9283,3.9997,4.0732,4.1683,4.3004,4.4012,4.4916,4.5429,4.58,4.5768,4.5774,4.6391,4.7424,4.8126,4.888,4.984,5.0843,5.125,5.149,5.2047,5.2689,5.3078,5.3382,5.3061,2.8301,2.8301,2.8301,2.8301,2.8301,2.8301,2.8301,2.8301,2.8301,2.8301,2.8301,2.8301,2.8301,2.8301,2.8301,2.8301,2.8301,2.8301,2.8301,2.8301,2.8301,2.8301,2.8301,2.8301,2.8301,2.8301,2.8301,2.8301,2.8301,2.8301,2.8301,2.8301,2.8301,2.8301,2.8301,2.8301,2.8301,2.8301,2.8301,2.8301,2.8301,2.8301,2.8301,2.8301,2.8301,2.8301,2.8301,2.8301,2.8301,2.8301,2.8301,2.8301,2.8301,2.8301,2.8301,2.8301,2.8301,2.8301,2.8301,2.8301,2.8301,2.8301,2.8301,2.8301,2.8301,2.8291,2.8767,2.9434,2.9807,3.0447,3.1927,3.2406,3.3342,3.4593,3.5427,3.5918,3.6263,3.6417,3.6417,3.6443,3.6568,3.6783,3.706,3.7185,3.7274,3.7513,3.7538,3.7638,3.814,3.8467,3.8705,3.9258,3.9906,4.0499,4.1391,4.277,4.4017,4.5166,4.5984,4.6804,4.6785,4.6756,4.7865,4.9166,4.9393,4.9964,5.1469,5.2783,5.2701,5.2301,5.2435,5.2841,5.3196,5.345,5.2706,2.8301,2.8301,2.8301,2.8301,2.8301,2.8301,2.8301,2.8301,2.8301,2.8301,2.8301,2.8301,2.8301,2.8301,2.8301,2.8301,2.8301,2.8301,2.8301,2.8301,2.8301,2.8301,2.8301,2.8301,2.8301,2.8301,2.8301,2.8301,2.8301,2.8301,2.8301,2.8301,2.8301,2.8301,2.8301,2.8301,2.8301,2.8301,2.8301,2.8301,2.8301,2.8301,2.8301,2.8301,2.8301,2.8301,2.8301,2.8301,2.8301,2.8301,2.8301,2.8301,2.8301,2.8301,2.8301,2.8301,2.8301,2.8301,2.8301,2.8301,2.8301,2.8301,2.8301,2.8301,2.8451,2.8751,2.9608,3.011,3.0747,3.1785,3.2944,3.3639,3.435,3.5271,3.5966,3.6417,3.6417,3.6417,3.6417,3.6417,3.643,3.6482,3.6846,3.6871,3.7022,3.7161,3.716,3.7625,3.8203,3.8442,3.8743,3.922,3.9559,4.0071,4.0587,4.1759,4.3403,4.4654,4.6337,4.7229,4.7309,4.7381,4.847,4.9568,5.0278,5.1243,5.2565,5.3496,5.3312,5.2976,5.2908,5.2942,5.3331,5.3365,5.257,2.8301,2.8301,2.8301,2.8301,2.8301,2.8301,2.8301,2.8301,2.8301,2.8301,2.8301,2.8301,2.8301,2.8301,2.8301,2.8301,2.8301,2.8301,2.8301,2.8301,2.8301,2.8301,2.8301,2.8301,2.8301,2.8301,2.8301,2.8301,2.8301,2.8301,2.8301,2.8301,2.8301,2.8301,2.8301,2.8301,2.8301,2.8301,2.8301,2.8301,2.8301,2.8301,2.8301,2.8301,2.8301,2.8301,2.8301,2.8301,2.8301,2.8301,2.8301,2.8301,2.8301,2.8301,2.8301,2.8301,2.8301,2.8301,2.8301,2.8301,2.8301,2.8301,2.8301,2.8415,2.8688,2.9329,3.0042,3.1184,3.1749,3.2844,3.4386,3.5631,3.6013,3.6192,3.637,3.6394,3.6417,3.6417,3.6417,3.6417,3.6417,3.6417,3.6417,3.6417,3.6455,3.6771,3.6796,3.7185,3.7763,3.809,3.8479,3.8944,3.9271,3.9496,4.0058,4.0659,4.2398,4.4032,4.6137,4.7287,4.7309,4.7624,4.8584,4.9523,5.0476,5.1649,5.3008,5.35,5.35,5.3467,5.3213,5.3315,5.3467,5.3264,5.2689,2.8301,2.8301,2.8301,2.8301,2.8301,2.8301,2.8301,2.8301,2.8301,2.8301,2.8301,2.8301,2.8301,2.8301,2.8301,2.8301,2.8301,2.8301,2.8301,2.8301,2.8301,2.8301,2.8301,2.8301,2.8301,2.8301,2.8301,2.8301,2.8301,2.8301,2.8301,2.8301,2.8301,2.8301,2.8301,2.8301,2.8301,2.8301,2.8301,2.8301,2.8301,2.8301,2.8301,2.8301,2.8301,2.8301,2.8301,2.8301,2.8301,2.8301,2.8301,2.8301,2.8301,2.8301,2.8301,2.8301,2.8301,2.8301,2.8301,2.8301,2.8301,2.8301,2.8478,2.8751,2.9713,2.9286,3.0602,3.2328,3.2894,3.3639,3.5463,3.6156,3.6444,3.6493,3.648,3.648,3.6443,3.643,3.6417,3.6417,3.6417,3.6417,3.6417,3.6417,3.6417,3.6417,3.6543,3.672,3.721,3.7739,3.8215,3.8693,3.9283,3.9573,3.9855,4.0696,4.245,4.3985,4.5891,4.7287,4.7287,4.7488,4.8324,4.9508,5.082,5.2034,5.3157,5.3484,5.3501,5.3501,5.345,5.3315,5.3196,5.3044,5.2503,2.8301,2.8301,2.8301,2.8301,2.8301,2.8301,2.8301,2.8301,2.8301,2.8301,2.8301,2.8301,2.8301,2.8301,2.8301,2.8301,2.8301,2.8301,2.8301,2.8301,2.8301,2.8301,2.8301,2.8301,2.8301,2.8301,2.8301,2.8301,2.8301,2.8301,2.8301,2.8301,2.8301,2.8301,2.8301,2.8301,2.8301,2.8301,2.8301,2.8301,2.8301,2.8301,2.8301,2.8301,2.8301,2.8301,2.8301,2.8301,2.8301,2.8301,2.8301,2.8301,2.8301,2.8301,2.8301,2.8301,2.8301,2.8301,2.8301,2.8301,2.8301,2.8318,2.883,2.9539,3.0499,3.0602,3.2025,3.3786,3.441,3.4969,3.6228,3.6695,3.6733,3.6771,3.6771,3.6871,3.7009,3.6733,3.6417,3.6417,3.6417,3.6417,3.6417,3.6417,3.6417,3.6417,3.6394,3.662,3.716,3.7651,3.7977,3.8529,3.9258,3.97,3.9855,4.092,4.279,4.4279,4.5824,4.6873,4.7309,4.7538,4.7849,4.9118,5.0393,5.1836,5.2847,5.3155,5.3416,5.3382,5.3264,5.3078,5.2672,5.2063,5.1488,2.8301,2.8301,2.8301,2.8301,2.8301,2.8301,2.8301,2.8301,2.8301,2.8301,2.8301,2.8301,2.8301,2.8301,2.8301,2.8301,2.8301,2.8301,2.8301,2.8301,2.8301,2.8301,2.8301,2.8301,2.8301,2.8301,2.8301,2.8301,2.8301,2.8301,2.8301,2.8301,2.8301,2.8301,2.8301,2.8301,2.8301,2.8301,2.8301,2.8301,2.8301,2.8301,2.8301,2.8301,2.8301,2.8301,2.8301,2.8301,2.8301,2.8301,2.8301,2.8301,2.8301,2.8301,2.8301,2.8301,2.8301,2.8301,2.8301,2.8301,2.8291,2.8335,2.9181,3.0052,3.0734,3.1874,3.3185,3.4516,3.5357,3.6284,3.6557,3.7009,3.7286,3.7336,3.7336,3.75,3.76,3.7097,3.6821,3.6581,3.6505,3.6417,3.6417,3.6417,3.6417,3.6417,3.6394,3.6532,3.706,3.7487,3.7789,3.8078,3.873,3.9258,3.9436,4.1287,4.3159,4.3952,4.5457,4.6372,4.695,4.6815,4.7068,4.8497,4.984,5.1175,5.2306,5.2856,5.3057,5.3129,5.2943,5.2588,5.1911,5.1065,5.0625,2.8301,2.8301,2.8301,2.8301,2.8301,2.8301,2.8301,2.8301,2.8301,2.8301,2.8301,2.8301,2.8301,2.8301,2.8301,2.8301,2.8301,2.8301,2.8301,2.8301,2.8301,2.8301,2.8301,2.8301,2.8301,2.8301,2.8301,2.8301,2.8301,2.8301,2.8301,2.8301,2.8301,2.8301,2.8301,2.8301,2.8301,2.8301,2.8301,2.8301,2.8301,2.8301,2.8301,2.8301,2.8301,2.8301,2.8301,2.8301,2.8301,2.8301,2.8301,2.8301,2.8301,2.8301,2.8301,2.8301,2.8301,2.8301,2.8301,2.8301,2.8301,2.8344,2.8791,2.9684,3.058,3.1357,3.3132,3.4883,3.626,3.7097,3.7097,3.7538,3.7814,3.7864,3.7852,3.7826,3.7637,3.7587,3.745,3.7135,3.6771,3.6417,3.6417,3.6417,3.6417,3.6417,3.6417,3.6394,3.6645,3.7122,3.7524,3.7789,3.8115,3.8567,3.8919,4.1373,4.3357,4.3421,4.4538,4.577,4.6112,4.5723,4.6241,4.7528,4.8798,5.0059,5.1126,5.2043,5.223,5.195,5.1965,5.203,5.1336,5.0642,5.0439,2.8301,2.8301,2.8301,2.8301,2.8301,2.8301,2.8301,2.8301,2.8301,2.8301,2.8301,2.8301,2.8301,2.8301,2.8301,2.8301,2.8301,2.8301,2.8301,2.8301,2.8301,2.8301,2.8301,2.8301,2.8301,2.8301,2.8301,2.8301,2.8301,2.8301,2.8301,2.8301,2.8301,2.8301,2.8301,2.8301,2.8301,2.8301,2.8301,2.8301,2.8301,2.8301,2.8301,2.8301,2.8301,2.8301,2.8301,2.8301,2.8301,2.8301,2.8301,2.8301,2.8301,2.8301,2.8301,2.8301,2.8301,2.8301,2.8301,2.8301,2.8301,2.8417,2.9036,3.0452,3.1864,3.3001,3.403,3.5969,3.727,3.7939,3.7676,3.814,3.8429,3.8479,3.8479,3.8479,3.8467,3.8467,3.8102,3.765,3.721,3.6796,3.6417,3.6417,3.6417,3.6417,3.6417,3.6417,3.6417,3.6771,3.7248,3.7487,3.7751,3.8103,3.884,4.1045,4.2715,4.2927,4.3874,4.5128,4.5454,4.5155,4.5473,4.6369,4.7628,4.8534,4.9466,5.0218,5.0465,5.081,5.0958,5.097,5.0662,5.0321,4.9987,2.8301,2.8301,2.8301,2.8301,2.8301,2.8301,2.8301,2.8301,2.8301,2.8301,2.8301,2.8301,2.8301,2.8301,2.8301,2.8301,2.8301,2.8301,2.8301,2.8301,2.8301,2.8301,2.8301,2.8301,2.8301,2.8301,2.8301,2.8301,2.8301,2.8301,2.8301,2.8301,2.8301,2.8301,2.8301,2.8301,2.8301,2.8301,2.8301,2.8301,2.8301,2.8301,2.8301,2.8301,2.8301,2.8301,2.8301,2.8301,2.8301,2.8301,2.8301,2.8301,2.8301,2.8301,2.8301,2.8301,2.8301,2.8301,2.8301,2.8301,2.834,2.8503,3.0046,3.1518,3.3003,3.437,3.6321,3.778,3.8479,3.8642,3.8341,3.8693,3.8994,3.9057,3.9082,3.912,3.9158,3.9007,3.8479,3.8039,3.7588,3.7073,3.657,3.6417,3.6417,3.6417,3.6417,3.6417,3.6443,3.6607,3.6972,3.7173,3.7449,3.7788,3.8788,4.0584,4.1681,4.1812,4.33,4.4918,4.491,4.4691,4.5104,4.5357,4.5445,4.6329,4.736,4.8434,4.902,4.9485,4.9875,4.9998,4.9822,4.9425,4.8997,2.8301,2.8301,2.8301,2.8301,2.8301,2.8301,2.8301,2.8301,2.8301,2.8301,2.8301,2.8301,2.8301,2.8301,2.8301,2.8301,2.8301,2.8301,2.8301,2.8301,2.8301,2.8301,2.8301,2.8301,2.8301,2.8301,2.8301,2.8301,2.8301,2.8301,2.8301,2.8301,2.8301,2.8301,2.8301,2.8301,2.8301,2.8301,2.8301,2.8301,2.8301,2.8301,2.8301,2.8301,2.8301,2.8301,2.8301,2.8301,2.8301,2.8301,2.8301,2.8301,2.8301,2.8301,2.8301,2.8301,2.8301,2.8301,2.8301,2.835,2.8486,2.8955,3.0287,3.1424,3.339,3.5386,3.7225,3.7867,3.8592,3.8906,3.8906,3.9283,3.9534,3.956,3.9484,3.9308,3.9245,3.9434,3.8906,3.8178,3.7663,3.7122,3.657,3.6493,3.6417,3.6417,3.6417,3.6417,3.6443,3.6582,3.6645,3.6846,3.7034,3.7349,3.8201,4.0057,4.0886,4.0931,4.2797,4.4549,4.4296,4.4102,4.4087,4.4273,4.4292,4.444,4.5442,4.6514,4.7501,4.8124,4.8424,4.8794,4.91,4.8644,4.8192,2.8301,2.8301,2.8301,2.8301,2.8301,2.8301,2.8301,2.8301,2.8301,2.8301,2.8301,2.8301,2.8301,2.8301,2.8301,2.8301,2.8301,2.8301,2.8301,2.8301,2.8301,2.8301,2.8301,2.8301,2.8301,2.8301,2.8301,2.8301,2.8301,2.8301,2.8301,2.8301,2.8301,2.8301,2.8301,2.8301,2.8301,2.8301,2.8301,2.8301,2.8301,2.8301,2.8301,2.8301,2.8301,2.8301,2.8301,2.8301,2.8301,2.8301,2.8301,2.8301,2.8301,2.8301,2.8301,2.831,2.8545,2.8535,2.8359,2.8525,2.8777,2.9387,3.0816,3.2884,3.4947,3.6991,3.8425,3.893,3.9182,3.9333,3.9333,3.9546,3.9634,3.9697,3.9697,3.9597,3.9434,3.9497,3.9296,3.8492,3.7751,3.7286,3.6821,3.6582,3.6507,3.6505,3.6468,3.6417,3.6417,3.6468,3.6493,3.6505,3.6658,3.6871,3.7839,3.9183,4.0263,4.0848,4.2729,4.3953,4.3638,4.3469,4.3589,4.3604,4.3703,4.3847,4.4034,4.458,4.5587,4.6298,4.6938,4.7417,4.7902,4.8194,4.7982,2.8301,2.8301,2.8301,2.8301,2.8301,2.8301,2.8301,2.8301,2.8301,2.8301,2.8301,2.8301,2.8301,2.8301,2.8301,2.8301,2.8301,2.8301,2.8301,2.8301,2.8301,2.8301,2.8301,2.8301,2.8301,2.8301,2.8301,2.8301,2.8301,2.8301,2.8301,2.8301,2.8301,2.8301,2.8301,2.8301,2.8301,2.8301,2.8301,2.8301,2.8301,2.8301,2.8301,2.8301,2.8301,2.8301,2.8301,2.8301,2.8301,2.8301,2.8301,2.8301,2.8301,2.8301,2.8301,2.8369,2.8623,2.875,2.8691,2.8846,2.9254,3.0406,3.2266,3.5104,3.7404,3.9167,3.9685,3.9546,3.9597,3.9647,3.9697,3.9685,3.9685,3.9697,3.9697,3.9697,3.9697,3.9659,3.9459,3.8768,3.8102,3.7675,3.7223,3.6808,3.6645,3.6595,3.6519,3.6455,3.643,3.6455,3.6417,3.6417,3.6493,3.6631,3.7234,3.8267,3.9307,4.0668,4.2542,4.3519,4.3339,4.3285,4.3379,4.3349,4.3305,4.3414,4.3677,4.3634,4.3673,4.4536,4.5378,4.615,4.6678,4.7155,4.7868,2.8301,2.8301,2.8301,2.8301,2.8301,2.8301,2.8301,2.8301,2.8301,2.8301,2.8301,2.8301,2.8301,2.8301,2.8301,2.8301,2.8301,2.8301,2.8301,2.8301,2.8301,2.8301,2.8301,2.8301,2.8301,2.8301,2.8301,2.8301,2.8301,2.8301,2.8301,2.8301,2.8301,2.8301,2.8301,2.8301,2.8301,2.8301,2.8301,2.8301,2.8301,2.8301,2.8301,2.8301,2.8301,2.8301,2.8301,2.8301,2.8301,2.8301,2.8301,2.8301,2.8301,2.8301,2.8301,2.8379,2.8769,2.8926,2.8984,2.9626,3.0633,3.2496,3.4791,3.7136,3.8948,3.9413,3.9697,3.9697,3.9697,3.9697,3.9697,3.9697,3.9697,3.9697,3.9697,3.9697,3.9697,3.9697,3.9421,3.8906,3.8441,3.8027,3.7676,3.7287,3.7149,3.7111,3.6746,3.6645,3.6543,3.6531,3.6443,3.6417,3.6417,3.6502,3.6572,3.7579,3.8961,4.028,4.1861,4.2798,4.3215,4.323,4.3305,4.3305,4.3305,4.3305,4.3309,4.3395,4.3436,4.3381,4.3884,4.4895,4.6067,4.6918,4.7737,2.8301,2.8301,2.8301,2.8301,2.8301,2.8301,2.8301,2.8301,2.8301,2.8301,2.8301,2.8301,2.8301,2.8301,2.8301,2.8301,2.8301,2.8301,2.8301,2.8301,2.8301,2.8301,2.8301,2.8301,2.8301,2.8301,2.8301,2.8301,2.8301,2.8301,2.8301,2.8301,2.831,2.8301,2.8301,2.8301,2.8301,2.8301,2.8301,2.8301,2.8301,2.8301,2.8301,2.8301,2.8301,2.8301,2.8301,2.8301,2.8301,2.832,2.834,2.8369,2.8379,2.8379,2.8369,2.8511,2.9047,2.9423,2.9763,3.0719,3.256,3.5091,3.6855,3.8137,3.9555,3.9697,3.9697,3.9697,3.9697,3.9697,3.9697,3.9697,3.9697,3.9697,3.9697,3.9697,3.9697,3.9697,3.9534,3.9082,3.8768,3.8441,3.8115,3.7801,3.7739,3.7651,3.7211,3.6833,3.6694,3.6568,3.6468,3.6417,3.6417,3.6417,3.6499,3.7541,3.8789,4.002,4.1288,4.2263,4.311,4.325,4.3305,4.3305,4.3305,4.3305,4.3305,4.3305,4.3308,4.3318,4.3503,4.3971,4.5196,4.6555,4.744,2.8301,2.8301,2.8301,2.8301,2.8301,2.8301,2.8301,2.8301,2.8301,2.8301,2.8301,2.8301,2.8301,2.8301,2.8301,2.8301,2.8301,2.8301,2.8301,2.8301,2.8301,2.8301,2.8301,2.8301,2.8301,2.8301,2.8301,2.8301,2.8301,2.8301,2.8398,2.8437,2.8359,2.831,2.8301,2.8301,2.8301,2.8301,2.8301,2.8301,2.8301,2.8301,2.8301,2.8301,2.8301,2.8418,2.8476,2.8555,2.8643,2.8701,2.874,2.8738,2.8718,2.8699,2.8699,2.9043,2.9661,3.034,3.0916,3.2332,3.4487,3.6667,3.7904,3.8752,3.9388,3.9697,3.9697,3.9697,3.9697,3.9697,3.9697,3.9697,3.9697,3.9697,3.9697,3.9697,3.9697,3.9685,3.9547,3.9283,3.9007,3.8743,3.8756,3.8404,3.7839,3.7801,3.7626,3.7122,3.6656,3.6531,3.6443,3.6417,3.6417,3.6417,3.6476,3.7782,3.8983,3.9832,4.1099,4.2304,4.3016,4.319,4.3305,4.3305,4.3305,4.3305,4.3305,4.3305,4.3305,4.3314,4.3488,4.3669,4.474,4.6064,4.6951,2.8301,2.8301,2.8301,2.8301,2.8301,2.8301,2.8301,2.8301,2.8301,2.8301,2.8301,2.8301,2.8301,2.8301,2.8301,2.8301,2.8301,2.8301,2.8301,2.8301,2.8301,2.8301,2.8301,2.8301,2.8301,2.8301,2.8301,2.8301,2.8301,2.8301,2.8486,2.8557,2.8428,2.8301,2.8301,2.8301,2.8301,2.8301,2.8301,2.8301,2.8301,2.8301,2.8301,2.8301,2.8389,2.8555,2.8684,2.8887,2.9023,2.9266,2.9334,2.9344,2.9364,2.9383,2.9393,2.9499,3.1173,3.2107,3.2562,3.4268,3.5989,3.7559,3.8725,3.9413,3.9645,3.9697,3.9697,3.9697,3.9697,3.9697,3.9697,3.9697,3.9697,3.9697,3.9697,3.9697,3.9697,3.9697,3.9546,3.9421,3.9183,3.9007,3.917,3.9019,3.814,3.7839,3.7864,3.7474,3.6796,3.6505,3.643,3.6417,3.6417,3.6417,3.6689,3.8034,3.9163,3.9968,4.1035,4.2386,4.3056,4.323,4.3305,4.3305,4.3305,4.3305,4.3305,4.3305,4.3305,4.3305,4.3305,4.363,4.4627,4.5468,4.6311,2.8301,2.8301,2.8301,2.8301,2.8301,2.8301,2.8301,2.8301,2.8301,2.8301,2.8301,2.8301,2.8301,2.8301,2.8301,2.8301,2.8301,2.8301,2.8301,2.8301,2.8301,2.8301,2.8301,2.8301,2.8301,2.8301,2.8301,2.8301,2.8301,2.8301,2.833,2.8408,2.8447,2.831,2.8301,2.8301,2.8301,2.8301,2.8301,2.8301,2.8301,2.8301,2.8301,2.8337,2.8525,2.8769,2.8947,2.918,2.9491,2.9676,2.9725,2.9706,2.9696,2.9696,2.9695,3.0041,3.1473,3.3589,3.4962,3.6672,3.74,3.8582,3.9284,3.9697,3.9697,3.9697,3.9697,3.9697,3.9697,3.9697,3.9697,3.9697,3.9697,3.9697,3.9697,3.9697,3.9697,3.9697,3.9622,3.9471,3.9296,3.8756,3.8642,3.858,3.7927,3.7537,3.7462,3.7436,3.6909,3.6593,3.6417,3.6417,3.6417,3.6417,3.6913,3.8463,3.9302,3.9889,4.1246,4.286,4.3285,4.3305,4.3305,4.3305,4.3305,4.3305,4.3305,4.3305,4.3305,4.3305,4.3305,4.3305,4.3873,4.4684,4.5504,2.8301,2.8301,2.8301,2.8301,2.8301,2.8301,2.8301,2.8301,2.8301,2.8301,2.8301,2.8301,2.8301,2.8301,2.8301,2.8301,2.8301,2.8301,2.8301,2.8301,2.8301,2.8301,2.8301,2.8301,2.8301,2.8301,2.8301,2.8301,2.8301,2.8301,2.831,2.8359,2.8428,2.8418,2.8369,2.8301,2.8301,2.8301,2.8301,2.8301,2.8301,2.8301,2.8301,2.8408,2.8652,2.8994,2.9219,2.9512,2.9882,2.9932,3.0,3.0028,3.0038,3.0076,3.0293,3.1115,3.3107,3.5463,3.7488,3.8166,3.8778,3.9439,3.9697,3.9697,3.9697,3.9697,3.9697,3.9697,3.9697,3.9697,3.9697,3.9697,3.9697,3.9697,3.9697,3.9697,3.9697,3.9697,3.9685,3.9546,3.9157,3.8605,3.8027,3.7826,3.7538,3.7286,3.7047,3.7009,3.6972,3.6658,3.6417,3.6417,3.6417,3.6417,3.7359,3.9105,3.9751,3.9897,4.1407,4.319,4.3305,4.3305,4.3305,4.3305,4.3305,4.3305,4.3305,4.3305,4.3305,4.3305,4.3305,4.3309,4.3309,4.4008,4.4912,2.8301,2.8301,2.8301,2.8301,2.8301,2.8301,2.8301,2.8301,2.8301,2.8301,2.8301,2.8301,2.8301,2.8301,2.8301,2.8301,2.8301,2.8301,2.8301,2.8301,2.8301,2.8301,2.8301,2.8301,2.8301,2.8301,2.8301,2.8301,2.8301,2.8301,2.8301,2.8359,2.8555,2.8496,2.8369,2.8301,2.8301,2.8301,2.8301,2.8301,2.8301,2.8301,2.8301,2.8418,2.8682,2.9092,2.9443,2.9882,3.0341,3.0615,3.082,3.0849,3.0879,3.0908,3.1815,3.3413,3.5784,3.7601,3.9039,3.9336,3.9413,3.9671,3.9697,3.9697,3.9697,3.9697,3.9697,3.9697,3.9697,3.9697,3.9697,3.9697,3.9697,3.9697,3.9697,3.9697,3.9697,3.9697,3.9697,3.9471,3.9032,3.8454,3.7739,3.74,3.7173,3.6997,3.6771,3.667,3.6656,3.6619,3.6417,3.6417,3.6417,3.6417,3.7603,3.911,3.9892,3.9935,4.1734,4.3305,4.3305,4.3305,4.3305,4.3305,4.3305,4.3305,4.3305,4.3305,4.3305,4.3305,4.3305,4.3305,4.3309,4.3771,4.4586,2.8301,2.8301,2.8301,2.8301,2.8301,2.8301,2.8301,2.8301,2.8301,2.8301,2.8301,2.8301,2.8301,2.8301,2.8301,2.8301,2.8301,2.8301,2.8301,2.8301,2.8301,2.8301,2.8301,2.8301,2.8301,2.8301,2.8301,2.8301,2.8301,2.8301,2.8301,2.834,2.8467,2.8389,2.835,2.8301,2.8301,2.8301,2.8301,2.8301,2.8301,2.8301,2.8301,2.8408,2.8701,2.9121,2.9579,2.9999,3.041,3.0791,3.0908,3.0928,3.0928,3.1005,3.1767,3.4515,3.6476,3.8084,3.9362,3.9671,3.9607,3.9555,3.9645,3.9697,3.9697,3.9697,3.9697,3.9697,3.9697,3.9697,3.9697,3.9697,3.9697,3.9697,3.9697,3.9697,3.9672,3.9584,3.9546,3.9082,3.8642,3.7989,3.7298,3.6959,3.6733,3.662,3.6519,3.6455,3.6417,3.6417,3.6417,3.6417,3.6417,3.6417,3.7163,3.8534,3.9353,4.0216,4.1858,4.311,4.3305,4.3305,4.3305,4.3305,4.3305,4.3305,4.3305,4.3305,4.3305,4.3305,4.3305,4.3305,4.3389,4.3767,4.4105,2.8301,2.8301,2.8301,2.8301,2.8301,2.8301,2.8301,2.8301,2.8301,2.8301,2.8301,2.8301,2.8301,2.8301,2.8301,2.8301,2.8301,2.8301,2.8301,2.8301,2.8301,2.8301,2.8301,2.8301,2.8301,2.8301,2.8301,2.8301,2.8301,2.8301,2.8301,2.8301,2.8301,2.8301,2.8301,2.8301,2.8301,2.8301,2.8301,2.8301,2.8301,2.8301,2.8301,2.8379,2.8674,2.9131,2.9588,2.9999,3.041,3.081,3.0918,3.0928,3.1112,3.1469,3.2074,3.4431,3.5645,3.6688,3.7595,3.8451,3.8673,3.8999,3.9336,3.9697,3.9697,3.9697,3.9697,3.9697,3.9697,3.9697,3.9697,3.9697,3.9697,3.9697,3.9697,3.9697,3.9584,3.9459,3.9082,3.8605,3.8002,3.7349,3.6846,3.6545,3.6417,3.6468,3.6457,3.6455,3.6417,3.6417,3.6417,3.6417,3.6417,3.6441,3.7279,3.802,3.9019,4.0029,4.1288,4.2365,4.2935,4.3305,4.3305,4.3305,4.3305,4.3305,4.3305,4.3305,4.3305,4.3305,4.3305,4.3305,4.3305,4.3409,4.3767,2.8301,2.8301,2.8301,2.8301,2.8301,2.8301,2.8301,2.8301,2.8301,2.8301,2.8301,2.834,2.8359,2.832,2.8301,2.8301,2.8301,2.8301,2.8301,2.8301,2.8301,2.8301,2.8301,2.8301,2.8301,2.8301,2.8301,2.8301,2.8301,2.8301,2.8301,2.8301,2.8301,2.8301,2.8301,2.8301,2.8301,2.8301,2.8301,2.8301,2.8301,2.8301,2.831,2.8369,2.8701,2.9094,2.9579,3.0009,3.04,3.0723,3.0928,3.0928,3.1305,3.215,3.2907,3.3631,3.4875,3.5535,3.6201,3.6849,3.7438,3.794,3.8582,3.9141,3.931,3.962,3.9697,3.9697,3.9697,3.9697,3.9697,3.9697,3.9697,3.9697,3.9697,3.9697,3.9647,3.9333,3.8793,3.8304,3.7726,3.7085,3.6658,3.6417,3.6417,3.6417,3.6417,3.6417,3.6417,3.6417,3.6417,3.6417,3.6417,3.6476,3.6943,3.7759,3.8841,3.9907,4.1106,4.2146,4.3076,4.3305,4.3305,4.3305,4.3305,4.3305,4.3305,4.3305,4.3305,4.3305,4.3305,4.3305,4.3305,4.3305,4.3409,2.8301,2.8301,2.8301,2.8301,2.8301,2.8301,2.8301,2.8301,2.8301,2.8301,2.835,2.8574,2.8564,2.831,2.8301,2.8301,2.8301,2.8301,2.8301,2.8301,2.8301,2.8301,2.8301,2.8301,2.8301,2.8301,2.8301,2.8301,2.8301,2.8301,2.8301,2.8301,2.8301,2.8301,2.8301,2.8301,2.8301,2.8301,2.8301,2.8301,2.8301,2.8301,2.831,2.8418,2.8701,2.9121,2.9579,3.0009,3.042,3.0801,3.0898,3.0928,3.0976,3.2311,3.2964,3.336,3.4181,3.4653,3.5013,3.548,3.619,3.673,3.7397,3.8149,3.8778,3.9388,3.9697,3.9697,3.9697,3.9697,3.9697,3.9697,3.9697,3.9697,3.9685,3.9685,3.9672,3.9094,3.8517,3.7977,3.7425,3.6984,3.6556,3.6417,3.6417,3.6417,3.6417,3.6417,3.6417,3.6417,3.6417,3.6417,3.6417,3.6546,3.6873,3.7645,3.8796,4.0102,4.1372,4.2345,4.321,4.3305,4.3305,4.3305,4.3305,4.3305,4.3305,4.3305,4.3305,4.3305,4.3305,4.3305,4.3305,4.3305,4.3305,2.8301,2.8301,2.8301,2.8301,2.8301,2.8301,2.8301,2.832,2.8496,2.8457,2.8347,2.8506,2.8506,2.8301,2.8301,2.8301,2.8301,2.8301,2.8301,2.8301,2.8301,2.8301,2.8301,2.8301,2.8301,2.8301,2.8301,2.8301,2.8301,2.8301,2.8301,2.8301,2.8301,2.8301,2.8301,2.8301,2.8301,2.8301,2.8301,2.8301,2.8301,2.8301,2.8301,2.8408,2.8701,2.9131,2.9579,3.0009,3.042,3.0752,3.0918,3.0928,3.1034,3.1604,3.1988,3.2207,3.2701,3.3371,3.3586,3.4191,3.5041,3.5672,3.6796,3.7781,3.9141,3.9697,3.9697,3.9697,3.9697,3.9697,3.9697,3.9697,3.9697,3.9697,3.9647,3.9609,3.9258,3.8705,3.8128,3.76,3.7122,3.672,3.643,3.6417,3.6417,3.6417,3.6417,3.6417,3.6417,3.6417,3.6417,3.6417,3.6417,3.6441,3.6617,3.7576,3.885,4.0196,4.1512,4.2345,4.3036,4.321,4.3305,4.3305,4.3305,4.3305,4.3305,4.3305,4.3305,4.3305,4.3305,4.3305,4.3305,4.3305,4.3305,2.8301,2.8301,2.8301,2.8301,2.8301,2.8301,2.8301,2.835,2.8662,2.8613,2.832,2.831,2.8301,2.8301,2.8301,2.8301,2.8301,2.8301,2.8301,2.8301,2.8301,2.8301,2.8301,2.8301,2.8301,2.8301,2.8301,2.8301,2.8301,2.8301,2.8301,2.8301,2.8301,2.8301,2.8301,2.8301,2.8301,2.8301,2.8301,2.8301,2.8301,2.8301,2.8301,2.8437,2.876,2.9197,2.9608,3.0077,3.0488,3.0732,3.0928,3.0928,3.0928,3.1141,3.1112,3.1334,3.1392,3.1527,3.1614,3.2729,3.3772,3.4891,3.6352,3.7477,3.8647,3.8868,3.8842,3.9141,3.9141,3.9581,3.9581,3.9581,3.9581,3.9633,3.9558,3.9546,3.9032,3.8454,3.7864,3.7336,3.6909,3.6556,3.643,3.6417,3.6417,3.6417,3.6417,3.6417,3.6417,3.6417,3.6417,3.6417,3.6417,3.6441,3.6452,3.7553,3.8894,3.9929,4.1141,4.2091,4.2866,4.3135,4.3305,4.3305,4.3305,4.3305,4.3305,4.3305,4.3305,4.3305,4.3305,4.3305,4.3305,4.3305,4.3305,2.8301,2.8301,2.8301,2.8301,2.8301,2.8301,2.8301,2.8301,2.8369,2.835,2.831,2.8301,2.8301,2.8301,2.8301,2.8301,2.8301,2.8301,2.8301,2.8301,2.8301,2.8301,2.8301,2.8301,2.8301,2.8301,2.8301,2.8301,2.8301,2.8301,2.8301,2.8301,2.8301,2.8301,2.8301,2.8301,2.8301,2.8301,2.8301,2.8301,2.8301,2.8301,2.8301,2.8584,2.9043,2.9355,2.9774,3.04,3.0693,3.0859,3.0928,3.0928,3.0928,3.0928,3.0928,3.0928,3.0928,3.0928,3.1363,3.2121,3.3191,3.3687,3.4764,3.5151,3.5781,3.5699,3.6054,3.6996,3.7489,3.8868,3.9115,3.9141,3.9167,3.9336,3.9376,3.9455,3.9257,3.8567,3.7914,3.7424,3.6947,3.6656,3.6417,3.6417,3.6417,3.6417,3.6417,3.6417,3.6417,3.6417,3.6417,3.6417,3.6417,3.6417,3.6452,3.7632,3.8859,3.9828,4.0909,4.2146,4.2941,4.319,4.3305,4.3305,4.3305,4.3305,4.3305,4.3305,4.3305,4.3305,4.3305,4.3305,4.3305,4.3305,4.3305]}]]